<?xml version="1.0" encoding="UTF-8" standalone="no" ?>
<gpx xmlns="http://www.topografix.com/GPX/1/1" xmlns:xsi="http://www.w3.org/2001/XMLSchema-instance" xsi:schemaLocation="http://www.topografix.com/GPX/1/1 http://www.topografix.com/GPX/1/1/gpx.xsd" version="1.1" creator="VisuGPX - https://www.visugpx.com">
  <metadata>
    <name>lac de maine savennière </name>
    <desc><![CDATA[parcours le long de la Maine découverte des coteaux de savennière cote d'épirée ]]></desc>
  </metadata>
  <trk>
    <name><![CDATA[LAC MAINE4SEPT]]></name>
    <trkseg>
      <trkpt lat="47.45501" lon="-0.59573">
        <ele>2.54</ele>
        <time>2016-09-04T06:45:26Z</time>
      </trkpt>
      <trkpt lat="47.45499" lon="-0.5957">
        <ele>2.06</ele>
        <time>2016-09-04T06:45:36Z</time>
      </trkpt>
      <trkpt lat="47.45496" lon="-0.59564">
        <ele>2.54</ele>
        <time>2016-09-04T06:45:47Z</time>
      </trkpt>
      <trkpt lat="47.45495" lon="-0.59562">
        <ele>2.54</ele>
        <time>2016-09-04T06:45:51Z</time>
      </trkpt>
      <trkpt lat="47.45501" lon="-0.59572">
        <ele>3.02</ele>
        <time>2016-09-04T06:46:00Z</time>
      </trkpt>
      <trkpt lat="47.45502" lon="-0.59574">
        <ele>3.02</ele>
        <time>2016-09-04T06:46:01Z</time>
      </trkpt>
      <trkpt lat="47.45511" lon="-0.59622">
        <ele>3.02</ele>
        <time>2016-09-04T06:46:15Z</time>
      </trkpt>
      <trkpt lat="47.45513" lon="-0.59655">
        <ele>3.02</ele>
        <time>2016-09-04T06:46:23Z</time>
      </trkpt>
      <trkpt lat="47.45521" lon="-0.597">
        <ele>4.46</ele>
        <time>2016-09-04T06:46:32Z</time>
      </trkpt>
      <trkpt lat="47.45521" lon="-0.59714">
        <ele>4.46</ele>
        <time>2016-09-04T06:46:34Z</time>
      </trkpt>
      <trkpt lat="47.4552" lon="-0.59721">
        <ele>3.98</ele>
        <time>2016-09-04T06:46:35Z</time>
      </trkpt>
      <trkpt lat="47.45518" lon="-0.59729">
        <ele>3.5</ele>
        <time>2016-09-04T06:46:36Z</time>
      </trkpt>
      <trkpt lat="47.45515" lon="-0.59737">
        <ele>3.02</ele>
        <time>2016-09-04T06:46:37Z</time>
      </trkpt>
      <trkpt lat="47.45512" lon="-0.59745">
        <ele>3.02</ele>
        <time>2016-09-04T06:46:38Z</time>
      </trkpt>
      <trkpt lat="47.45505" lon="-0.59761">
        <ele>2.54</ele>
        <time>2016-09-04T06:46:40Z</time>
      </trkpt>
      <trkpt lat="47.45485" lon="-0.59826">
        <ele>3.02</ele>
        <time>2016-09-04T06:46:51Z</time>
      </trkpt>
      <trkpt lat="47.4549" lon="-0.59844">
        <ele>4.46</ele>
        <time>2016-09-04T06:46:55Z</time>
      </trkpt>
      <trkpt lat="47.45503" lon="-0.59847">
        <ele>7.35</ele>
        <time>2016-09-04T06:47:09Z</time>
      </trkpt>
      <trkpt lat="47.45503" lon="-0.59846">
        <ele>7.35</ele>
        <time>2016-09-04T06:47:39Z</time>
      </trkpt>
      <trkpt lat="47.45501" lon="-0.59846">
        <ele>7.83</ele>
        <time>2016-09-04T06:48:04Z</time>
      </trkpt>
      <trkpt lat="47.45499" lon="-0.59847">
        <ele>8.79</ele>
        <time>2016-09-04T06:48:42Z</time>
      </trkpt>
      <trkpt lat="47.45501" lon="-0.59846">
        <ele>8.79</ele>
        <time>2016-09-04T06:49:09Z</time>
      </trkpt>
      <trkpt lat="47.45501" lon="-0.59845">
        <ele>9.75</ele>
        <time>2016-09-04T06:49:33Z</time>
      </trkpt>
      <trkpt lat="47.45494" lon="-0.59843">
        <ele>8.31</ele>
        <time>2016-09-04T06:49:41Z</time>
      </trkpt>
      <trkpt lat="47.45497" lon="-0.59846">
        <ele>8.79</ele>
        <time>2016-09-04T06:49:49Z</time>
      </trkpt>
      <trkpt lat="47.45503" lon="-0.59844">
        <ele>9.27</ele>
        <time>2016-09-04T06:49:53Z</time>
      </trkpt>
      <trkpt lat="47.45508" lon="-0.59848">
        <ele>11.67</ele>
        <time>2016-09-04T06:49:56Z</time>
      </trkpt>
      <trkpt lat="47.45514" lon="-0.59858">
        <ele>13.12</ele>
        <time>2016-09-04T06:50:01Z</time>
      </trkpt>
      <trkpt lat="47.45523" lon="-0.59864">
        <ele>15.52</ele>
        <time>2016-09-04T06:50:06Z</time>
      </trkpt>
      <trkpt lat="47.45535" lon="-0.59874">
        <ele>17.92</ele>
        <time>2016-09-04T06:50:12Z</time>
      </trkpt>
      <trkpt lat="47.45568" lon="-0.59896">
        <ele>20.81</ele>
        <time>2016-09-04T06:50:28Z</time>
      </trkpt>
      <trkpt lat="47.45574" lon="-0.59898">
        <ele>21.29</ele>
        <time>2016-09-04T06:50:32Z</time>
      </trkpt>
      <trkpt lat="47.45576" lon="-0.59918">
        <ele>23.69</ele>
        <time>2016-09-04T06:50:41Z</time>
      </trkpt>
      <trkpt lat="47.45575" lon="-0.59922">
        <ele>24.65</ele>
        <time>2016-09-04T06:50:43Z</time>
      </trkpt>
      <trkpt lat="47.45551" lon="-0.59945">
        <ele>26.57</ele>
        <time>2016-09-04T06:50:59Z</time>
      </trkpt>
      <trkpt lat="47.45547" lon="-0.59963">
        <ele>27.53</ele>
        <time>2016-09-04T06:51:07Z</time>
      </trkpt>
      <trkpt lat="47.4554" lon="-0.59969">
        <ele>27.53</ele>
        <time>2016-09-04T06:51:13Z</time>
      </trkpt>
      <trkpt lat="47.4552" lon="-0.59953">
        <ele>28.5</ele>
        <time>2016-09-04T06:51:28Z</time>
      </trkpt>
      <trkpt lat="47.45517" lon="-0.59927">
        <ele>25.61</ele>
        <time>2016-09-04T06:51:42Z</time>
      </trkpt>
      <trkpt lat="47.45517" lon="-0.59922">
        <ele>25.61</ele>
        <time>2016-09-04T06:51:44Z</time>
      </trkpt>
      <trkpt lat="47.45521" lon="-0.59903">
        <ele>21.77</ele>
        <time>2016-09-04T06:51:52Z</time>
      </trkpt>
      <trkpt lat="47.45522" lon="-0.59895">
        <ele>20.81</ele>
        <time>2016-09-04T06:51:55Z</time>
      </trkpt>
      <trkpt lat="47.45522" lon="-0.59891">
        <ele>19.84</ele>
        <time>2016-09-04T06:51:57Z</time>
      </trkpt>
      <trkpt lat="47.45522" lon="-0.59889">
        <ele>18.88</ele>
        <time>2016-09-04T06:51:58Z</time>
      </trkpt>
      <trkpt lat="47.45516" lon="-0.59881">
        <ele>17.92</ele>
        <time>2016-09-04T06:52:02Z</time>
      </trkpt>
      <trkpt lat="47.45512" lon="-0.59879">
        <ele>16.96</ele>
        <time>2016-09-04T06:52:04Z</time>
      </trkpt>
      <trkpt lat="47.45507" lon="-0.59873">
        <ele>16</ele>
        <time>2016-09-04T06:52:07Z</time>
      </trkpt>
      <trkpt lat="47.45503" lon="-0.59871">
        <ele>15.52</ele>
        <time>2016-09-04T06:52:09Z</time>
      </trkpt>
      <trkpt lat="47.45498" lon="-0.5987">
        <ele>14.56</ele>
        <time>2016-09-04T06:52:12Z</time>
      </trkpt>
      <trkpt lat="47.45492" lon="-0.59871">
        <ele>13.6</ele>
        <time>2016-09-04T06:52:15Z</time>
      </trkpt>
      <trkpt lat="47.4548" lon="-0.59862">
        <ele>9.75</ele>
        <time>2016-09-04T06:52:20Z</time>
      </trkpt>
      <trkpt lat="47.45477" lon="-0.59851">
        <ele>7.83</ele>
        <time>2016-09-04T06:52:22Z</time>
      </trkpt>
      <trkpt lat="47.45476" lon="-0.59845">
        <ele>7.35</ele>
        <time>2016-09-04T06:52:23Z</time>
      </trkpt>
      <trkpt lat="47.45474" lon="-0.59834">
        <ele>6.39</ele>
        <time>2016-09-04T06:52:32Z</time>
      </trkpt>
      <trkpt lat="47.45478" lon="-0.59826">
        <ele>6.39</ele>
        <time>2016-09-04T06:52:40Z</time>
      </trkpt>
      <trkpt lat="47.45477" lon="-0.59839">
        <ele>6.87</ele>
        <time>2016-09-04T06:52:48Z</time>
      </trkpt>
      <trkpt lat="47.4548" lon="-0.59839">
        <ele>7.35</ele>
        <time>2016-09-04T06:52:49Z</time>
      </trkpt>
      <trkpt lat="47.45496" lon="-0.59846">
        <ele>10.23</ele>
        <time>2016-09-04T06:52:58Z</time>
      </trkpt>
      <trkpt lat="47.4551" lon="-0.59853">
        <ele>14.08</ele>
        <time>2016-09-04T06:53:08Z</time>
      </trkpt>
      <trkpt lat="47.45515" lon="-0.59857">
        <ele>15.04</ele>
        <time>2016-09-04T06:53:12Z</time>
      </trkpt>
      <trkpt lat="47.45517" lon="-0.59864">
        <ele>16.48</ele>
        <time>2016-09-04T06:53:16Z</time>
      </trkpt>
      <trkpt lat="47.45516" lon="-0.5987">
        <ele>17.44</ele>
        <time>2016-09-04T06:53:19Z</time>
      </trkpt>
      <trkpt lat="47.45517" lon="-0.59877">
        <ele>19.36</ele>
        <time>2016-09-04T06:53:24Z</time>
      </trkpt>
      <trkpt lat="47.45522" lon="-0.59883">
        <ele>20.32</ele>
        <time>2016-09-04T06:53:29Z</time>
      </trkpt>
      <trkpt lat="47.45532" lon="-0.59899">
        <ele>22.25</ele>
        <time>2016-09-04T06:53:38Z</time>
      </trkpt>
      <trkpt lat="47.45545" lon="-0.59918">
        <ele>25.13</ele>
        <time>2016-09-04T06:53:51Z</time>
      </trkpt>
      <trkpt lat="47.45546" lon="-0.59954">
        <ele>28.02</ele>
        <time>2016-09-04T06:54:09Z</time>
      </trkpt>
      <trkpt lat="47.4555" lon="-0.60005">
        <ele>30.42</ele>
        <time>2016-09-04T06:54:30Z</time>
      </trkpt>
      <trkpt lat="47.45555" lon="-0.60048">
        <ele>31.86</ele>
        <time>2016-09-04T06:54:44Z</time>
      </trkpt>
      <trkpt lat="47.45565" lon="-0.60094">
        <ele>35.23</ele>
        <time>2016-09-04T06:55:01Z</time>
      </trkpt>
      <trkpt lat="47.45589" lon="-0.60145">
        <ele>36.19</ele>
        <time>2016-09-04T06:55:18Z</time>
      </trkpt>
      <trkpt lat="47.45613" lon="-0.60174">
        <ele>38.59</ele>
        <time>2016-09-04T06:55:31Z</time>
      </trkpt>
      <trkpt lat="47.45624" lon="-0.60201">
        <ele>38.11</ele>
        <time>2016-09-04T06:55:40Z</time>
      </trkpt>
      <trkpt lat="47.45639" lon="-0.60217">
        <ele>40.03</ele>
        <time>2016-09-04T06:55:46Z</time>
      </trkpt>
      <trkpt lat="47.45658" lon="-0.60222">
        <ele>42.44</ele>
        <time>2016-09-04T06:55:57Z</time>
      </trkpt>
      <trkpt lat="47.45665" lon="-0.60241">
        <ele>44.36</ele>
        <time>2016-09-04T06:56:04Z</time>
      </trkpt>
      <trkpt lat="47.45683" lon="-0.6026">
        <ele>46.76</ele>
        <time>2016-09-04T06:56:18Z</time>
      </trkpt>
      <trkpt lat="47.45685" lon="-0.60273">
        <ele>47.72</ele>
        <time>2016-09-04T06:56:24Z</time>
      </trkpt>
      <trkpt lat="47.45688" lon="-0.60282">
        <ele>49.16</ele>
        <time>2016-09-04T06:56:29Z</time>
      </trkpt>
      <trkpt lat="47.45688" lon="-0.60291">
        <ele>49.16</ele>
        <time>2016-09-04T06:56:33Z</time>
      </trkpt>
      <trkpt lat="47.45699" lon="-0.60322">
        <ele>51.09</ele>
        <time>2016-09-04T06:56:46Z</time>
      </trkpt>
      <trkpt lat="47.4571" lon="-0.60351">
        <ele>52.53</ele>
        <time>2016-09-04T06:56:57Z</time>
      </trkpt>
      <trkpt lat="47.45717" lon="-0.60386">
        <ele>53.01</ele>
        <time>2016-09-04T06:57:08Z</time>
      </trkpt>
      <trkpt lat="47.4573" lon="-0.60442">
        <ele>51.57</ele>
        <time>2016-09-04T06:57:21Z</time>
      </trkpt>
      <trkpt lat="47.45751" lon="-0.60485">
        <ele>52.53</ele>
        <time>2016-09-04T06:57:32Z</time>
      </trkpt>
      <trkpt lat="47.45763" lon="-0.60531">
        <ele>53.97</ele>
        <time>2016-09-04T06:57:47Z</time>
      </trkpt>
      <trkpt lat="47.45766" lon="-0.60541">
        <ele>53.97</ele>
        <time>2016-09-04T06:57:51Z</time>
      </trkpt>
      <trkpt lat="47.45772" lon="-0.60543">
        <ele>53.97</ele>
        <time>2016-09-04T06:58:04Z</time>
      </trkpt>
      <trkpt lat="47.4577" lon="-0.60543">
        <ele>53.97</ele>
        <time>2016-09-04T06:58:37Z</time>
      </trkpt>
      <trkpt lat="47.4577" lon="-0.60542">
        <ele>53.97</ele>
        <time>2016-09-04T06:58:41Z</time>
      </trkpt>
      <trkpt lat="47.45759" lon="-0.60512">
        <ele>54.93</ele>
        <time>2016-09-04T06:58:51Z</time>
      </trkpt>
      <trkpt lat="47.45757" lon="-0.60502">
        <ele>53.97</ele>
        <time>2016-09-04T06:58:53Z</time>
      </trkpt>
      <trkpt lat="47.45744" lon="-0.60473">
        <ele>53.49</ele>
        <time>2016-09-04T06:58:58Z</time>
      </trkpt>
      <trkpt lat="47.45731" lon="-0.60456">
        <ele>51.57</ele>
        <time>2016-09-04T06:59:02Z</time>
      </trkpt>
      <trkpt lat="47.45717" lon="-0.60434">
        <ele>51.57</ele>
        <time>2016-09-04T06:59:07Z</time>
      </trkpt>
      <trkpt lat="47.45716" lon="-0.60429">
        <ele>52.05</ele>
        <time>2016-09-04T06:59:09Z</time>
      </trkpt>
      <trkpt lat="47.45726" lon="-0.60443">
        <ele>53.49</ele>
        <time>2016-09-04T06:59:16Z</time>
      </trkpt>
      <trkpt lat="47.45748" lon="-0.60481">
        <ele>53.97</ele>
        <time>2016-09-04T06:59:28Z</time>
      </trkpt>
      <trkpt lat="47.45768" lon="-0.6051">
        <ele>53.97</ele>
        <time>2016-09-04T06:59:38Z</time>
      </trkpt>
      <trkpt lat="47.45761" lon="-0.60523">
        <ele>54.93</ele>
        <time>2016-09-04T06:59:47Z</time>
      </trkpt>
      <trkpt lat="47.45759" lon="-0.60502">
        <ele>54.45</ele>
        <time>2016-09-04T06:59:52Z</time>
      </trkpt>
      <trkpt lat="47.4575" lon="-0.60482">
        <ele>53.01</ele>
        <time>2016-09-04T06:59:56Z</time>
      </trkpt>
      <trkpt lat="47.45744" lon="-0.60471">
        <ele>53.49</ele>
        <time>2016-09-04T06:59:58Z</time>
      </trkpt>
      <trkpt lat="47.45722" lon="-0.60448">
        <ele>51.57</ele>
        <time>2016-09-04T07:00:04Z</time>
      </trkpt>
      <trkpt lat="47.45718" lon="-0.60441">
        <ele>51.57</ele>
        <time>2016-09-04T07:00:06Z</time>
      </trkpt>
      <trkpt lat="47.45723" lon="-0.60433">
        <ele>53.01</ele>
        <time>2016-09-04T07:00:14Z</time>
      </trkpt>
      <trkpt lat="47.45725" lon="-0.60437">
        <ele>53.01</ele>
        <time>2016-09-04T07:00:15Z</time>
      </trkpt>
      <trkpt lat="47.45745" lon="-0.60475">
        <ele>53.49</ele>
        <time>2016-09-04T07:00:25Z</time>
      </trkpt>
      <trkpt lat="47.45767" lon="-0.60503">
        <ele>54.45</ele>
        <time>2016-09-04T07:00:36Z</time>
      </trkpt>
      <trkpt lat="47.45771" lon="-0.60518">
        <ele>54.93</ele>
        <time>2016-09-04T07:00:40Z</time>
      </trkpt>
      <trkpt lat="47.45766" lon="-0.60534">
        <ele>54.45</ele>
        <time>2016-09-04T07:00:49Z</time>
      </trkpt>
      <trkpt lat="47.45766" lon="-0.60536">
        <ele>54.93</ele>
        <time>2016-09-04T07:01:18Z</time>
      </trkpt>
      <trkpt lat="47.45767" lon="-0.60541">
        <ele>55.41</ele>
        <time>2016-09-04T07:01:54Z</time>
      </trkpt>
      <trkpt lat="47.45765" lon="-0.60539">
        <ele>55.41</ele>
        <time>2016-09-04T07:02:15Z</time>
      </trkpt>
      <trkpt lat="47.4576" lon="-0.60517">
        <ele>55.89</ele>
        <time>2016-09-04T07:02:23Z</time>
      </trkpt>
      <trkpt lat="47.45738" lon="-0.60472">
        <ele>53.97</ele>
        <time>2016-09-04T07:02:33Z</time>
      </trkpt>
      <trkpt lat="47.45734" lon="-0.60467">
        <ele>53.97</ele>
        <time>2016-09-04T07:02:34Z</time>
      </trkpt>
      <trkpt lat="47.45719" lon="-0.60445">
        <ele>52.53</ele>
        <time>2016-09-04T07:02:39Z</time>
      </trkpt>
      <trkpt lat="47.45715" lon="-0.60438">
        <ele>53.49</ele>
        <time>2016-09-04T07:02:41Z</time>
      </trkpt>
      <trkpt lat="47.45714" lon="-0.60433">
        <ele>53.49</ele>
        <time>2016-09-04T07:02:44Z</time>
      </trkpt>
      <trkpt lat="47.45736" lon="-0.60461">
        <ele>54.45</ele>
        <time>2016-09-04T07:02:56Z</time>
      </trkpt>
      <trkpt lat="47.45748" lon="-0.60481">
        <ele>55.41</ele>
        <time>2016-09-04T07:03:02Z</time>
      </trkpt>
      <trkpt lat="47.4577" lon="-0.60515">
        <ele>56.37</ele>
        <time>2016-09-04T07:03:15Z</time>
      </trkpt>
      <trkpt lat="47.4577" lon="-0.60519">
        <ele>55.89</ele>
        <time>2016-09-04T07:03:16Z</time>
      </trkpt>
      <trkpt lat="47.45764" lon="-0.60535">
        <ele>55.41</ele>
        <time>2016-09-04T07:03:29Z</time>
      </trkpt>
      <trkpt lat="47.45763" lon="-0.60532">
        <ele>56.37</ele>
        <time>2016-09-04T07:03:38Z</time>
      </trkpt>
      <trkpt lat="47.45758" lon="-0.60524">
        <ele>55.89</ele>
        <time>2016-09-04T07:03:42Z</time>
      </trkpt>
      <trkpt lat="47.45746" lon="-0.60505">
        <ele>54.93</ele>
        <time>2016-09-04T07:03:46Z</time>
      </trkpt>
      <trkpt lat="47.45737" lon="-0.60493">
        <ele>54.45</ele>
        <time>2016-09-04T07:03:50Z</time>
      </trkpt>
      <trkpt lat="47.45716" lon="-0.60483">
        <ele>51.57</ele>
        <time>2016-09-04T07:03:57Z</time>
      </trkpt>
      <trkpt lat="47.45708" lon="-0.60483">
        <ele>50.13</ele>
        <time>2016-09-04T07:03:59Z</time>
      </trkpt>
      <trkpt lat="47.45703" lon="-0.60477">
        <ele>48.2</ele>
        <time>2016-09-04T07:04:02Z</time>
      </trkpt>
      <trkpt lat="47.457" lon="-0.6047">
        <ele>48.68</ele>
        <time>2016-09-04T07:04:04Z</time>
      </trkpt>
      <trkpt lat="47.45686" lon="-0.60464">
        <ele>44.84</ele>
        <time>2016-09-04T07:04:08Z</time>
      </trkpt>
      <trkpt lat="47.45676" lon="-0.60453">
        <ele>43.4</ele>
        <time>2016-09-04T07:04:11Z</time>
      </trkpt>
      <trkpt lat="47.45663" lon="-0.60461">
        <ele>40.03</ele>
        <time>2016-09-04T07:04:15Z</time>
      </trkpt>
      <trkpt lat="47.45651" lon="-0.60469">
        <ele>36.67</ele>
        <time>2016-09-04T07:04:19Z</time>
      </trkpt>
      <trkpt lat="47.45647" lon="-0.60478">
        <ele>34.26</ele>
        <time>2016-09-04T07:04:22Z</time>
      </trkpt>
      <trkpt lat="47.45641" lon="-0.60473">
        <ele>32.82</ele>
        <time>2016-09-04T07:04:25Z</time>
      </trkpt>
      <trkpt lat="47.45625" lon="-0.6047">
        <ele>28.98</ele>
        <time>2016-09-04T07:04:29Z</time>
      </trkpt>
      <trkpt lat="47.4562" lon="-0.60476">
        <ele>28.02</ele>
        <time>2016-09-04T07:04:31Z</time>
      </trkpt>
      <trkpt lat="47.45617" lon="-0.60479">
        <ele>27.05</ele>
        <time>2016-09-04T07:04:32Z</time>
      </trkpt>
      <trkpt lat="47.45613" lon="-0.60468">
        <ele>25.61</ele>
        <time>2016-09-04T07:04:38Z</time>
      </trkpt>
      <trkpt lat="47.45615" lon="-0.60463">
        <ele>25.61</ele>
        <time>2016-09-04T07:04:59Z</time>
      </trkpt>
      <trkpt lat="47.45613" lon="-0.60464">
        <ele>25.61</ele>
        <time>2016-09-04T07:05:29Z</time>
      </trkpt>
      <trkpt lat="47.45612" lon="-0.60435">
        <ele>24.65</ele>
        <time>2016-09-04T07:05:38Z</time>
      </trkpt>
      <trkpt lat="47.4561" lon="-0.60428">
        <ele>24.17</ele>
        <time>2016-09-04T07:05:39Z</time>
      </trkpt>
      <trkpt lat="47.45609" lon="-0.60422">
        <ele>24.65</ele>
        <time>2016-09-04T07:05:40Z</time>
      </trkpt>
      <trkpt lat="47.45607" lon="-0.60415">
        <ele>24.17</ele>
        <time>2016-09-04T07:05:41Z</time>
      </trkpt>
      <trkpt lat="47.45606" lon="-0.60408">
        <ele>23.69</ele>
        <time>2016-09-04T07:05:42Z</time>
      </trkpt>
      <trkpt lat="47.45605" lon="-0.604">
        <ele>24.17</ele>
        <time>2016-09-04T07:05:43Z</time>
      </trkpt>
      <trkpt lat="47.45605" lon="-0.60392">
        <ele>23.69</ele>
        <time>2016-09-04T07:05:44Z</time>
      </trkpt>
      <trkpt lat="47.45604" lon="-0.60353">
        <ele>21.77</ele>
        <time>2016-09-04T07:05:49Z</time>
      </trkpt>
      <trkpt lat="47.45604" lon="-0.60346">
        <ele>21.77</ele>
        <time>2016-09-04T07:05:50Z</time>
      </trkpt>
      <trkpt lat="47.45603" lon="-0.60331">
        <ele>21.77</ele>
        <time>2016-09-04T07:05:52Z</time>
      </trkpt>
      <trkpt lat="47.45602" lon="-0.60322">
        <ele>21.77</ele>
        <time>2016-09-04T07:05:53Z</time>
      </trkpt>
      <trkpt lat="47.45596" lon="-0.60298">
        <ele>21.29</ele>
        <time>2016-09-04T07:05:56Z</time>
      </trkpt>
      <trkpt lat="47.45593" lon="-0.6029">
        <ele>21.77</ele>
        <time>2016-09-04T07:05:57Z</time>
      </trkpt>
      <trkpt lat="47.4559" lon="-0.60283">
        <ele>21.77</ele>
        <time>2016-09-04T07:05:58Z</time>
      </trkpt>
      <trkpt lat="47.45586" lon="-0.60275">
        <ele>21.29</ele>
        <time>2016-09-04T07:05:59Z</time>
      </trkpt>
      <trkpt lat="47.45582" lon="-0.60268">
        <ele>21.29</ele>
        <time>2016-09-04T07:06:00Z</time>
      </trkpt>
      <trkpt lat="47.45569" lon="-0.60246">
        <ele>20.81</ele>
        <time>2016-09-04T07:06:03Z</time>
      </trkpt>
      <trkpt lat="47.45565" lon="-0.6024">
        <ele>20.81</ele>
        <time>2016-09-04T07:06:04Z</time>
      </trkpt>
      <trkpt lat="47.45541" lon="-0.602">
        <ele>18.88</ele>
        <time>2016-09-04T07:06:10Z</time>
      </trkpt>
      <trkpt lat="47.45539" lon="-0.60192">
        <ele>18.4</ele>
        <time>2016-09-04T07:06:11Z</time>
      </trkpt>
      <trkpt lat="47.45537" lon="-0.60183">
        <ele>18.4</ele>
        <time>2016-09-04T07:06:12Z</time>
      </trkpt>
      <trkpt lat="47.45533" lon="-0.60155">
        <ele>17.92</ele>
        <time>2016-09-04T07:06:15Z</time>
      </trkpt>
      <trkpt lat="47.45523" lon="-0.60121">
        <ele>16.96</ele>
        <time>2016-09-04T07:06:19Z</time>
      </trkpt>
      <trkpt lat="47.4552" lon="-0.60114">
        <ele>16.96</ele>
        <time>2016-09-04T07:06:20Z</time>
      </trkpt>
      <trkpt lat="47.45515" lon="-0.60108">
        <ele>16.96</ele>
        <time>2016-09-04T07:06:21Z</time>
      </trkpt>
      <trkpt lat="47.4551" lon="-0.60105">
        <ele>16.96</ele>
        <time>2016-09-04T07:06:22Z</time>
      </trkpt>
      <trkpt lat="47.45504" lon="-0.60102">
        <ele>16.96</ele>
        <time>2016-09-04T07:06:23Z</time>
      </trkpt>
      <trkpt lat="47.45493" lon="-0.60096">
        <ele>16.48</ele>
        <time>2016-09-04T07:06:25Z</time>
      </trkpt>
      <trkpt lat="47.45489" lon="-0.60092">
        <ele>16.48</ele>
        <time>2016-09-04T07:06:26Z</time>
      </trkpt>
      <trkpt lat="47.45485" lon="-0.60086">
        <ele>15.52</ele>
        <time>2016-09-04T07:06:27Z</time>
      </trkpt>
      <trkpt lat="47.45482" lon="-0.60079">
        <ele>15.04</ele>
        <time>2016-09-04T07:06:28Z</time>
      </trkpt>
      <trkpt lat="47.4548" lon="-0.60072">
        <ele>15.04</ele>
        <time>2016-09-04T07:06:29Z</time>
      </trkpt>
      <trkpt lat="47.45478" lon="-0.60065">
        <ele>15.04</ele>
        <time>2016-09-04T07:06:30Z</time>
      </trkpt>
      <trkpt lat="47.45476" lon="-0.60061">
        <ele>14.56</ele>
        <time>2016-09-04T07:06:31Z</time>
      </trkpt>
      <trkpt lat="47.45466" lon="-0.60038">
        <ele>14.56</ele>
        <time>2016-09-04T07:06:41Z</time>
      </trkpt>
      <trkpt lat="47.45457" lon="-0.60018">
        <ele>14.56</ele>
        <time>2016-09-04T07:06:51Z</time>
      </trkpt>
      <trkpt lat="47.45472" lon="-0.60031">
        <ele>16</ele>
        <time>2016-09-04T07:07:02Z</time>
      </trkpt>
      <trkpt lat="47.45481" lon="-0.60036">
        <ele>19.84</ele>
        <time>2016-09-04T07:07:08Z</time>
      </trkpt>
      <trkpt lat="47.45482" lon="-0.60036">
        <ele>19.84</ele>
        <time>2016-09-04T07:07:09Z</time>
      </trkpt>
      <trkpt lat="47.45491" lon="-0.60037">
        <ele>21.29</ele>
        <time>2016-09-04T07:07:14Z</time>
      </trkpt>
      <trkpt lat="47.45494" lon="-0.60038">
        <ele>22.25</ele>
        <time>2016-09-04T07:07:28Z</time>
      </trkpt>
      <trkpt lat="47.45496" lon="-0.6004">
        <ele>22.73</ele>
        <time>2016-09-04T07:07:40Z</time>
      </trkpt>
      <trkpt lat="47.45501" lon="-0.60043">
        <ele>24.17</ele>
        <time>2016-09-04T07:07:45Z</time>
      </trkpt>
      <trkpt lat="47.45509" lon="-0.60044">
        <ele>25.13</ele>
        <time>2016-09-04T07:07:57Z</time>
      </trkpt>
      <trkpt lat="47.45515" lon="-0.60043">
        <ele>28.02</ele>
        <time>2016-09-04T07:08:08Z</time>
      </trkpt>
      <trkpt lat="47.45519" lon="-0.60042">
        <ele>29.46</ele>
        <time>2016-09-04T07:08:23Z</time>
      </trkpt>
      <trkpt lat="47.45521" lon="-0.60045">
        <ele>29.94</ele>
        <time>2016-09-04T07:08:31Z</time>
      </trkpt>
      <trkpt lat="47.45534" lon="-0.60057">
        <ele>32.82</ele>
        <time>2016-09-04T07:08:41Z</time>
      </trkpt>
      <trkpt lat="47.45536" lon="-0.60063">
        <ele>34.26</ele>
        <time>2016-09-04T07:08:44Z</time>
      </trkpt>
      <trkpt lat="47.45537" lon="-0.60065">
        <ele>34.26</ele>
        <time>2016-09-04T07:08:45Z</time>
      </trkpt>
      <trkpt lat="47.4554" lon="-0.60072">
        <ele>36.67</ele>
        <time>2016-09-04T07:08:49Z</time>
      </trkpt>
      <trkpt lat="47.45543" lon="-0.60075">
        <ele>37.15</ele>
        <time>2016-09-04T07:08:52Z</time>
      </trkpt>
      <trkpt lat="47.45546" lon="-0.60084">
        <ele>39.07</ele>
        <time>2016-09-04T07:08:57Z</time>
      </trkpt>
      <trkpt lat="47.4556" lon="-0.60106">
        <ele>41.47</ele>
        <time>2016-09-04T07:09:10Z</time>
      </trkpt>
      <trkpt lat="47.45574" lon="-0.60133">
        <ele>40.51</ele>
        <time>2016-09-04T07:09:19Z</time>
      </trkpt>
      <trkpt lat="47.45577" lon="-0.60143">
        <ele>40.03</ele>
        <time>2016-09-04T07:09:30Z</time>
      </trkpt>
      <trkpt lat="47.45577" lon="-0.60146">
        <ele>40.51</ele>
        <time>2016-09-04T07:09:36Z</time>
      </trkpt>
      <trkpt lat="47.45577" lon="-0.60148">
        <ele>39.55</ele>
        <time>2016-09-04T07:09:44Z</time>
      </trkpt>
      <trkpt lat="47.45579" lon="-0.60138">
        <ele>40.51</ele>
        <time>2016-09-04T07:09:50Z</time>
      </trkpt>
      <trkpt lat="47.45582" lon="-0.60138">
        <ele>41.47</ele>
        <time>2016-09-04T07:09:57Z</time>
      </trkpt>
      <trkpt lat="47.45588" lon="-0.60144">
        <ele>40.99</ele>
        <time>2016-09-04T07:10:02Z</time>
      </trkpt>
      <trkpt lat="47.45614" lon="-0.60177">
        <ele>43.88</ele>
        <time>2016-09-04T07:10:21Z</time>
      </trkpt>
      <trkpt lat="47.45614" lon="-0.60185">
        <ele>43.88</ele>
        <time>2016-09-04T07:10:24Z</time>
      </trkpt>
      <trkpt lat="47.45634" lon="-0.60212">
        <ele>44.84</ele>
        <time>2016-09-04T07:10:36Z</time>
      </trkpt>
      <trkpt lat="47.45641" lon="-0.60218">
        <ele>44.84</ele>
        <time>2016-09-04T07:10:40Z</time>
      </trkpt>
      <trkpt lat="47.45647" lon="-0.60215">
        <ele>46.28</ele>
        <time>2016-09-04T07:10:43Z</time>
      </trkpt>
      <trkpt lat="47.45658" lon="-0.60217">
        <ele>47.24</ele>
        <time>2016-09-04T07:10:49Z</time>
      </trkpt>
      <trkpt lat="47.45671" lon="-0.60243">
        <ele>50.13</ele>
        <time>2016-09-04T07:11:02Z</time>
      </trkpt>
      <trkpt lat="47.45684" lon="-0.60264">
        <ele>53.01</ele>
        <time>2016-09-04T07:11:14Z</time>
      </trkpt>
      <trkpt lat="47.45687" lon="-0.60281">
        <ele>53.49</ele>
        <time>2016-09-04T07:11:22Z</time>
      </trkpt>
      <trkpt lat="47.45688" lon="-0.60293">
        <ele>53.97</ele>
        <time>2016-09-04T07:11:27Z</time>
      </trkpt>
      <trkpt lat="47.45692" lon="-0.60304">
        <ele>55.41</ele>
        <time>2016-09-04T07:11:32Z</time>
      </trkpt>
      <trkpt lat="47.45698" lon="-0.6032">
        <ele>56.37</ele>
        <time>2016-09-04T07:11:39Z</time>
      </trkpt>
      <trkpt lat="47.457" lon="-0.60326">
        <ele>56.86</ele>
        <time>2016-09-04T07:11:42Z</time>
      </trkpt>
      <trkpt lat="47.45711" lon="-0.6035">
        <ele>56.86</ele>
        <time>2016-09-04T07:11:51Z</time>
      </trkpt>
      <trkpt lat="47.45712" lon="-0.60363">
        <ele>57.82</ele>
        <time>2016-09-04T07:11:55Z</time>
      </trkpt>
      <trkpt lat="47.45713" lon="-0.60368">
        <ele>57.82</ele>
        <time>2016-09-04T07:11:57Z</time>
      </trkpt>
      <trkpt lat="47.45712" lon="-0.60384">
        <ele>58.3</ele>
        <time>2016-09-04T07:12:02Z</time>
      </trkpt>
      <trkpt lat="47.4571" lon="-0.60394">
        <ele>57.82</ele>
        <time>2016-09-04T07:12:17Z</time>
      </trkpt>
      <trkpt lat="47.45707" lon="-0.60393">
        <ele>57.82</ele>
        <time>2016-09-04T07:12:46Z</time>
      </trkpt>
      <trkpt lat="47.45711" lon="-0.60393">
        <ele>57.82</ele>
        <time>2016-09-04T07:13:13Z</time>
      </trkpt>
      <trkpt lat="47.45711" lon="-0.60392">
        <ele>57.82</ele>
        <time>2016-09-04T07:13:14Z</time>
      </trkpt>
      <trkpt lat="47.45712" lon="-0.60389">
        <ele>57.34</ele>
        <time>2016-09-04T07:13:16Z</time>
      </trkpt>
      <trkpt lat="47.45711" lon="-0.60374">
        <ele>57.34</ele>
        <time>2016-09-04T07:13:23Z</time>
      </trkpt>
      <trkpt lat="47.45709" lon="-0.60354">
        <ele>57.82</ele>
        <time>2016-09-04T07:13:29Z</time>
      </trkpt>
      <trkpt lat="47.45697" lon="-0.60337">
        <ele>56.86</ele>
        <time>2016-09-04T07:13:35Z</time>
      </trkpt>
      <trkpt lat="47.45684" lon="-0.60312">
        <ele>55.89</ele>
        <time>2016-09-04T07:13:44Z</time>
      </trkpt>
      <trkpt lat="47.45693" lon="-0.60313">
        <ele>55.89</ele>
        <time>2016-09-04T07:13:53Z</time>
      </trkpt>
      <trkpt lat="47.45695" lon="-0.60316">
        <ele>56.37</ele>
        <time>2016-09-04T07:13:54Z</time>
      </trkpt>
      <trkpt lat="47.45699" lon="-0.60324">
        <ele>56.86</ele>
        <time>2016-09-04T07:13:57Z</time>
      </trkpt>
      <trkpt lat="47.45698" lon="-0.6033">
        <ele>57.34</ele>
        <time>2016-09-04T07:14:00Z</time>
      </trkpt>
      <trkpt lat="47.45692" lon="-0.60317">
        <ele>56.37</ele>
        <time>2016-09-04T07:14:05Z</time>
      </trkpt>
      <trkpt lat="47.4568" lon="-0.60308">
        <ele>55.41</ele>
        <time>2016-09-04T07:14:13Z</time>
      </trkpt>
      <trkpt lat="47.45677" lon="-0.60304">
        <ele>53.01</ele>
        <time>2016-09-04T07:14:16Z</time>
      </trkpt>
      <trkpt lat="47.45669" lon="-0.6032">
        <ele>50.13</ele>
        <time>2016-09-04T07:14:20Z</time>
      </trkpt>
      <trkpt lat="47.45671" lon="-0.60347">
        <ele>48.68</ele>
        <time>2016-09-04T07:14:26Z</time>
      </trkpt>
      <trkpt lat="47.45689" lon="-0.60372">
        <ele>50.13</ele>
        <time>2016-09-04T07:14:37Z</time>
      </trkpt>
      <trkpt lat="47.45691" lon="-0.60383">
        <ele>50.13</ele>
        <time>2016-09-04T07:14:40Z</time>
      </trkpt>
      <trkpt lat="47.45682" lon="-0.60422">
        <ele>52.05</ele>
        <time>2016-09-04T07:14:53Z</time>
      </trkpt>
      <trkpt lat="47.4569" lon="-0.60428">
        <ele>53.49</ele>
        <time>2016-09-04T07:14:58Z</time>
      </trkpt>
      <trkpt lat="47.45701" lon="-0.60432">
        <ele>55.89</ele>
        <time>2016-09-04T07:15:06Z</time>
      </trkpt>
      <trkpt lat="47.45705" lon="-0.60432">
        <ele>55.89</ele>
        <time>2016-09-04T07:15:08Z</time>
      </trkpt>
      <trkpt lat="47.45716" lon="-0.60422">
        <ele>57.82</ele>
        <time>2016-09-04T07:15:21Z</time>
      </trkpt>
      <trkpt lat="47.45719" lon="-0.60423">
        <ele>57.82</ele>
        <time>2016-09-04T07:15:47Z</time>
      </trkpt>
      <trkpt lat="47.45719" lon="-0.60423">
        <ele>57.82</ele>
        <time>2016-09-04T07:15:54Z</time>
      </trkpt>
      <trkpt lat="47.45716" lon="-0.6038">
        <ele>58.78</ele>
        <time>2016-09-04T07:16:07Z</time>
      </trkpt>
      <trkpt lat="47.4571" lon="-0.60355">
        <ele>58.78</ele>
        <time>2016-09-04T07:16:12Z</time>
      </trkpt>
      <trkpt lat="47.45699" lon="-0.60338">
        <ele>57.82</ele>
        <time>2016-09-04T07:16:16Z</time>
      </trkpt>
      <trkpt lat="47.45685" lon="-0.60314">
        <ele>56.86</ele>
        <time>2016-09-04T07:16:21Z</time>
      </trkpt>
      <trkpt lat="47.45687" lon="-0.60299">
        <ele>55.89</ele>
        <time>2016-09-04T07:16:23Z</time>
      </trkpt>
      <trkpt lat="47.45683" lon="-0.60273">
        <ele>53.97</ele>
        <time>2016-09-04T07:16:27Z</time>
      </trkpt>
      <trkpt lat="47.45678" lon="-0.60264">
        <ele>53.01</ele>
        <time>2016-09-04T07:16:29Z</time>
      </trkpt>
      <trkpt lat="47.45672" lon="-0.60254">
        <ele>52.05</ele>
        <time>2016-09-04T07:16:31Z</time>
      </trkpt>
      <trkpt lat="47.45669" lon="-0.60249">
        <ele>51.57</ele>
        <time>2016-09-04T07:16:32Z</time>
      </trkpt>
      <trkpt lat="47.4565" lon="-0.60234">
        <ele>48.68</ele>
        <time>2016-09-04T07:16:37Z</time>
      </trkpt>
      <trkpt lat="47.45637" lon="-0.60227">
        <ele>46.28</ele>
        <time>2016-09-04T07:16:42Z</time>
      </trkpt>
      <trkpt lat="47.45637" lon="-0.60225">
        <ele>46.28</ele>
        <time>2016-09-04T07:16:43Z</time>
      </trkpt>
      <trkpt lat="47.45637" lon="-0.60217">
        <ele>46.28</ele>
        <time>2016-09-04T07:16:45Z</time>
      </trkpt>
      <trkpt lat="47.45617" lon="-0.60188">
        <ele>44.84</ele>
        <time>2016-09-04T07:16:53Z</time>
      </trkpt>
      <trkpt lat="47.4561" lon="-0.60188">
        <ele>44.36</ele>
        <time>2016-09-04T07:17:02Z</time>
      </trkpt>
      <trkpt lat="47.45609" lon="-0.60187">
        <ele>44.84</ele>
        <time>2016-09-04T07:17:22Z</time>
      </trkpt>
      <trkpt lat="47.45608" lon="-0.60187">
        <ele>44.36</ele>
        <time>2016-09-04T07:17:48Z</time>
      </trkpt>
      <trkpt lat="47.45594" lon="-0.60177">
        <ele>42.92</ele>
        <time>2016-09-04T07:17:57Z</time>
      </trkpt>
      <trkpt lat="47.45586" lon="-0.60162">
        <ele>41.47</ele>
        <time>2016-09-04T07:18:06Z</time>
      </trkpt>
      <trkpt lat="47.45586" lon="-0.60162">
        <ele>41.95</ele>
        <time>2016-09-04T07:18:07Z</time>
      </trkpt>
      <trkpt lat="47.45579" lon="-0.60156">
        <ele>40.03</ele>
        <time>2016-09-04T07:18:12Z</time>
      </trkpt>
      <trkpt lat="47.45578" lon="-0.60167">
        <ele>38.11</ele>
        <time>2016-09-04T07:18:17Z</time>
      </trkpt>
      <trkpt lat="47.45568" lon="-0.60166">
        <ele>35.71</ele>
        <time>2016-09-04T07:18:23Z</time>
      </trkpt>
      <trkpt lat="47.45561" lon="-0.6017">
        <ele>33.3</ele>
        <time>2016-09-04T07:18:26Z</time>
      </trkpt>
      <trkpt lat="47.45553" lon="-0.60176">
        <ele>30.42</ele>
        <time>2016-09-04T07:18:32Z</time>
      </trkpt>
      <trkpt lat="47.45552" lon="-0.60175">
        <ele>29.46</ele>
        <time>2016-09-04T07:18:46Z</time>
      </trkpt>
      <trkpt lat="47.45548" lon="-0.60178">
        <ele>28.02</ele>
        <time>2016-09-04T07:18:54Z</time>
      </trkpt>
      <trkpt lat="47.45544" lon="-0.60183">
        <ele>26.57</ele>
        <time>2016-09-04T07:18:58Z</time>
      </trkpt>
      <trkpt lat="47.45541" lon="-0.60194">
        <ele>21.29</ele>
        <time>2016-09-04T07:19:04Z</time>
      </trkpt>
      <trkpt lat="47.45541" lon="-0.60196">
        <ele>20.81</ele>
        <time>2016-09-04T07:19:05Z</time>
      </trkpt>
      <trkpt lat="47.45542" lon="-0.60202">
        <ele>20.81</ele>
        <time>2016-09-04T07:19:08Z</time>
      </trkpt>
      <trkpt lat="47.45547" lon="-0.60211">
        <ele>21.77</ele>
        <time>2016-09-04T07:19:15Z</time>
      </trkpt>
      <trkpt lat="47.45545" lon="-0.60207">
        <ele>21.29</ele>
        <time>2016-09-04T07:19:17Z</time>
      </trkpt>
      <trkpt lat="47.45544" lon="-0.60205">
        <ele>21.29</ele>
        <time>2016-09-04T07:19:18Z</time>
      </trkpt>
      <trkpt lat="47.45542" lon="-0.60202">
        <ele>21.29</ele>
        <time>2016-09-04T07:19:19Z</time>
      </trkpt>
      <trkpt lat="47.45541" lon="-0.60199">
        <ele>21.77</ele>
        <time>2016-09-04T07:19:20Z</time>
      </trkpt>
      <trkpt lat="47.4554" lon="-0.60195">
        <ele>21.29</ele>
        <time>2016-09-04T07:19:21Z</time>
      </trkpt>
      <trkpt lat="47.45539" lon="-0.60191">
        <ele>21.29</ele>
        <time>2016-09-04T07:19:22Z</time>
      </trkpt>
      <trkpt lat="47.45525" lon="-0.60118">
        <ele>19.84</ele>
        <time>2016-09-04T07:19:33Z</time>
      </trkpt>
      <trkpt lat="47.45523" lon="-0.60112">
        <ele>19.36</ele>
        <time>2016-09-04T07:19:34Z</time>
      </trkpt>
      <trkpt lat="47.45519" lon="-0.60107">
        <ele>19.36</ele>
        <time>2016-09-04T07:19:35Z</time>
      </trkpt>
      <trkpt lat="47.45516" lon="-0.60103">
        <ele>19.36</ele>
        <time>2016-09-04T07:19:36Z</time>
      </trkpt>
      <trkpt lat="47.45512" lon="-0.60101">
        <ele>19.84</ele>
        <time>2016-09-04T07:19:37Z</time>
      </trkpt>
      <trkpt lat="47.45507" lon="-0.60099">
        <ele>19.36</ele>
        <time>2016-09-04T07:19:38Z</time>
      </trkpt>
      <trkpt lat="47.45501" lon="-0.60096">
        <ele>18.88</ele>
        <time>2016-09-04T07:19:39Z</time>
      </trkpt>
      <trkpt lat="47.45496" lon="-0.60093">
        <ele>18.88</ele>
        <time>2016-09-04T07:19:40Z</time>
      </trkpt>
      <trkpt lat="47.45491" lon="-0.60087">
        <ele>19.36</ele>
        <time>2016-09-04T07:19:41Z</time>
      </trkpt>
      <trkpt lat="47.45487" lon="-0.60081">
        <ele>18.4</ele>
        <time>2016-09-04T07:19:42Z</time>
      </trkpt>
      <trkpt lat="47.45484" lon="-0.60073">
        <ele>17.92</ele>
        <time>2016-09-04T07:19:43Z</time>
      </trkpt>
      <trkpt lat="47.45481" lon="-0.60065">
        <ele>17.92</ele>
        <time>2016-09-04T07:19:44Z</time>
      </trkpt>
      <trkpt lat="47.45458" lon="-0.60013">
        <ele>16.96</ele>
        <time>2016-09-04T07:19:52Z</time>
      </trkpt>
      <trkpt lat="47.45454" lon="-0.60007">
        <ele>16.48</ele>
        <time>2016-09-04T07:19:53Z</time>
      </trkpt>
      <trkpt lat="47.45414" lon="-0.59931">
        <ele>15.52</ele>
        <time>2016-09-04T07:20:05Z</time>
      </trkpt>
      <trkpt lat="47.45413" lon="-0.59922">
        <ele>15.52</ele>
        <time>2016-09-04T07:20:06Z</time>
      </trkpt>
      <trkpt lat="47.45413" lon="-0.59914">
        <ele>15.52</ele>
        <time>2016-09-04T07:20:07Z</time>
      </trkpt>
      <trkpt lat="47.45413" lon="-0.59905">
        <ele>15.04</ele>
        <time>2016-09-04T07:20:08Z</time>
      </trkpt>
      <trkpt lat="47.45414" lon="-0.59897">
        <ele>15.52</ele>
        <time>2016-09-04T07:20:09Z</time>
      </trkpt>
      <trkpt lat="47.45416" lon="-0.5989">
        <ele>15.04</ele>
        <time>2016-09-04T07:20:10Z</time>
      </trkpt>
      <trkpt lat="47.45419" lon="-0.59884">
        <ele>14.08</ele>
        <time>2016-09-04T07:20:11Z</time>
      </trkpt>
      <trkpt lat="47.45423" lon="-0.59881">
        <ele>14.56</ele>
        <time>2016-09-04T07:20:12Z</time>
      </trkpt>
      <trkpt lat="47.45427" lon="-0.59878">
        <ele>14.56</ele>
        <time>2016-09-04T07:20:13Z</time>
      </trkpt>
      <trkpt lat="47.45432" lon="-0.59876">
        <ele>14.56</ele>
        <time>2016-09-04T07:20:14Z</time>
      </trkpt>
      <trkpt lat="47.45436" lon="-0.59874">
        <ele>14.56</ele>
        <time>2016-09-04T07:20:15Z</time>
      </trkpt>
      <trkpt lat="47.45467" lon="-0.59845">
        <ele>14.56</ele>
        <time>2016-09-04T07:20:27Z</time>
      </trkpt>
      <trkpt lat="47.4547" lon="-0.59839">
        <ele>15.04</ele>
        <time>2016-09-04T07:20:41Z</time>
      </trkpt>
      <trkpt lat="47.45468" lon="-0.59837">
        <ele>15.04</ele>
        <time>2016-09-04T07:21:06Z</time>
      </trkpt>
      <trkpt lat="47.45467" lon="-0.59839">
        <ele>15.04</ele>
        <time>2016-09-04T07:21:42Z</time>
      </trkpt>
      <trkpt lat="47.45473" lon="-0.59842">
        <ele>15.52</ele>
        <time>2016-09-04T07:22:16Z</time>
      </trkpt>
      <trkpt lat="47.45475" lon="-0.59838">
        <ele>15.52</ele>
        <time>2016-09-04T07:22:19Z</time>
      </trkpt>
      <trkpt lat="47.45475" lon="-0.59835">
        <ele>16</ele>
        <time>2016-09-04T07:22:20Z</time>
      </trkpt>
      <trkpt lat="47.45475" lon="-0.59833">
        <ele>16</ele>
        <time>2016-09-04T07:22:21Z</time>
      </trkpt>
      <trkpt lat="47.45475" lon="-0.5983">
        <ele>16</ele>
        <time>2016-09-04T07:22:22Z</time>
      </trkpt>
      <trkpt lat="47.45475" lon="-0.59827">
        <ele>15.04</ele>
        <time>2016-09-04T07:22:23Z</time>
      </trkpt>
      <trkpt lat="47.45475" lon="-0.59825">
        <ele>16</ele>
        <time>2016-09-04T07:22:24Z</time>
      </trkpt>
      <trkpt lat="47.45472" lon="-0.59827">
        <ele>16.48</ele>
        <time>2016-09-04T07:22:33Z</time>
      </trkpt>
      <trkpt lat="47.45471" lon="-0.59833">
        <ele>16</ele>
        <time>2016-09-04T07:22:52Z</time>
      </trkpt>
      <trkpt lat="47.45471" lon="-0.59835">
        <ele>16</ele>
        <time>2016-09-04T07:22:53Z</time>
      </trkpt>
      <trkpt lat="47.45474" lon="-0.59856">
        <ele>17.44</ele>
        <time>2016-09-04T07:23:01Z</time>
      </trkpt>
      <trkpt lat="47.45477" lon="-0.59861">
        <ele>20.32</ele>
        <time>2016-09-04T07:23:11Z</time>
      </trkpt>
      <trkpt lat="47.45475" lon="-0.59859">
        <ele>19.36</ele>
        <time>2016-09-04T07:23:14Z</time>
      </trkpt>
      <trkpt lat="47.45473" lon="-0.5985">
        <ele>17.44</ele>
        <time>2016-09-04T07:23:18Z</time>
      </trkpt>
      <trkpt lat="47.45474" lon="-0.5984">
        <ele>16.48</ele>
        <time>2016-09-04T07:23:34Z</time>
      </trkpt>
      <trkpt lat="47.45473" lon="-0.59838">
        <ele>16.96</ele>
        <time>2016-09-04T07:23:38Z</time>
      </trkpt>
      <trkpt lat="47.45471" lon="-0.59845">
        <ele>16.48</ele>
        <time>2016-09-04T07:23:56Z</time>
      </trkpt>
      <trkpt lat="47.45477" lon="-0.59861">
        <ele>19.84</ele>
        <time>2016-09-04T07:24:05Z</time>
      </trkpt>
      <trkpt lat="47.45478" lon="-0.59861">
        <ele>20.32</ele>
        <time>2016-09-04T07:24:06Z</time>
      </trkpt>
      <trkpt lat="47.45481" lon="-0.59859">
        <ele>19.84</ele>
        <time>2016-09-04T07:24:18Z</time>
      </trkpt>
      <trkpt lat="47.45478" lon="-0.59855">
        <ele>18.4</ele>
        <time>2016-09-04T07:24:22Z</time>
      </trkpt>
      <trkpt lat="47.45477" lon="-0.59853">
        <ele>17.44</ele>
        <time>2016-09-04T07:24:23Z</time>
      </trkpt>
      <trkpt lat="47.45472" lon="-0.59838">
        <ele>16.48</ele>
        <time>2016-09-04T07:24:36Z</time>
      </trkpt>
      <trkpt lat="47.45472" lon="-0.5984">
        <ele>16.96</ele>
        <time>2016-09-04T07:24:47Z</time>
      </trkpt>
      <trkpt lat="47.45476" lon="-0.59859">
        <ele>19.84</ele>
        <time>2016-09-04T07:24:55Z</time>
      </trkpt>
      <trkpt lat="47.45477" lon="-0.5986">
        <ele>19.36</ele>
        <time>2016-09-04T07:24:56Z</time>
      </trkpt>
      <trkpt lat="47.4548" lon="-0.59864">
        <ele>21.77</ele>
        <time>2016-09-04T07:25:01Z</time>
      </trkpt>
      <trkpt lat="47.4548" lon="-0.59862">
        <ele>21.77</ele>
        <time>2016-09-04T07:25:03Z</time>
      </trkpt>
      <trkpt lat="47.45481" lon="-0.59858">
        <ele>20.81</ele>
        <time>2016-09-04T07:25:20Z</time>
      </trkpt>
      <trkpt lat="47.45477" lon="-0.59859">
        <ele>20.81</ele>
        <time>2016-09-04T07:25:25Z</time>
      </trkpt>
      <trkpt lat="47.45475" lon="-0.59851">
        <ele>19.84</ele>
        <time>2016-09-04T07:25:27Z</time>
      </trkpt>
      <trkpt lat="47.45474" lon="-0.59845">
        <ele>18.4</ele>
        <time>2016-09-04T07:25:28Z</time>
      </trkpt>
      <trkpt lat="47.45472" lon="-0.5984">
        <ele>17.92</ele>
        <time>2016-09-04T07:25:29Z</time>
      </trkpt>
      <trkpt lat="47.45471" lon="-0.59836">
        <ele>16.96</ele>
        <time>2016-09-04T07:25:30Z</time>
      </trkpt>
      <trkpt lat="47.45472" lon="-0.59834">
        <ele>16.96</ele>
        <time>2016-09-04T07:25:31Z</time>
      </trkpt>
      <trkpt lat="47.45473" lon="-0.59835">
        <ele>16.48</ele>
        <time>2016-09-04T07:25:32Z</time>
      </trkpt>
      <trkpt lat="47.45475" lon="-0.59851">
        <ele>17.44</ele>
        <time>2016-09-04T07:25:42Z</time>
      </trkpt>
      <trkpt lat="47.45478" lon="-0.59861">
        <ele>19.84</ele>
        <time>2016-09-04T07:25:47Z</time>
      </trkpt>
      <trkpt lat="47.45487" lon="-0.59868">
        <ele>22.73</ele>
        <time>2016-09-04T07:26:02Z</time>
      </trkpt>
      <trkpt lat="47.45488" lon="-0.5987">
        <ele>24.17</ele>
        <time>2016-09-04T07:26:18Z</time>
      </trkpt>
      <trkpt lat="47.45491" lon="-0.59868">
        <ele>24.17</ele>
        <time>2016-09-04T07:26:36Z</time>
      </trkpt>
      <trkpt lat="47.45492" lon="-0.59869">
        <ele>24.17</ele>
        <time>2016-09-04T07:26:48Z</time>
      </trkpt>
      <trkpt lat="47.45495" lon="-0.59868">
        <ele>24.65</ele>
        <time>2016-09-04T07:26:51Z</time>
      </trkpt>
      <trkpt lat="47.45496" lon="-0.59867">
        <ele>24.65</ele>
        <time>2016-09-04T07:27:02Z</time>
      </trkpt>
      <trkpt lat="47.45496" lon="-0.59869">
        <ele>25.61</ele>
        <time>2016-09-04T07:27:14Z</time>
      </trkpt>
      <trkpt lat="47.45499" lon="-0.59869">
        <ele>25.61</ele>
        <time>2016-09-04T07:27:17Z</time>
      </trkpt>
      <trkpt lat="47.455" lon="-0.59869">
        <ele>26.09</ele>
        <time>2016-09-04T07:27:18Z</time>
      </trkpt>
      <trkpt lat="47.45505" lon="-0.59871">
        <ele>27.05</ele>
        <time>2016-09-04T07:27:22Z</time>
      </trkpt>
      <trkpt lat="47.4551" lon="-0.59875">
        <ele>28.5</ele>
        <time>2016-09-04T07:27:26Z</time>
      </trkpt>
      <trkpt lat="47.45521" lon="-0.59884">
        <ele>30.42</ele>
        <time>2016-09-04T07:27:34Z</time>
      </trkpt>
      <trkpt lat="47.45524" lon="-0.59888">
        <ele>31.86</ele>
        <time>2016-09-04T07:27:36Z</time>
      </trkpt>
      <trkpt lat="47.45531" lon="-0.59899">
        <ele>33.3</ele>
        <time>2016-09-04T07:27:43Z</time>
      </trkpt>
      <trkpt lat="47.45547" lon="-0.59922">
        <ele>35.23</ele>
        <time>2016-09-04T07:27:59Z</time>
      </trkpt>
      <trkpt lat="47.45547" lon="-0.59952">
        <ele>38.11</ele>
        <time>2016-09-04T07:28:15Z</time>
      </trkpt>
      <trkpt lat="47.45551" lon="-0.59956">
        <ele>38.59</ele>
        <time>2016-09-04T07:28:36Z</time>
      </trkpt>
      <trkpt lat="47.45548" lon="-0.59984">
        <ele>40.03</ele>
        <time>2016-09-04T07:28:49Z</time>
      </trkpt>
      <trkpt lat="47.45555" lon="-0.60046">
        <ele>41.47</ele>
        <time>2016-09-04T07:29:06Z</time>
      </trkpt>
      <trkpt lat="47.45559" lon="-0.60083">
        <ele>44.36</ele>
        <time>2016-09-04T07:29:17Z</time>
      </trkpt>
      <trkpt lat="47.45576" lon="-0.60121">
        <ele>45.8</ele>
        <time>2016-09-04T07:29:31Z</time>
      </trkpt>
      <trkpt lat="47.45579" lon="-0.60129">
        <ele>45.8</ele>
        <time>2016-09-04T07:29:34Z</time>
      </trkpt>
      <trkpt lat="47.45573" lon="-0.60132">
        <ele>45.32</ele>
        <time>2016-09-04T07:29:39Z</time>
      </trkpt>
      <trkpt lat="47.45562" lon="-0.60112">
        <ele>45.8</ele>
        <time>2016-09-04T07:29:46Z</time>
      </trkpt>
      <trkpt lat="47.45559" lon="-0.60106">
        <ele>45.8</ele>
        <time>2016-09-04T07:29:49Z</time>
      </trkpt>
      <trkpt lat="47.45557" lon="-0.601">
        <ele>45.8</ele>
        <time>2016-09-04T07:30:05Z</time>
      </trkpt>
      <trkpt lat="47.45556" lon="-0.60099">
        <ele>45.32</ele>
        <time>2016-09-04T07:30:38Z</time>
      </trkpt>
      <trkpt lat="47.45555" lon="-0.60098">
        <ele>45.8</ele>
        <time>2016-09-04T07:31:00Z</time>
      </trkpt>
      <trkpt lat="47.45553" lon="-0.60097">
        <ele>45.8</ele>
        <time>2016-09-04T07:31:02Z</time>
      </trkpt>
      <trkpt lat="47.45542" lon="-0.60079">
        <ele>42.44</ele>
        <time>2016-09-04T07:31:11Z</time>
      </trkpt>
      <trkpt lat="47.4554" lon="-0.60076">
        <ele>40.99</ele>
        <time>2016-09-04T07:31:16Z</time>
      </trkpt>
      <trkpt lat="47.45532" lon="-0.60072">
        <ele>38.11</ele>
        <time>2016-09-04T07:31:23Z</time>
      </trkpt>
      <trkpt lat="47.45521" lon="-0.60064">
        <ele>34.74</ele>
        <time>2016-09-04T07:31:29Z</time>
      </trkpt>
      <trkpt lat="47.45519" lon="-0.60063">
        <ele>34.26</ele>
        <time>2016-09-04T07:31:30Z</time>
      </trkpt>
      <trkpt lat="47.45508" lon="-0.60065">
        <ele>30.42</ele>
        <time>2016-09-04T07:31:41Z</time>
      </trkpt>
      <trkpt lat="47.45501" lon="-0.60071">
        <ele>28.98</ele>
        <time>2016-09-04T07:31:51Z</time>
      </trkpt>
      <trkpt lat="47.45495" lon="-0.60073">
        <ele>27.05</ele>
        <time>2016-09-04T07:32:01Z</time>
      </trkpt>
      <trkpt lat="47.45494" lon="-0.60072">
        <ele>25.13</ele>
        <time>2016-09-04T07:32:12Z</time>
      </trkpt>
      <trkpt lat="47.45492" lon="-0.60071">
        <ele>24.65</ele>
        <time>2016-09-04T07:32:19Z</time>
      </trkpt>
      <trkpt lat="47.45485" lon="-0.60067">
        <ele>23.69</ele>
        <time>2016-09-04T07:32:33Z</time>
      </trkpt>
      <trkpt lat="47.45487" lon="-0.60067">
        <ele>24.17</ele>
        <time>2016-09-04T07:32:52Z</time>
      </trkpt>
      <trkpt lat="47.45487" lon="-0.60068">
        <ele>24.17</ele>
        <time>2016-09-04T07:32:53Z</time>
      </trkpt>
      <trkpt lat="47.45489" lon="-0.60071">
        <ele>25.61</ele>
        <time>2016-09-04T07:33:05Z</time>
      </trkpt>
      <trkpt lat="47.4549" lon="-0.60071">
        <ele>26.09</ele>
        <time>2016-09-04T07:33:20Z</time>
      </trkpt>
      <trkpt lat="47.45487" lon="-0.60068">
        <ele>24.17</ele>
        <time>2016-09-04T07:33:31Z</time>
      </trkpt>
      <trkpt lat="47.45488" lon="-0.60071">
        <ele>24.17</ele>
        <time>2016-09-04T07:33:33Z</time>
      </trkpt>
      <trkpt lat="47.4549" lon="-0.60073">
        <ele>25.61</ele>
        <time>2016-09-04T07:33:41Z</time>
      </trkpt>
      <trkpt lat="47.45483" lon="-0.60069">
        <ele>23.21</ele>
        <time>2016-09-04T07:33:50Z</time>
      </trkpt>
      <trkpt lat="47.45476" lon="-0.60075">
        <ele>21.29</ele>
        <time>2016-09-04T07:34:02Z</time>
      </trkpt>
      <trkpt lat="47.45477" lon="-0.60074">
        <ele>21.29</ele>
        <time>2016-09-04T07:34:23Z</time>
      </trkpt>
      <trkpt lat="47.45476" lon="-0.60074">
        <ele>21.77</ele>
        <time>2016-09-04T07:34:36Z</time>
      </trkpt>
      <trkpt lat="47.45459" lon="-0.6003">
        <ele>21.29</ele>
        <time>2016-09-04T07:34:51Z</time>
      </trkpt>
      <trkpt lat="47.45427" lon="-0.59985">
        <ele>20.81</ele>
        <time>2016-09-04T07:35:03Z</time>
      </trkpt>
      <trkpt lat="47.45407" lon="-0.59937">
        <ele>19.84</ele>
        <time>2016-09-04T07:35:12Z</time>
      </trkpt>
      <trkpt lat="47.45406" lon="-0.59931">
        <ele>19.84</ele>
        <time>2016-09-04T07:35:13Z</time>
      </trkpt>
      <trkpt lat="47.45405" lon="-0.59925">
        <ele>19.84</ele>
        <time>2016-09-04T07:35:14Z</time>
      </trkpt>
      <trkpt lat="47.45406" lon="-0.59919">
        <ele>20.32</ele>
        <time>2016-09-04T07:35:15Z</time>
      </trkpt>
      <trkpt lat="47.45407" lon="-0.59914">
        <ele>19.84</ele>
        <time>2016-09-04T07:35:16Z</time>
      </trkpt>
      <trkpt lat="47.45407" lon="-0.59909">
        <ele>19.84</ele>
        <time>2016-09-04T07:35:17Z</time>
      </trkpt>
      <trkpt lat="47.45409" lon="-0.59903">
        <ele>19.36</ele>
        <time>2016-09-04T07:35:19Z</time>
      </trkpt>
      <trkpt lat="47.4541" lon="-0.599">
        <ele>18.88</ele>
        <time>2016-09-04T07:35:20Z</time>
      </trkpt>
      <trkpt lat="47.45412" lon="-0.59898">
        <ele>19.36</ele>
        <time>2016-09-04T07:35:21Z</time>
      </trkpt>
      <trkpt lat="47.45413" lon="-0.59896">
        <ele>19.36</ele>
        <time>2016-09-04T07:35:22Z</time>
      </trkpt>
      <trkpt lat="47.45415" lon="-0.59893">
        <ele>18.88</ele>
        <time>2016-09-04T07:35:23Z</time>
      </trkpt>
      <trkpt lat="47.45417" lon="-0.59891">
        <ele>18.88</ele>
        <time>2016-09-04T07:35:24Z</time>
      </trkpt>
      <trkpt lat="47.45429" lon="-0.59882">
        <ele>18.88</ele>
        <time>2016-09-04T07:35:29Z</time>
      </trkpt>
      <trkpt lat="47.45431" lon="-0.59882">
        <ele>18.88</ele>
        <time>2016-09-04T07:35:30Z</time>
      </trkpt>
      <trkpt lat="47.45433" lon="-0.5988">
        <ele>19.36</ele>
        <time>2016-09-04T07:35:31Z</time>
      </trkpt>
      <trkpt lat="47.45464" lon="-0.5985">
        <ele>19.36</ele>
        <time>2016-09-04T07:35:45Z</time>
      </trkpt>
      <trkpt lat="47.45472" lon="-0.59836">
        <ele>19.36</ele>
        <time>2016-09-04T07:35:53Z</time>
      </trkpt>
      <trkpt lat="47.45473" lon="-0.59835">
        <ele>19.36</ele>
        <time>2016-09-04T07:35:54Z</time>
      </trkpt>
      <trkpt lat="47.45473" lon="-0.59837">
        <ele>19.36</ele>
        <time>2016-09-04T07:36:06Z</time>
      </trkpt>
      <trkpt lat="47.45474" lon="-0.59839">
        <ele>19.36</ele>
        <time>2016-09-04T07:36:11Z</time>
      </trkpt>
      <trkpt lat="47.45474" lon="-0.59842">
        <ele>19.84</ele>
        <time>2016-09-04T07:36:12Z</time>
      </trkpt>
      <trkpt lat="47.45474" lon="-0.59844">
        <ele>19.84</ele>
        <time>2016-09-04T07:36:13Z</time>
      </trkpt>
      <trkpt lat="47.45479" lon="-0.59859">
        <ele>22.73</ele>
        <time>2016-09-04T07:36:21Z</time>
      </trkpt>
      <trkpt lat="47.45481" lon="-0.59863">
        <ele>24.65</ele>
        <time>2016-09-04T07:36:25Z</time>
      </trkpt>
      <trkpt lat="47.45481" lon="-0.59864">
        <ele>24.65</ele>
        <time>2016-09-04T07:36:38Z</time>
      </trkpt>
      <trkpt lat="47.4548" lon="-0.59863">
        <ele>23.69</ele>
        <time>2016-09-04T07:36:39Z</time>
      </trkpt>
      <trkpt lat="47.45479" lon="-0.59863">
        <ele>23.21</ele>
        <time>2016-09-04T07:36:42Z</time>
      </trkpt>
      <trkpt lat="47.45478" lon="-0.59863">
        <ele>23.69</ele>
        <time>2016-09-04T07:36:43Z</time>
      </trkpt>
      <trkpt lat="47.45475" lon="-0.59851">
        <ele>21.29</ele>
        <time>2016-09-04T07:36:46Z</time>
      </trkpt>
      <trkpt lat="47.45473" lon="-0.59839">
        <ele>19.84</ele>
        <time>2016-09-04T07:36:48Z</time>
      </trkpt>
      <trkpt lat="47.45472" lon="-0.59835">
        <ele>19.36</ele>
        <time>2016-09-04T07:36:49Z</time>
      </trkpt>
      <trkpt lat="47.45474" lon="-0.59834">
        <ele>19.36</ele>
        <time>2016-09-04T07:36:52Z</time>
      </trkpt>
      <trkpt lat="47.45473" lon="-0.59845">
        <ele>19.84</ele>
        <time>2016-09-04T07:37:01Z</time>
      </trkpt>
      <trkpt lat="47.45477" lon="-0.59862">
        <ele>22.25</ele>
        <time>2016-09-04T07:37:09Z</time>
      </trkpt>
      <trkpt lat="47.45484" lon="-0.59867">
        <ele>25.61</ele>
        <time>2016-09-04T07:37:23Z</time>
      </trkpt>
      <trkpt lat="47.45488" lon="-0.59869">
        <ele>26.57</ele>
        <time>2016-09-04T07:37:38Z</time>
      </trkpt>
      <trkpt lat="47.45496" lon="-0.59868">
        <ele>28.02</ele>
        <time>2016-09-04T07:37:47Z</time>
      </trkpt>
      <trkpt lat="47.45501" lon="-0.5987">
        <ele>29.46</ele>
        <time>2016-09-04T07:37:52Z</time>
      </trkpt>
      <trkpt lat="47.45503" lon="-0.59873">
        <ele>29.94</ele>
        <time>2016-09-04T07:37:54Z</time>
      </trkpt>
      <trkpt lat="47.45517" lon="-0.59883">
        <ele>32.82</ele>
        <time>2016-09-04T07:38:06Z</time>
      </trkpt>
      <trkpt lat="47.45529" lon="-0.59897">
        <ele>35.71</ele>
        <time>2016-09-04T07:38:19Z</time>
      </trkpt>
      <trkpt lat="47.4554" lon="-0.59915">
        <ele>37.15</ele>
        <time>2016-09-04T07:38:30Z</time>
      </trkpt>
      <trkpt lat="47.45543" lon="-0.59938">
        <ele>40.03</ele>
        <time>2016-09-04T07:38:43Z</time>
      </trkpt>
      <trkpt lat="47.45547" lon="-0.59957">
        <ele>40.99</ele>
        <time>2016-09-04T07:38:53Z</time>
      </trkpt>
      <trkpt lat="47.45533" lon="-0.59971">
        <ele>41.47</ele>
        <time>2016-09-04T07:39:08Z</time>
      </trkpt>
      <trkpt lat="47.45503" lon="-0.59963">
        <ele>41.47</ele>
        <time>2016-09-04T07:39:25Z</time>
      </trkpt>
      <trkpt lat="47.45483" lon="-0.59951">
        <ele>43.88</ele>
        <time>2016-09-04T07:39:37Z</time>
      </trkpt>
      <trkpt lat="47.45477" lon="-0.5995">
        <ele>45.32</ele>
        <time>2016-09-04T07:39:50Z</time>
      </trkpt>
      <trkpt lat="47.45478" lon="-0.59948">
        <ele>44.84</ele>
        <time>2016-09-04T07:40:06Z</time>
      </trkpt>
      <trkpt lat="47.4548" lon="-0.5995">
        <ele>44.84</ele>
        <time>2016-09-04T07:40:36Z</time>
      </trkpt>
      <trkpt lat="47.45479" lon="-0.5995">
        <ele>44.84</ele>
        <time>2016-09-04T07:41:18Z</time>
      </trkpt>
      <trkpt lat="47.45479" lon="-0.59949">
        <ele>45.32</ele>
        <time>2016-09-04T07:41:58Z</time>
      </trkpt>
      <trkpt lat="47.45478" lon="-0.59947">
        <ele>45.32</ele>
        <time>2016-09-04T07:42:44Z</time>
      </trkpt>
      <trkpt lat="47.45481" lon="-0.59947">
        <ele>45.8</ele>
        <time>2016-09-04T07:43:29Z</time>
      </trkpt>
      <trkpt lat="47.45481" lon="-0.59948">
        <ele>45.8</ele>
        <time>2016-09-04T07:44:20Z</time>
      </trkpt>
      <trkpt lat="47.45481" lon="-0.59948">
        <ele>45.8</ele>
        <time>2016-09-04T07:44:55Z</time>
      </trkpt>
      <trkpt lat="47.4548" lon="-0.59947">
        <ele>46.28</ele>
        <time>2016-09-04T07:45:26Z</time>
      </trkpt>
      <trkpt lat="47.45479" lon="-0.59947">
        <ele>46.76</ele>
        <time>2016-09-04T07:45:42Z</time>
      </trkpt>
      <trkpt lat="47.45478" lon="-0.59947">
        <ele>46.76</ele>
        <time>2016-09-04T07:46:07Z</time>
      </trkpt>
      <trkpt lat="47.45479" lon="-0.59948">
        <ele>46.76</ele>
        <time>2016-09-04T07:46:29Z</time>
      </trkpt>
      <trkpt lat="47.45473" lon="-0.59955">
        <ele>45.32</ele>
        <time>2016-09-04T07:46:42Z</time>
      </trkpt>
      <trkpt lat="47.45473" lon="-0.59957">
        <ele>44.84</ele>
        <time>2016-09-04T07:46:55Z</time>
      </trkpt>
      <trkpt lat="47.45469" lon="-0.59964">
        <ele>41.47</ele>
        <time>2016-09-04T07:47:05Z</time>
      </trkpt>
      <trkpt lat="47.45466" lon="-0.59967">
        <ele>40.03</ele>
        <time>2016-09-04T07:47:17Z</time>
      </trkpt>
      <trkpt lat="47.45461" lon="-0.59973">
        <ele>38.11</ele>
        <time>2016-09-04T07:47:30Z</time>
      </trkpt>
      <trkpt lat="47.45462" lon="-0.59978">
        <ele>36.67</ele>
        <time>2016-09-04T07:47:43Z</time>
      </trkpt>
      <trkpt lat="47.45461" lon="-0.59982">
        <ele>34.74</ele>
        <time>2016-09-04T07:47:47Z</time>
      </trkpt>
      <trkpt lat="47.45461" lon="-0.59989">
        <ele>31.86</ele>
        <time>2016-09-04T07:47:52Z</time>
      </trkpt>
      <trkpt lat="47.45461" lon="-0.5999">
        <ele>31.86</ele>
        <time>2016-09-04T07:47:53Z</time>
      </trkpt>
      <trkpt lat="47.45461" lon="-0.5999">
        <ele>31.38</ele>
        <time>2016-09-04T07:48:05Z</time>
      </trkpt>
      <trkpt lat="47.45458" lon="-0.59994">
        <ele>29.94</ele>
        <time>2016-09-04T07:48:16Z</time>
      </trkpt>
      <trkpt lat="47.45456" lon="-0.59996">
        <ele>28.5</ele>
        <time>2016-09-04T07:48:19Z</time>
      </trkpt>
      <trkpt lat="47.45455" lon="-0.59998">
        <ele>28.02</ele>
        <time>2016-09-04T07:48:21Z</time>
      </trkpt>
      <trkpt lat="47.45449" lon="-0.60002">
        <ele>26.57</ele>
        <time>2016-09-04T07:48:25Z</time>
      </trkpt>
      <trkpt lat="47.45449" lon="-0.60005">
        <ele>25.61</ele>
        <time>2016-09-04T07:48:26Z</time>
      </trkpt>
      <trkpt lat="47.45449" lon="-0.60009">
        <ele>24.17</ele>
        <time>2016-09-04T07:48:28Z</time>
      </trkpt>
      <trkpt lat="47.45447" lon="-0.60017">
        <ele>24.17</ele>
        <time>2016-09-04T07:48:42Z</time>
      </trkpt>
      <trkpt lat="47.45444" lon="-0.60019">
        <ele>24.17</ele>
        <time>2016-09-04T07:49:07Z</time>
      </trkpt>
      <trkpt lat="47.45443" lon="-0.60014">
        <ele>23.69</ele>
        <time>2016-09-04T07:49:24Z</time>
      </trkpt>
      <trkpt lat="47.45441" lon="-0.60016">
        <ele>24.17</ele>
        <time>2016-09-04T07:49:51Z</time>
      </trkpt>
      <trkpt lat="47.45449" lon="-0.60011">
        <ele>24.17</ele>
        <time>2016-09-04T07:50:29Z</time>
      </trkpt>
      <trkpt lat="47.45447" lon="-0.6001">
        <ele>23.69</ele>
        <time>2016-09-04T07:50:52Z</time>
      </trkpt>
      <trkpt lat="47.45445" lon="-0.60007">
        <ele>23.69</ele>
        <time>2016-09-04T07:51:25Z</time>
      </trkpt>
      <trkpt lat="47.45446" lon="-0.60015">
        <ele>24.65</ele>
        <time>2016-09-04T07:51:48Z</time>
      </trkpt>
      <trkpt lat="47.45443" lon="-0.60013">
        <ele>24.65</ele>
        <time>2016-09-04T07:51:56Z</time>
      </trkpt>
      <trkpt lat="47.45425" lon="-0.5998">
        <ele>24.17</ele>
        <time>2016-09-04T07:52:10Z</time>
      </trkpt>
      <trkpt lat="47.45414" lon="-0.59958">
        <ele>24.17</ele>
        <time>2016-09-04T07:52:15Z</time>
      </trkpt>
      <trkpt lat="47.45413" lon="-0.59952">
        <ele>23.69</ele>
        <time>2016-09-04T07:52:16Z</time>
      </trkpt>
      <trkpt lat="47.45411" lon="-0.59947">
        <ele>23.69</ele>
        <time>2016-09-04T07:52:17Z</time>
      </trkpt>
      <trkpt lat="47.4541" lon="-0.59941">
        <ele>23.69</ele>
        <time>2016-09-04T07:52:18Z</time>
      </trkpt>
      <trkpt lat="47.45409" lon="-0.59935">
        <ele>23.69</ele>
        <time>2016-09-04T07:52:19Z</time>
      </trkpt>
      <trkpt lat="47.45409" lon="-0.59913">
        <ele>23.21</ele>
        <time>2016-09-04T07:52:23Z</time>
      </trkpt>
      <trkpt lat="47.4541" lon="-0.59907">
        <ele>23.21</ele>
        <time>2016-09-04T07:52:24Z</time>
      </trkpt>
      <trkpt lat="47.45412" lon="-0.59901">
        <ele>23.21</ele>
        <time>2016-09-04T07:52:25Z</time>
      </trkpt>
      <trkpt lat="47.45414" lon="-0.59895">
        <ele>22.73</ele>
        <time>2016-09-04T07:52:26Z</time>
      </trkpt>
      <trkpt lat="47.45418" lon="-0.5989">
        <ele>22.73</ele>
        <time>2016-09-04T07:52:27Z</time>
      </trkpt>
      <trkpt lat="47.45421" lon="-0.59886">
        <ele>22.25</ele>
        <time>2016-09-04T07:52:28Z</time>
      </trkpt>
      <trkpt lat="47.45426" lon="-0.59883">
        <ele>22.73</ele>
        <time>2016-09-04T07:52:29Z</time>
      </trkpt>
      <trkpt lat="47.4543" lon="-0.59881">
        <ele>22.25</ele>
        <time>2016-09-04T07:52:30Z</time>
      </trkpt>
      <trkpt lat="47.45442" lon="-0.59873">
        <ele>23.21</ele>
        <time>2016-09-04T07:52:33Z</time>
      </trkpt>
      <trkpt lat="47.45445" lon="-0.5987">
        <ele>22.73</ele>
        <time>2016-09-04T07:52:34Z</time>
      </trkpt>
      <trkpt lat="47.45468" lon="-0.59847">
        <ele>22.73</ele>
        <time>2016-09-04T07:52:40Z</time>
      </trkpt>
      <trkpt lat="47.45471" lon="-0.59843">
        <ele>22.73</ele>
        <time>2016-09-04T07:52:41Z</time>
      </trkpt>
      <trkpt lat="47.45473" lon="-0.59839">
        <ele>22.73</ele>
        <time>2016-09-04T07:52:42Z</time>
      </trkpt>
      <trkpt lat="47.45514" lon="-0.5974">
        <ele>23.69</ele>
        <time>2016-09-04T07:52:58Z</time>
      </trkpt>
      <trkpt lat="47.4552" lon="-0.59685">
        <ele>25.13</ele>
        <time>2016-09-04T07:53:09Z</time>
      </trkpt>
      <trkpt lat="47.45515" lon="-0.59661">
        <ele>24.65</ele>
        <time>2016-09-04T07:53:14Z</time>
      </trkpt>
      <trkpt lat="47.4551" lon="-0.59608">
        <ele>24.17</ele>
        <time>2016-09-04T07:53:24Z</time>
      </trkpt>
      <trkpt lat="47.45508" lon="-0.59597">
        <ele>23.21</ele>
        <time>2016-09-04T07:53:26Z</time>
      </trkpt>
      <trkpt lat="47.45497" lon="-0.5956">
        <ele>23.69</ele>
        <time>2016-09-04T07:53:39Z</time>
      </trkpt>
      <trkpt lat="47.45495" lon="-0.59563">
        <ele>23.69</ele>
        <time>2016-09-04T07:54:02Z</time>
      </trkpt>
      <trkpt lat="47.45496" lon="-0.59563">
        <ele>23.21</ele>
        <time>2016-09-04T07:54:32Z</time>
      </trkpt>
      <trkpt lat="47.45496" lon="-0.5956">
        <ele>23.69</ele>
        <time>2016-09-04T07:54:54Z</time>
      </trkpt>
      <trkpt lat="47.45494" lon="-0.5956">
        <ele>23.21</ele>
        <time>2016-09-04T07:55:14Z</time>
      </trkpt>
      <trkpt lat="47.45495" lon="-0.59559">
        <ele>23.21</ele>
        <time>2016-09-04T07:55:49Z</time>
      </trkpt>
      <trkpt lat="47.45496" lon="-0.5956">
        <ele>23.21</ele>
        <time>2016-09-04T07:56:19Z</time>
      </trkpt>
      <trkpt lat="47.45497" lon="-0.59561">
        <ele>23.21</ele>
        <time>2016-09-04T07:56:45Z</time>
      </trkpt>
      <trkpt lat="47.45497" lon="-0.59559">
        <ele>23.21</ele>
        <time>2016-09-04T07:57:11Z</time>
      </trkpt>
      <trkpt lat="47.45496" lon="-0.59556">
        <ele>23.21</ele>
        <time>2016-09-04T07:57:19Z</time>
      </trkpt>
      <trkpt lat="47.45496" lon="-0.59554">
        <ele>22.73</ele>
        <time>2016-09-04T07:57:20Z</time>
      </trkpt>
      <trkpt lat="47.45496" lon="-0.59551">
        <ele>23.21</ele>
        <time>2016-09-04T07:57:21Z</time>
      </trkpt>
      <trkpt lat="47.45495" lon="-0.59548">
        <ele>22.73</ele>
        <time>2016-09-04T07:57:22Z</time>
      </trkpt>
      <trkpt lat="47.45494" lon="-0.59545">
        <ele>23.21</ele>
        <time>2016-09-04T07:57:23Z</time>
      </trkpt>
      <trkpt lat="47.45476" lon="-0.5949">
        <ele>23.21</ele>
        <time>2016-09-04T07:57:35Z</time>
      </trkpt>
      <trkpt lat="47.45471" lon="-0.59474">
        <ele>23.21</ele>
        <time>2016-09-04T07:57:38Z</time>
      </trkpt>
      <trkpt lat="47.45463" lon="-0.5946">
        <ele>23.21</ele>
        <time>2016-09-04T07:57:41Z</time>
      </trkpt>
      <trkpt lat="47.45459" lon="-0.59456">
        <ele>23.21</ele>
        <time>2016-09-04T07:57:42Z</time>
      </trkpt>
      <trkpt lat="47.45445" lon="-0.59442">
        <ele>23.21</ele>
        <time>2016-09-04T07:57:46Z</time>
      </trkpt>
      <trkpt lat="47.45373" lon="-0.59422">
        <ele>22.25</ele>
        <time>2016-09-04T07:58:02Z</time>
      </trkpt>
      <trkpt lat="47.45294" lon="-0.59421">
        <ele>22.73</ele>
        <time>2016-09-04T07:58:18Z</time>
      </trkpt>
      <trkpt lat="47.4528" lon="-0.59425">
        <ele>23.21</ele>
        <time>2016-09-04T07:58:21Z</time>
      </trkpt>
      <trkpt lat="47.45276" lon="-0.59427">
        <ele>22.73</ele>
        <time>2016-09-04T07:58:22Z</time>
      </trkpt>
      <trkpt lat="47.45271" lon="-0.5943">
        <ele>23.21</ele>
        <time>2016-09-04T07:58:23Z</time>
      </trkpt>
      <trkpt lat="47.45267" lon="-0.59434">
        <ele>23.21</ele>
        <time>2016-09-04T07:58:24Z</time>
      </trkpt>
      <trkpt lat="47.45263" lon="-0.59438">
        <ele>22.73</ele>
        <time>2016-09-04T07:58:25Z</time>
      </trkpt>
      <trkpt lat="47.45242" lon="-0.59454">
        <ele>23.69</ele>
        <time>2016-09-04T07:58:30Z</time>
      </trkpt>
      <trkpt lat="47.45238" lon="-0.59456">
        <ele>22.73</ele>
        <time>2016-09-04T07:58:31Z</time>
      </trkpt>
      <trkpt lat="47.45233" lon="-0.59458">
        <ele>22.73</ele>
        <time>2016-09-04T07:58:32Z</time>
      </trkpt>
      <trkpt lat="47.45228" lon="-0.59458">
        <ele>23.21</ele>
        <time>2016-09-04T07:58:33Z</time>
      </trkpt>
      <trkpt lat="47.45223" lon="-0.59458">
        <ele>23.21</ele>
        <time>2016-09-04T07:58:34Z</time>
      </trkpt>
      <trkpt lat="47.4517" lon="-0.5946">
        <ele>22.73</ele>
        <time>2016-09-04T07:58:45Z</time>
      </trkpt>
      <trkpt lat="47.45156" lon="-0.59459">
        <ele>22.25</ele>
        <time>2016-09-04T07:58:48Z</time>
      </trkpt>
      <trkpt lat="47.45151" lon="-0.59457">
        <ele>22.25</ele>
        <time>2016-09-04T07:58:49Z</time>
      </trkpt>
      <trkpt lat="47.45146" lon="-0.59454">
        <ele>22.25</ele>
        <time>2016-09-04T07:58:50Z</time>
      </trkpt>
      <trkpt lat="47.45142" lon="-0.59451">
        <ele>21.77</ele>
        <time>2016-09-04T07:58:51Z</time>
      </trkpt>
      <trkpt lat="47.45137" lon="-0.59447">
        <ele>21.77</ele>
        <time>2016-09-04T07:58:52Z</time>
      </trkpt>
      <trkpt lat="47.45132" lon="-0.59444">
        <ele>21.77</ele>
        <time>2016-09-04T07:58:53Z</time>
      </trkpt>
      <trkpt lat="47.45127" lon="-0.59441">
        <ele>21.29</ele>
        <time>2016-09-04T07:58:54Z</time>
      </trkpt>
      <trkpt lat="47.45123" lon="-0.5944">
        <ele>21.29</ele>
        <time>2016-09-04T07:58:55Z</time>
      </trkpt>
      <trkpt lat="47.45118" lon="-0.59438">
        <ele>21.29</ele>
        <time>2016-09-04T07:58:56Z</time>
      </trkpt>
      <trkpt lat="47.45107" lon="-0.59436">
        <ele>20.81</ele>
        <time>2016-09-04T07:58:58Z</time>
      </trkpt>
      <trkpt lat="47.45095" lon="-0.59435">
        <ele>20.81</ele>
        <time>2016-09-04T07:59:00Z</time>
      </trkpt>
      <trkpt lat="47.45089" lon="-0.59436">
        <ele>20.32</ele>
        <time>2016-09-04T07:59:01Z</time>
      </trkpt>
      <trkpt lat="47.45048" lon="-0.5944">
        <ele>20.32</ele>
        <time>2016-09-04T07:59:10Z</time>
      </trkpt>
      <trkpt lat="47.45024" lon="-0.5944">
        <ele>20.81</ele>
        <time>2016-09-04T07:59:15Z</time>
      </trkpt>
      <trkpt lat="47.4502" lon="-0.59439">
        <ele>21.29</ele>
        <time>2016-09-04T07:59:16Z</time>
      </trkpt>
      <trkpt lat="47.45015" lon="-0.59437">
        <ele>20.81</ele>
        <time>2016-09-04T07:59:17Z</time>
      </trkpt>
      <trkpt lat="47.45003" lon="-0.59427">
        <ele>21.29</ele>
        <time>2016-09-04T07:59:20Z</time>
      </trkpt>
      <trkpt lat="47.44996" lon="-0.59416">
        <ele>20.81</ele>
        <time>2016-09-04T07:59:22Z</time>
      </trkpt>
      <trkpt lat="47.44992" lon="-0.59412">
        <ele>20.32</ele>
        <time>2016-09-04T07:59:23Z</time>
      </trkpt>
      <trkpt lat="47.44987" lon="-0.59409">
        <ele>20.81</ele>
        <time>2016-09-04T07:59:24Z</time>
      </trkpt>
      <trkpt lat="47.44982" lon="-0.59408">
        <ele>20.32</ele>
        <time>2016-09-04T07:59:25Z</time>
      </trkpt>
      <trkpt lat="47.44976" lon="-0.59409">
        <ele>20.81</ele>
        <time>2016-09-04T07:59:26Z</time>
      </trkpt>
      <trkpt lat="47.44971" lon="-0.59412">
        <ele>20.32</ele>
        <time>2016-09-04T07:59:27Z</time>
      </trkpt>
      <trkpt lat="47.44967" lon="-0.59416">
        <ele>19.84</ele>
        <time>2016-09-04T07:59:28Z</time>
      </trkpt>
      <trkpt lat="47.44963" lon="-0.59421">
        <ele>19.84</ele>
        <time>2016-09-04T07:59:29Z</time>
      </trkpt>
      <trkpt lat="47.44902" lon="-0.5948">
        <ele>20.81</ele>
        <time>2016-09-04T07:59:43Z</time>
      </trkpt>
      <trkpt lat="47.44836" lon="-0.59508">
        <ele>20.81</ele>
        <time>2016-09-04T07:59:55Z</time>
      </trkpt>
      <trkpt lat="47.4474" lon="-0.59545">
        <ele>20.81</ele>
        <time>2016-09-04T08:00:11Z</time>
      </trkpt>
      <trkpt lat="47.44652" lon="-0.59578">
        <ele>20.81</ele>
        <time>2016-09-04T08:00:27Z</time>
      </trkpt>
      <trkpt lat="47.4458" lon="-0.59616">
        <ele>20.32</ele>
        <time>2016-09-04T08:00:40Z</time>
      </trkpt>
      <trkpt lat="47.44552" lon="-0.59633">
        <ele>20.81</ele>
        <time>2016-09-04T08:00:46Z</time>
      </trkpt>
      <trkpt lat="47.44521" lon="-0.59661">
        <ele>20.81</ele>
        <time>2016-09-04T08:00:53Z</time>
      </trkpt>
      <trkpt lat="47.44516" lon="-0.59665">
        <ele>20.32</ele>
        <time>2016-09-04T08:00:54Z</time>
      </trkpt>
      <trkpt lat="47.44486" lon="-0.59687">
        <ele>20.32</ele>
        <time>2016-09-04T08:01:01Z</time>
      </trkpt>
      <trkpt lat="47.44474" lon="-0.59696">
        <ele>20.32</ele>
        <time>2016-09-04T08:01:06Z</time>
      </trkpt>
      <trkpt lat="47.44472" lon="-0.59697">
        <ele>20.32</ele>
        <time>2016-09-04T08:01:07Z</time>
      </trkpt>
      <trkpt lat="47.4447" lon="-0.59698">
        <ele>20.32</ele>
        <time>2016-09-04T08:01:08Z</time>
      </trkpt>
      <trkpt lat="47.44469" lon="-0.597">
        <ele>20.32</ele>
        <time>2016-09-04T08:01:09Z</time>
      </trkpt>
      <trkpt lat="47.44467" lon="-0.59702">
        <ele>20.32</ele>
        <time>2016-09-04T08:01:10Z</time>
      </trkpt>
      <trkpt lat="47.44464" lon="-0.59702">
        <ele>20.32</ele>
        <time>2016-09-04T08:01:11Z</time>
      </trkpt>
      <trkpt lat="47.4446" lon="-0.59703">
        <ele>20.32</ele>
        <time>2016-09-04T08:01:12Z</time>
      </trkpt>
      <trkpt lat="47.44456" lon="-0.59706">
        <ele>19.84</ele>
        <time>2016-09-04T08:01:13Z</time>
      </trkpt>
      <trkpt lat="47.44452" lon="-0.5971">
        <ele>19.84</ele>
        <time>2016-09-04T08:01:14Z</time>
      </trkpt>
      <trkpt lat="47.44449" lon="-0.59713">
        <ele>20.32</ele>
        <time>2016-09-04T08:01:15Z</time>
      </trkpt>
      <trkpt lat="47.44448" lon="-0.59715">
        <ele>19.84</ele>
        <time>2016-09-04T08:01:16Z</time>
      </trkpt>
      <trkpt lat="47.4444" lon="-0.59725">
        <ele>19.84</ele>
        <time>2016-09-04T08:01:26Z</time>
      </trkpt>
      <trkpt lat="47.44439" lon="-0.59726">
        <ele>20.32</ele>
        <time>2016-09-04T08:01:27Z</time>
      </trkpt>
      <trkpt lat="47.44437" lon="-0.59727">
        <ele>19.84</ele>
        <time>2016-09-04T08:01:28Z</time>
      </trkpt>
      <trkpt lat="47.44434" lon="-0.5973">
        <ele>19.84</ele>
        <time>2016-09-04T08:01:29Z</time>
      </trkpt>
      <trkpt lat="47.44432" lon="-0.59732">
        <ele>19.84</ele>
        <time>2016-09-04T08:01:30Z</time>
      </trkpt>
      <trkpt lat="47.44381" lon="-0.59777">
        <ele>19.36</ele>
        <time>2016-09-04T08:01:40Z</time>
      </trkpt>
      <trkpt lat="47.44309" lon="-0.59841">
        <ele>19.36</ele>
        <time>2016-09-04T08:01:54Z</time>
      </trkpt>
      <trkpt lat="47.44227" lon="-0.59919">
        <ele>19.84</ele>
        <time>2016-09-04T08:02:11Z</time>
      </trkpt>
      <trkpt lat="47.44178" lon="-0.59967">
        <ele>19.36</ele>
        <time>2016-09-04T08:02:23Z</time>
      </trkpt>
      <trkpt lat="47.44136" lon="-0.60006">
        <ele>19.36</ele>
        <time>2016-09-04T08:02:33Z</time>
      </trkpt>
      <trkpt lat="47.44132" lon="-0.6001">
        <ele>19.84</ele>
        <time>2016-09-04T08:02:34Z</time>
      </trkpt>
      <trkpt lat="47.44073" lon="-0.60067">
        <ele>18.88</ele>
        <time>2016-09-04T08:02:47Z</time>
      </trkpt>
      <trkpt lat="47.44043" lon="-0.601">
        <ele>19.36</ele>
        <time>2016-09-04T08:02:54Z</time>
      </trkpt>
      <trkpt lat="47.43978" lon="-0.60155">
        <ele>19.84</ele>
        <time>2016-09-04T08:03:07Z</time>
      </trkpt>
      <trkpt lat="47.4391" lon="-0.60211">
        <ele>19.84</ele>
        <time>2016-09-04T08:03:21Z</time>
      </trkpt>
      <trkpt lat="47.43903" lon="-0.60215">
        <ele>19.36</ele>
        <time>2016-09-04T08:03:22Z</time>
      </trkpt>
      <trkpt lat="47.43886" lon="-0.60225">
        <ele>18.88</ele>
        <time>2016-09-04T08:03:25Z</time>
      </trkpt>
      <trkpt lat="47.43821" lon="-0.60273">
        <ele>19.84</ele>
        <time>2016-09-04T08:03:39Z</time>
      </trkpt>
      <trkpt lat="47.4376" lon="-0.60318">
        <ele>19.84</ele>
        <time>2016-09-04T08:03:53Z</time>
      </trkpt>
      <trkpt lat="47.43722" lon="-0.60347">
        <ele>20.81</ele>
        <time>2016-09-04T08:04:01Z</time>
      </trkpt>
      <trkpt lat="47.43643" lon="-0.60383">
        <ele>20.81</ele>
        <time>2016-09-04T08:04:15Z</time>
      </trkpt>
      <trkpt lat="47.43624" lon="-0.60387">
        <ele>20.81</ele>
        <time>2016-09-04T08:04:18Z</time>
      </trkpt>
      <trkpt lat="47.43618" lon="-0.6039">
        <ele>20.81</ele>
        <time>2016-09-04T08:04:19Z</time>
      </trkpt>
      <trkpt lat="47.43613" lon="-0.60394">
        <ele>21.29</ele>
        <time>2016-09-04T08:04:20Z</time>
      </trkpt>
      <trkpt lat="47.43549" lon="-0.60445">
        <ele>20.81</ele>
        <time>2016-09-04T08:04:32Z</time>
      </trkpt>
      <trkpt lat="47.43534" lon="-0.60454">
        <ele>21.77</ele>
        <time>2016-09-04T08:04:35Z</time>
      </trkpt>
      <trkpt lat="47.43529" lon="-0.60457">
        <ele>21.77</ele>
        <time>2016-09-04T08:04:36Z</time>
      </trkpt>
      <trkpt lat="47.43524" lon="-0.60458">
        <ele>21.77</ele>
        <time>2016-09-04T08:04:37Z</time>
      </trkpt>
      <trkpt lat="47.43519" lon="-0.60459">
        <ele>21.77</ele>
        <time>2016-09-04T08:04:38Z</time>
      </trkpt>
      <trkpt lat="47.43513" lon="-0.60459">
        <ele>21.77</ele>
        <time>2016-09-04T08:04:39Z</time>
      </trkpt>
      <trkpt lat="47.4349" lon="-0.60464">
        <ele>21.77</ele>
        <time>2016-09-04T08:04:43Z</time>
      </trkpt>
      <trkpt lat="47.43426" lon="-0.60501">
        <ele>22.25</ele>
        <time>2016-09-04T08:04:55Z</time>
      </trkpt>
      <trkpt lat="47.43421" lon="-0.60503">
        <ele>21.77</ele>
        <time>2016-09-04T08:04:56Z</time>
      </trkpt>
      <trkpt lat="47.4339" lon="-0.60505">
        <ele>21.77</ele>
        <time>2016-09-04T08:05:02Z</time>
      </trkpt>
      <trkpt lat="47.43384" lon="-0.60504">
        <ele>21.29</ele>
        <time>2016-09-04T08:05:03Z</time>
      </trkpt>
      <trkpt lat="47.43378" lon="-0.60503">
        <ele>21.77</ele>
        <time>2016-09-04T08:05:04Z</time>
      </trkpt>
      <trkpt lat="47.43345" lon="-0.60501">
        <ele>20.81</ele>
        <time>2016-09-04T08:05:09Z</time>
      </trkpt>
      <trkpt lat="47.43301" lon="-0.60501">
        <ele>20.81</ele>
        <time>2016-09-04T08:05:16Z</time>
      </trkpt>
      <trkpt lat="47.43243" lon="-0.60495">
        <ele>20.81</ele>
        <time>2016-09-04T08:05:27Z</time>
      </trkpt>
      <trkpt lat="47.43238" lon="-0.60493">
        <ele>20.81</ele>
        <time>2016-09-04T08:05:28Z</time>
      </trkpt>
      <trkpt lat="47.43159" lon="-0.60485">
        <ele>21.29</ele>
        <time>2016-09-04T08:05:42Z</time>
      </trkpt>
      <trkpt lat="47.43082" lon="-0.605">
        <ele>20.81</ele>
        <time>2016-09-04T08:05:56Z</time>
      </trkpt>
      <trkpt lat="47.43049" lon="-0.60508">
        <ele>20.81</ele>
        <time>2016-09-04T08:06:02Z</time>
      </trkpt>
      <trkpt lat="47.42958" lon="-0.60504">
        <ele>20.32</ele>
        <time>2016-09-04T08:06:18Z</time>
      </trkpt>
      <trkpt lat="47.42941" lon="-0.60501">
        <ele>20.81</ele>
        <time>2016-09-04T08:06:21Z</time>
      </trkpt>
      <trkpt lat="47.42925" lon="-0.60497">
        <ele>20.81</ele>
        <time>2016-09-04T08:06:24Z</time>
      </trkpt>
      <trkpt lat="47.4292" lon="-0.60495">
        <ele>20.81</ele>
        <time>2016-09-04T08:06:25Z</time>
      </trkpt>
      <trkpt lat="47.42831" lon="-0.60465">
        <ele>20.81</ele>
        <time>2016-09-04T08:06:41Z</time>
      </trkpt>
      <trkpt lat="47.42788" lon="-0.6045">
        <ele>20.81</ele>
        <time>2016-09-04T08:06:49Z</time>
      </trkpt>
      <trkpt lat="47.42783" lon="-0.6045">
        <ele>20.81</ele>
        <time>2016-09-04T08:06:50Z</time>
      </trkpt>
      <trkpt lat="47.427" lon="-0.60455">
        <ele>20.32</ele>
        <time>2016-09-04T08:07:04Z</time>
      </trkpt>
      <trkpt lat="47.42663" lon="-0.60456">
        <ele>20.81</ele>
        <time>2016-09-04T08:07:11Z</time>
      </trkpt>
      <trkpt lat="47.42658" lon="-0.60456">
        <ele>21.29</ele>
        <time>2016-09-04T08:07:12Z</time>
      </trkpt>
      <trkpt lat="47.42648" lon="-0.60457">
        <ele>21.29</ele>
        <time>2016-09-04T08:07:14Z</time>
      </trkpt>
      <trkpt lat="47.42644" lon="-0.60458">
        <ele>20.32</ele>
        <time>2016-09-04T08:07:15Z</time>
      </trkpt>
      <trkpt lat="47.4264" lon="-0.6046">
        <ele>20.32</ele>
        <time>2016-09-04T08:07:16Z</time>
      </trkpt>
      <trkpt lat="47.42637" lon="-0.60461">
        <ele>21.29</ele>
        <time>2016-09-04T08:07:17Z</time>
      </trkpt>
      <trkpt lat="47.42633" lon="-0.60462">
        <ele>20.81</ele>
        <time>2016-09-04T08:07:18Z</time>
      </trkpt>
      <trkpt lat="47.42629" lon="-0.60463">
        <ele>20.32</ele>
        <time>2016-09-04T08:07:19Z</time>
      </trkpt>
      <trkpt lat="47.42594" lon="-0.60463">
        <ele>19.84</ele>
        <time>2016-09-04T08:07:26Z</time>
      </trkpt>
      <trkpt lat="47.42589" lon="-0.60462">
        <ele>19.84</ele>
        <time>2016-09-04T08:07:27Z</time>
      </trkpt>
      <trkpt lat="47.4258" lon="-0.60459">
        <ele>18.88</ele>
        <time>2016-09-04T08:07:29Z</time>
      </trkpt>
      <trkpt lat="47.42569" lon="-0.6046">
        <ele>19.84</ele>
        <time>2016-09-04T08:07:31Z</time>
      </trkpt>
      <trkpt lat="47.42563" lon="-0.60462">
        <ele>19.36</ele>
        <time>2016-09-04T08:07:32Z</time>
      </trkpt>
      <trkpt lat="47.42484" lon="-0.60502">
        <ele>20.32</ele>
        <time>2016-09-04T08:07:46Z</time>
      </trkpt>
      <trkpt lat="47.42414" lon="-0.60529">
        <ele>20.32</ele>
        <time>2016-09-04T08:07:59Z</time>
      </trkpt>
      <trkpt lat="47.42383" lon="-0.60537">
        <ele>19.84</ele>
        <time>2016-09-04T08:08:05Z</time>
      </trkpt>
      <trkpt lat="47.42379" lon="-0.6054">
        <ele>20.32</ele>
        <time>2016-09-04T08:08:06Z</time>
      </trkpt>
      <trkpt lat="47.42359" lon="-0.60551">
        <ele>19.36</ele>
        <time>2016-09-04T08:08:10Z</time>
      </trkpt>
      <trkpt lat="47.42299" lon="-0.60615">
        <ele>20.32</ele>
        <time>2016-09-04T08:08:25Z</time>
      </trkpt>
      <trkpt lat="47.42296" lon="-0.6062">
        <ele>20.32</ele>
        <time>2016-09-04T08:08:26Z</time>
      </trkpt>
      <trkpt lat="47.4228" lon="-0.60635">
        <ele>20.32</ele>
        <time>2016-09-04T08:08:30Z</time>
      </trkpt>
      <trkpt lat="47.42277" lon="-0.6064">
        <ele>20.32</ele>
        <time>2016-09-04T08:08:31Z</time>
      </trkpt>
      <trkpt lat="47.42274" lon="-0.60645">
        <ele>20.32</ele>
        <time>2016-09-04T08:08:32Z</time>
      </trkpt>
      <trkpt lat="47.42271" lon="-0.60651">
        <ele>19.84</ele>
        <time>2016-09-04T08:08:33Z</time>
      </trkpt>
      <trkpt lat="47.42269" lon="-0.60657">
        <ele>20.32</ele>
        <time>2016-09-04T08:08:34Z</time>
      </trkpt>
      <trkpt lat="47.42267" lon="-0.60664">
        <ele>20.32</ele>
        <time>2016-09-04T08:08:35Z</time>
      </trkpt>
      <trkpt lat="47.42263" lon="-0.60677">
        <ele>20.32</ele>
        <time>2016-09-04T08:08:37Z</time>
      </trkpt>
      <trkpt lat="47.42261" lon="-0.6069">
        <ele>21.29</ele>
        <time>2016-09-04T08:08:39Z</time>
      </trkpt>
      <trkpt lat="47.42258" lon="-0.60695">
        <ele>21.29</ele>
        <time>2016-09-04T08:08:40Z</time>
      </trkpt>
      <trkpt lat="47.42256" lon="-0.607">
        <ele>21.29</ele>
        <time>2016-09-04T08:08:41Z</time>
      </trkpt>
      <trkpt lat="47.42253" lon="-0.60703">
        <ele>21.29</ele>
        <time>2016-09-04T08:08:42Z</time>
      </trkpt>
      <trkpt lat="47.42249" lon="-0.60707">
        <ele>21.29</ele>
        <time>2016-09-04T08:08:43Z</time>
      </trkpt>
      <trkpt lat="47.42207" lon="-0.6075">
        <ele>21.29</ele>
        <time>2016-09-04T08:08:55Z</time>
      </trkpt>
      <trkpt lat="47.42203" lon="-0.60753">
        <ele>21.77</ele>
        <time>2016-09-04T08:08:56Z</time>
      </trkpt>
      <trkpt lat="47.422" lon="-0.60758">
        <ele>21.29</ele>
        <time>2016-09-04T08:08:57Z</time>
      </trkpt>
      <trkpt lat="47.42198" lon="-0.60762">
        <ele>22.25</ele>
        <time>2016-09-04T08:08:58Z</time>
      </trkpt>
      <trkpt lat="47.42196" lon="-0.60766">
        <ele>21.77</ele>
        <time>2016-09-04T08:08:59Z</time>
      </trkpt>
      <trkpt lat="47.42193" lon="-0.6077">
        <ele>21.77</ele>
        <time>2016-09-04T08:09:00Z</time>
      </trkpt>
      <trkpt lat="47.4219" lon="-0.60774">
        <ele>21.29</ele>
        <time>2016-09-04T08:09:01Z</time>
      </trkpt>
      <trkpt lat="47.42188" lon="-0.60779">
        <ele>20.81</ele>
        <time>2016-09-04T08:09:02Z</time>
      </trkpt>
      <trkpt lat="47.42186" lon="-0.60784">
        <ele>20.81</ele>
        <time>2016-09-04T08:09:03Z</time>
      </trkpt>
      <trkpt lat="47.42184" lon="-0.6079">
        <ele>20.81</ele>
        <time>2016-09-04T08:09:04Z</time>
      </trkpt>
      <trkpt lat="47.42182" lon="-0.60795">
        <ele>21.77</ele>
        <time>2016-09-04T08:09:05Z</time>
      </trkpt>
      <trkpt lat="47.4218" lon="-0.60801">
        <ele>21.29</ele>
        <time>2016-09-04T08:09:06Z</time>
      </trkpt>
      <trkpt lat="47.42177" lon="-0.60806">
        <ele>21.29</ele>
        <time>2016-09-04T08:09:07Z</time>
      </trkpt>
      <trkpt lat="47.42169" lon="-0.60825">
        <ele>20.81</ele>
        <time>2016-09-04T08:09:10Z</time>
      </trkpt>
      <trkpt lat="47.4215" lon="-0.60858">
        <ele>20.32</ele>
        <time>2016-09-04T08:09:15Z</time>
      </trkpt>
      <trkpt lat="47.42114" lon="-0.60909">
        <ele>19.36</ele>
        <time>2016-09-04T08:09:27Z</time>
      </trkpt>
      <trkpt lat="47.4211" lon="-0.60917">
        <ele>19.84</ele>
        <time>2016-09-04T08:09:33Z</time>
      </trkpt>
      <trkpt lat="47.42108" lon="-0.60918">
        <ele>19.84</ele>
        <time>2016-09-04T08:09:34Z</time>
      </trkpt>
      <trkpt lat="47.42105" lon="-0.60919">
        <ele>20.32</ele>
        <time>2016-09-04T08:09:35Z</time>
      </trkpt>
      <trkpt lat="47.42102" lon="-0.6092">
        <ele>19.84</ele>
        <time>2016-09-04T08:09:36Z</time>
      </trkpt>
      <trkpt lat="47.42099" lon="-0.60922">
        <ele>19.36</ele>
        <time>2016-09-04T08:09:37Z</time>
      </trkpt>
      <trkpt lat="47.42075" lon="-0.60922">
        <ele>20.32</ele>
        <time>2016-09-04T08:09:43Z</time>
      </trkpt>
      <trkpt lat="47.42061" lon="-0.60919">
        <ele>19.84</ele>
        <time>2016-09-04T08:09:46Z</time>
      </trkpt>
      <trkpt lat="47.42056" lon="-0.6092">
        <ele>19.84</ele>
        <time>2016-09-04T08:09:47Z</time>
      </trkpt>
      <trkpt lat="47.42033" lon="-0.60922">
        <ele>18.88</ele>
        <time>2016-09-04T08:09:52Z</time>
      </trkpt>
      <trkpt lat="47.4201" lon="-0.6093">
        <ele>19.36</ele>
        <time>2016-09-04T08:09:57Z</time>
      </trkpt>
      <trkpt lat="47.42006" lon="-0.60932">
        <ele>19.36</ele>
        <time>2016-09-04T08:09:58Z</time>
      </trkpt>
      <trkpt lat="47.42002" lon="-0.60934">
        <ele>19.36</ele>
        <time>2016-09-04T08:09:59Z</time>
      </trkpt>
      <trkpt lat="47.41998" lon="-0.60938">
        <ele>19.84</ele>
        <time>2016-09-04T08:10:00Z</time>
      </trkpt>
      <trkpt lat="47.41994" lon="-0.60942">
        <ele>19.84</ele>
        <time>2016-09-04T08:10:01Z</time>
      </trkpt>
      <trkpt lat="47.4199" lon="-0.60944">
        <ele>19.84</ele>
        <time>2016-09-04T08:10:02Z</time>
      </trkpt>
      <trkpt lat="47.41986" lon="-0.60947">
        <ele>19.84</ele>
        <time>2016-09-04T08:10:03Z</time>
      </trkpt>
      <trkpt lat="47.41982" lon="-0.6095">
        <ele>19.84</ele>
        <time>2016-09-04T08:10:04Z</time>
      </trkpt>
      <trkpt lat="47.41926" lon="-0.60998">
        <ele>19.84</ele>
        <time>2016-09-04T08:10:19Z</time>
      </trkpt>
      <trkpt lat="47.41903" lon="-0.61009">
        <ele>19.36</ele>
        <time>2016-09-04T08:10:25Z</time>
      </trkpt>
      <trkpt lat="47.41859" lon="-0.61046">
        <ele>17.92</ele>
        <time>2016-09-04T08:10:39Z</time>
      </trkpt>
      <trkpt lat="47.41833" lon="-0.61059">
        <ele>18.88</ele>
        <time>2016-09-04T08:10:46Z</time>
      </trkpt>
      <trkpt lat="47.41829" lon="-0.6106">
        <ele>18.88</ele>
        <time>2016-09-04T08:10:47Z</time>
      </trkpt>
      <trkpt lat="47.41826" lon="-0.61061">
        <ele>18.88</ele>
        <time>2016-09-04T08:10:48Z</time>
      </trkpt>
      <trkpt lat="47.41818" lon="-0.61064">
        <ele>18.4</ele>
        <time>2016-09-04T08:10:50Z</time>
      </trkpt>
      <trkpt lat="47.41815" lon="-0.61068">
        <ele>18.88</ele>
        <time>2016-09-04T08:10:51Z</time>
      </trkpt>
      <trkpt lat="47.41812" lon="-0.61072">
        <ele>18.88</ele>
        <time>2016-09-04T08:10:52Z</time>
      </trkpt>
      <trkpt lat="47.41809" lon="-0.61077">
        <ele>18.88</ele>
        <time>2016-09-04T08:10:53Z</time>
      </trkpt>
      <trkpt lat="47.41806" lon="-0.61081">
        <ele>18.4</ele>
        <time>2016-09-04T08:10:54Z</time>
      </trkpt>
      <trkpt lat="47.41804" lon="-0.61085">
        <ele>19.36</ele>
        <time>2016-09-04T08:10:55Z</time>
      </trkpt>
      <trkpt lat="47.41801" lon="-0.61089">
        <ele>18.88</ele>
        <time>2016-09-04T08:10:56Z</time>
      </trkpt>
      <trkpt lat="47.41798" lon="-0.61093">
        <ele>18.4</ele>
        <time>2016-09-04T08:10:57Z</time>
      </trkpt>
      <trkpt lat="47.41771" lon="-0.61126">
        <ele>18.4</ele>
        <time>2016-09-04T08:11:05Z</time>
      </trkpt>
      <trkpt lat="47.41768" lon="-0.6113">
        <ele>18.4</ele>
        <time>2016-09-04T08:11:06Z</time>
      </trkpt>
      <trkpt lat="47.41753" lon="-0.6116">
        <ele>18.4</ele>
        <time>2016-09-04T08:11:12Z</time>
      </trkpt>
      <trkpt lat="47.4172" lon="-0.61211">
        <ele>20.32</ele>
        <time>2016-09-04T08:11:25Z</time>
      </trkpt>
      <trkpt lat="47.41696" lon="-0.61243">
        <ele>20.32</ele>
        <time>2016-09-04T08:11:36Z</time>
      </trkpt>
      <trkpt lat="47.41695" lon="-0.61246">
        <ele>20.81</ele>
        <time>2016-09-04T08:11:37Z</time>
      </trkpt>
      <trkpt lat="47.4169" lon="-0.61262">
        <ele>21.29</ele>
        <time>2016-09-04T08:11:46Z</time>
      </trkpt>
      <trkpt lat="47.41686" lon="-0.61265">
        <ele>20.81</ele>
        <time>2016-09-04T08:11:53Z</time>
      </trkpt>
      <trkpt lat="47.41679" lon="-0.61263">
        <ele>20.81</ele>
        <time>2016-09-04T08:12:04Z</time>
      </trkpt>
      <trkpt lat="47.41679" lon="-0.61262">
        <ele>20.81</ele>
        <time>2016-09-04T08:12:06Z</time>
      </trkpt>
      <trkpt lat="47.41676" lon="-0.61259">
        <ele>20.81</ele>
        <time>2016-09-04T08:12:09Z</time>
      </trkpt>
      <trkpt lat="47.41668" lon="-0.61255">
        <ele>20.81</ele>
        <time>2016-09-04T08:12:13Z</time>
      </trkpt>
      <trkpt lat="47.41665" lon="-0.61256">
        <ele>20.81</ele>
        <time>2016-09-04T08:12:14Z</time>
      </trkpt>
      <trkpt lat="47.41662" lon="-0.61258">
        <ele>21.29</ele>
        <time>2016-09-04T08:12:15Z</time>
      </trkpt>
      <trkpt lat="47.41623" lon="-0.61304">
        <ele>21.29</ele>
        <time>2016-09-04T08:12:28Z</time>
      </trkpt>
      <trkpt lat="47.41613" lon="-0.6132">
        <ele>20.32</ele>
        <time>2016-09-04T08:12:38Z</time>
      </trkpt>
      <trkpt lat="47.4161" lon="-0.61325">
        <ele>20.32</ele>
        <time>2016-09-04T08:12:50Z</time>
      </trkpt>
      <trkpt lat="47.41609" lon="-0.61328">
        <ele>20.32</ele>
        <time>2016-09-04T08:12:52Z</time>
      </trkpt>
      <trkpt lat="47.41608" lon="-0.61331">
        <ele>20.81</ele>
        <time>2016-09-04T08:12:53Z</time>
      </trkpt>
      <trkpt lat="47.41607" lon="-0.61334">
        <ele>20.32</ele>
        <time>2016-09-04T08:12:54Z</time>
      </trkpt>
      <trkpt lat="47.41605" lon="-0.61338">
        <ele>20.32</ele>
        <time>2016-09-04T08:12:55Z</time>
      </trkpt>
      <trkpt lat="47.41602" lon="-0.61342">
        <ele>19.84</ele>
        <time>2016-09-04T08:12:56Z</time>
      </trkpt>
      <trkpt lat="47.416" lon="-0.61345">
        <ele>20.32</ele>
        <time>2016-09-04T08:12:57Z</time>
      </trkpt>
      <trkpt lat="47.41572" lon="-0.61364">
        <ele>18.4</ele>
        <time>2016-09-04T08:13:05Z</time>
      </trkpt>
      <trkpt lat="47.41569" lon="-0.61368">
        <ele>17.44</ele>
        <time>2016-09-04T08:13:06Z</time>
      </trkpt>
      <trkpt lat="47.41567" lon="-0.61373">
        <ele>17.92</ele>
        <time>2016-09-04T08:13:07Z</time>
      </trkpt>
      <trkpt lat="47.41565" lon="-0.61378">
        <ele>18.4</ele>
        <time>2016-09-04T08:13:08Z</time>
      </trkpt>
      <trkpt lat="47.41563" lon="-0.61382">
        <ele>18.4</ele>
        <time>2016-09-04T08:13:09Z</time>
      </trkpt>
      <trkpt lat="47.41561" lon="-0.61385">
        <ele>18.88</ele>
        <time>2016-09-04T08:13:10Z</time>
      </trkpt>
      <trkpt lat="47.41547" lon="-0.61413">
        <ele>20.32</ele>
        <time>2016-09-04T08:13:17Z</time>
      </trkpt>
      <trkpt lat="47.4154" lon="-0.61439">
        <ele>21.29</ele>
        <time>2016-09-04T08:13:24Z</time>
      </trkpt>
      <trkpt lat="47.41537" lon="-0.61441">
        <ele>21.77</ele>
        <time>2016-09-04T08:13:25Z</time>
      </trkpt>
      <trkpt lat="47.41533" lon="-0.61442">
        <ele>21.29</ele>
        <time>2016-09-04T08:13:26Z</time>
      </trkpt>
      <trkpt lat="47.41507" lon="-0.6145">
        <ele>20.32</ele>
        <time>2016-09-04T08:13:32Z</time>
      </trkpt>
      <trkpt lat="47.41504" lon="-0.6145">
        <ele>19.84</ele>
        <time>2016-09-04T08:13:33Z</time>
      </trkpt>
      <trkpt lat="47.415" lon="-0.6145">
        <ele>19.84</ele>
        <time>2016-09-04T08:13:34Z</time>
      </trkpt>
      <trkpt lat="47.41482" lon="-0.61455">
        <ele>19.84</ele>
        <time>2016-09-04T08:13:38Z</time>
      </trkpt>
      <trkpt lat="47.41466" lon="-0.61463">
        <ele>19.36</ele>
        <time>2016-09-04T08:13:42Z</time>
      </trkpt>
      <trkpt lat="47.41462" lon="-0.61465">
        <ele>19.84</ele>
        <time>2016-09-04T08:13:43Z</time>
      </trkpt>
      <trkpt lat="47.41458" lon="-0.61467">
        <ele>19.84</ele>
        <time>2016-09-04T08:13:44Z</time>
      </trkpt>
      <trkpt lat="47.41454" lon="-0.61469">
        <ele>19.84</ele>
        <time>2016-09-04T08:13:45Z</time>
      </trkpt>
      <trkpt lat="47.4145" lon="-0.61472">
        <ele>19.84</ele>
        <time>2016-09-04T08:13:46Z</time>
      </trkpt>
      <trkpt lat="47.41392" lon="-0.61513">
        <ele>19.84</ele>
        <time>2016-09-04T08:14:02Z</time>
      </trkpt>
      <trkpt lat="47.41361" lon="-0.61539">
        <ele>20.81</ele>
        <time>2016-09-04T08:14:14Z</time>
      </trkpt>
      <trkpt lat="47.41357" lon="-0.61543">
        <ele>20.81</ele>
        <time>2016-09-04T08:14:16Z</time>
      </trkpt>
      <trkpt lat="47.4132" lon="-0.61573">
        <ele>20.81</ele>
        <time>2016-09-04T08:14:29Z</time>
      </trkpt>
      <trkpt lat="47.41299" lon="-0.61602">
        <ele>20.81</ele>
        <time>2016-09-04T08:14:36Z</time>
      </trkpt>
      <trkpt lat="47.41297" lon="-0.61608">
        <ele>20.32</ele>
        <time>2016-09-04T08:14:37Z</time>
      </trkpt>
      <trkpt lat="47.41296" lon="-0.61613">
        <ele>20.32</ele>
        <time>2016-09-04T08:14:38Z</time>
      </trkpt>
      <trkpt lat="47.41295" lon="-0.61618">
        <ele>20.81</ele>
        <time>2016-09-04T08:14:39Z</time>
      </trkpt>
      <trkpt lat="47.41294" lon="-0.61623">
        <ele>21.29</ele>
        <time>2016-09-04T08:14:40Z</time>
      </trkpt>
      <trkpt lat="47.41293" lon="-0.61628">
        <ele>20.81</ele>
        <time>2016-09-04T08:14:41Z</time>
      </trkpt>
      <trkpt lat="47.41264" lon="-0.6165">
        <ele>21.29</ele>
        <time>2016-09-04T08:14:51Z</time>
      </trkpt>
      <trkpt lat="47.41201" lon="-0.61668">
        <ele>21.29</ele>
        <time>2016-09-04T08:15:05Z</time>
      </trkpt>
      <trkpt lat="47.41155" lon="-0.61686">
        <ele>21.29</ele>
        <time>2016-09-04T08:15:15Z</time>
      </trkpt>
      <trkpt lat="47.41149" lon="-0.61689">
        <ele>21.29</ele>
        <time>2016-09-04T08:15:16Z</time>
      </trkpt>
      <trkpt lat="47.41139" lon="-0.61697">
        <ele>21.77</ele>
        <time>2016-09-04T08:15:18Z</time>
      </trkpt>
      <trkpt lat="47.41134" lon="-0.61698">
        <ele>21.29</ele>
        <time>2016-09-04T08:15:19Z</time>
      </trkpt>
      <trkpt lat="47.4113" lon="-0.61698">
        <ele>21.29</ele>
        <time>2016-09-04T08:15:20Z</time>
      </trkpt>
      <trkpt lat="47.41119" lon="-0.61699">
        <ele>20.81</ele>
        <time>2016-09-04T08:15:23Z</time>
      </trkpt>
      <trkpt lat="47.41116" lon="-0.61702">
        <ele>20.81</ele>
        <time>2016-09-04T08:15:24Z</time>
      </trkpt>
      <trkpt lat="47.41114" lon="-0.61706">
        <ele>21.29</ele>
        <time>2016-09-04T08:15:25Z</time>
      </trkpt>
      <trkpt lat="47.41111" lon="-0.61708">
        <ele>21.29</ele>
        <time>2016-09-04T08:15:26Z</time>
      </trkpt>
      <trkpt lat="47.41108" lon="-0.6171">
        <ele>21.77</ele>
        <time>2016-09-04T08:15:27Z</time>
      </trkpt>
      <trkpt lat="47.41104" lon="-0.61712">
        <ele>22.25</ele>
        <time>2016-09-04T08:15:28Z</time>
      </trkpt>
      <trkpt lat="47.41084" lon="-0.61717">
        <ele>21.77</ele>
        <time>2016-09-04T08:15:37Z</time>
      </trkpt>
      <trkpt lat="47.41071" lon="-0.61712">
        <ele>21.77</ele>
        <time>2016-09-04T08:15:40Z</time>
      </trkpt>
      <trkpt lat="47.41066" lon="-0.61712">
        <ele>21.29</ele>
        <time>2016-09-04T08:15:41Z</time>
      </trkpt>
      <trkpt lat="47.41061" lon="-0.61712">
        <ele>21.29</ele>
        <time>2016-09-04T08:15:42Z</time>
      </trkpt>
      <trkpt lat="47.41006" lon="-0.6172">
        <ele>20.81</ele>
        <time>2016-09-04T08:15:52Z</time>
      </trkpt>
      <trkpt lat="47.40989" lon="-0.61729">
        <ele>20.81</ele>
        <time>2016-09-04T08:15:56Z</time>
      </trkpt>
      <trkpt lat="47.40984" lon="-0.61731">
        <ele>20.81</ele>
        <time>2016-09-04T08:15:57Z</time>
      </trkpt>
      <trkpt lat="47.40954" lon="-0.6174">
        <ele>21.29</ele>
        <time>2016-09-04T08:16:03Z</time>
      </trkpt>
      <trkpt lat="47.40948" lon="-0.61742">
        <ele>21.29</ele>
        <time>2016-09-04T08:16:04Z</time>
      </trkpt>
      <trkpt lat="47.40943" lon="-0.61744">
        <ele>20.81</ele>
        <time>2016-09-04T08:16:05Z</time>
      </trkpt>
      <trkpt lat="47.40931" lon="-0.61745">
        <ele>20.81</ele>
        <time>2016-09-04T08:16:07Z</time>
      </trkpt>
      <trkpt lat="47.40924" lon="-0.61745">
        <ele>20.32</ele>
        <time>2016-09-04T08:16:08Z</time>
      </trkpt>
      <trkpt lat="47.40918" lon="-0.61746">
        <ele>19.84</ele>
        <time>2016-09-04T08:16:09Z</time>
      </trkpt>
      <trkpt lat="47.40876" lon="-0.61762">
        <ele>19.36</ele>
        <time>2016-09-04T08:16:16Z</time>
      </trkpt>
      <trkpt lat="47.4086" lon="-0.61774">
        <ele>18.88</ele>
        <time>2016-09-04T08:16:19Z</time>
      </trkpt>
      <trkpt lat="47.40851" lon="-0.61784">
        <ele>19.36</ele>
        <time>2016-09-04T08:16:21Z</time>
      </trkpt>
      <trkpt lat="47.40844" lon="-0.61794">
        <ele>19.84</ele>
        <time>2016-09-04T08:16:23Z</time>
      </trkpt>
      <trkpt lat="47.40836" lon="-0.61811">
        <ele>19.84</ele>
        <time>2016-09-04T08:16:26Z</time>
      </trkpt>
      <trkpt lat="47.40834" lon="-0.61816">
        <ele>19.84</ele>
        <time>2016-09-04T08:16:27Z</time>
      </trkpt>
      <trkpt lat="47.40831" lon="-0.61821">
        <ele>19.84</ele>
        <time>2016-09-04T08:16:28Z</time>
      </trkpt>
      <trkpt lat="47.40828" lon="-0.61824">
        <ele>20.32</ele>
        <time>2016-09-04T08:16:29Z</time>
      </trkpt>
      <trkpt lat="47.40824" lon="-0.61827">
        <ele>20.32</ele>
        <time>2016-09-04T08:16:30Z</time>
      </trkpt>
      <trkpt lat="47.40819" lon="-0.6183">
        <ele>20.32</ele>
        <time>2016-09-04T08:16:31Z</time>
      </trkpt>
      <trkpt lat="47.40784" lon="-0.61861">
        <ele>19.84</ele>
        <time>2016-09-04T08:16:39Z</time>
      </trkpt>
      <trkpt lat="47.4078" lon="-0.61866">
        <ele>20.32</ele>
        <time>2016-09-04T08:16:40Z</time>
      </trkpt>
      <trkpt lat="47.40776" lon="-0.61871">
        <ele>20.32</ele>
        <time>2016-09-04T08:16:41Z</time>
      </trkpt>
      <trkpt lat="47.40772" lon="-0.61876">
        <ele>20.32</ele>
        <time>2016-09-04T08:16:42Z</time>
      </trkpt>
      <trkpt lat="47.40768" lon="-0.61881">
        <ele>20.81</ele>
        <time>2016-09-04T08:16:43Z</time>
      </trkpt>
      <trkpt lat="47.4072" lon="-0.61945">
        <ele>20.32</ele>
        <time>2016-09-04T08:16:56Z</time>
      </trkpt>
      <trkpt lat="47.40701" lon="-0.61969">
        <ele>20.32</ele>
        <time>2016-09-04T08:17:01Z</time>
      </trkpt>
      <trkpt lat="47.40695" lon="-0.61981">
        <ele>20.32</ele>
        <time>2016-09-04T08:17:03Z</time>
      </trkpt>
      <trkpt lat="47.40692" lon="-0.61987">
        <ele>20.32</ele>
        <time>2016-09-04T08:17:04Z</time>
      </trkpt>
      <trkpt lat="47.40672" lon="-0.62012">
        <ele>20.81</ele>
        <time>2016-09-04T08:17:09Z</time>
      </trkpt>
      <trkpt lat="47.40668" lon="-0.62018">
        <ele>20.81</ele>
        <time>2016-09-04T08:17:10Z</time>
      </trkpt>
      <trkpt lat="47.40664" lon="-0.62023">
        <ele>20.81</ele>
        <time>2016-09-04T08:17:11Z</time>
      </trkpt>
      <trkpt lat="47.40659" lon="-0.62028">
        <ele>20.32</ele>
        <time>2016-09-04T08:17:12Z</time>
      </trkpt>
      <trkpt lat="47.40655" lon="-0.62034">
        <ele>20.32</ele>
        <time>2016-09-04T08:17:13Z</time>
      </trkpt>
      <trkpt lat="47.40624" lon="-0.62072">
        <ele>20.32</ele>
        <time>2016-09-04T08:17:20Z</time>
      </trkpt>
      <trkpt lat="47.4062" lon="-0.62075">
        <ele>19.84</ele>
        <time>2016-09-04T08:17:21Z</time>
      </trkpt>
      <trkpt lat="47.40606" lon="-0.62084">
        <ele>20.32</ele>
        <time>2016-09-04T08:17:24Z</time>
      </trkpt>
      <trkpt lat="47.40531" lon="-0.62139">
        <ele>19.84</ele>
        <time>2016-09-04T08:17:40Z</time>
      </trkpt>
      <trkpt lat="47.40518" lon="-0.62148">
        <ele>19.84</ele>
        <time>2016-09-04T08:17:43Z</time>
      </trkpt>
      <trkpt lat="47.40515" lon="-0.62153">
        <ele>19.84</ele>
        <time>2016-09-04T08:17:44Z</time>
      </trkpt>
      <trkpt lat="47.40512" lon="-0.62158">
        <ele>19.84</ele>
        <time>2016-09-04T08:17:45Z</time>
      </trkpt>
      <trkpt lat="47.40506" lon="-0.62169">
        <ele>19.84</ele>
        <time>2016-09-04T08:17:47Z</time>
      </trkpt>
      <trkpt lat="47.40502" lon="-0.62173">
        <ele>20.32</ele>
        <time>2016-09-04T08:17:48Z</time>
      </trkpt>
      <trkpt lat="47.40497" lon="-0.62177">
        <ele>20.32</ele>
        <time>2016-09-04T08:17:49Z</time>
      </trkpt>
      <trkpt lat="47.40474" lon="-0.62191">
        <ele>19.84</ele>
        <time>2016-09-04T08:17:54Z</time>
      </trkpt>
      <trkpt lat="47.4047" lon="-0.62194">
        <ele>19.84</ele>
        <time>2016-09-04T08:17:55Z</time>
      </trkpt>
      <trkpt lat="47.40466" lon="-0.62199">
        <ele>19.84</ele>
        <time>2016-09-04T08:17:56Z</time>
      </trkpt>
      <trkpt lat="47.40428" lon="-0.62245">
        <ele>21.29</ele>
        <time>2016-09-04T08:18:08Z</time>
      </trkpt>
      <trkpt lat="47.40422" lon="-0.62252">
        <ele>21.29</ele>
        <time>2016-09-04T08:18:10Z</time>
      </trkpt>
      <trkpt lat="47.40419" lon="-0.62257">
        <ele>20.32</ele>
        <time>2016-09-04T08:18:11Z</time>
      </trkpt>
      <trkpt lat="47.40416" lon="-0.6226">
        <ele>21.77</ele>
        <time>2016-09-04T08:18:12Z</time>
      </trkpt>
      <trkpt lat="47.40411" lon="-0.62264">
        <ele>21.29</ele>
        <time>2016-09-04T08:18:13Z</time>
      </trkpt>
      <trkpt lat="47.40407" lon="-0.62267">
        <ele>21.29</ele>
        <time>2016-09-04T08:18:14Z</time>
      </trkpt>
      <trkpt lat="47.40388" lon="-0.62285">
        <ele>20.81</ele>
        <time>2016-09-04T08:18:19Z</time>
      </trkpt>
      <trkpt lat="47.40385" lon="-0.6229">
        <ele>20.81</ele>
        <time>2016-09-04T08:18:20Z</time>
      </trkpt>
      <trkpt lat="47.40382" lon="-0.62292">
        <ele>20.81</ele>
        <time>2016-09-04T08:18:21Z</time>
      </trkpt>
      <trkpt lat="47.40379" lon="-0.62292">
        <ele>20.81</ele>
        <time>2016-09-04T08:18:22Z</time>
      </trkpt>
      <trkpt lat="47.40375" lon="-0.62292">
        <ele>20.32</ele>
        <time>2016-09-04T08:18:23Z</time>
      </trkpt>
      <trkpt lat="47.40371" lon="-0.62294">
        <ele>19.84</ele>
        <time>2016-09-04T08:18:24Z</time>
      </trkpt>
      <trkpt lat="47.40368" lon="-0.62298">
        <ele>20.81</ele>
        <time>2016-09-04T08:18:25Z</time>
      </trkpt>
      <trkpt lat="47.40351" lon="-0.62311">
        <ele>20.81</ele>
        <time>2016-09-04T08:18:29Z</time>
      </trkpt>
      <trkpt lat="47.40342" lon="-0.62317">
        <ele>20.32</ele>
        <time>2016-09-04T08:18:31Z</time>
      </trkpt>
      <trkpt lat="47.40334" lon="-0.62325">
        <ele>19.84</ele>
        <time>2016-09-04T08:18:33Z</time>
      </trkpt>
      <trkpt lat="47.40301" lon="-0.62355">
        <ele>20.32</ele>
        <time>2016-09-04T08:18:42Z</time>
      </trkpt>
      <trkpt lat="47.40297" lon="-0.62359">
        <ele>20.32</ele>
        <time>2016-09-04T08:18:43Z</time>
      </trkpt>
      <trkpt lat="47.40281" lon="-0.62372">
        <ele>20.32</ele>
        <time>2016-09-04T08:18:47Z</time>
      </trkpt>
      <trkpt lat="47.40276" lon="-0.62375">
        <ele>20.32</ele>
        <time>2016-09-04T08:18:48Z</time>
      </trkpt>
      <trkpt lat="47.40272" lon="-0.62378">
        <ele>20.32</ele>
        <time>2016-09-04T08:18:49Z</time>
      </trkpt>
      <trkpt lat="47.40268" lon="-0.62379">
        <ele>20.81</ele>
        <time>2016-09-04T08:18:50Z</time>
      </trkpt>
      <trkpt lat="47.40264" lon="-0.6238">
        <ele>19.84</ele>
        <time>2016-09-04T08:18:51Z</time>
      </trkpt>
      <trkpt lat="47.4026" lon="-0.62381">
        <ele>19.84</ele>
        <time>2016-09-04T08:18:52Z</time>
      </trkpt>
      <trkpt lat="47.40257" lon="-0.62383">
        <ele>19.84</ele>
        <time>2016-09-04T08:18:53Z</time>
      </trkpt>
      <trkpt lat="47.40253" lon="-0.62385">
        <ele>20.32</ele>
        <time>2016-09-04T08:18:54Z</time>
      </trkpt>
      <trkpt lat="47.40249" lon="-0.62387">
        <ele>20.32</ele>
        <time>2016-09-04T08:18:55Z</time>
      </trkpt>
      <trkpt lat="47.40199" lon="-0.62418">
        <ele>20.81</ele>
        <time>2016-09-04T08:19:08Z</time>
      </trkpt>
      <trkpt lat="47.40166" lon="-0.62438">
        <ele>20.32</ele>
        <time>2016-09-04T08:19:18Z</time>
      </trkpt>
      <trkpt lat="47.40139" lon="-0.62453">
        <ele>20.81</ele>
        <time>2016-09-04T08:19:25Z</time>
      </trkpt>
      <trkpt lat="47.40135" lon="-0.62454">
        <ele>19.84</ele>
        <time>2016-09-04T08:19:26Z</time>
      </trkpt>
      <trkpt lat="47.4013" lon="-0.62457">
        <ele>20.32</ele>
        <time>2016-09-04T08:19:27Z</time>
      </trkpt>
      <trkpt lat="47.40126" lon="-0.6246">
        <ele>19.84</ele>
        <time>2016-09-04T08:19:28Z</time>
      </trkpt>
      <trkpt lat="47.40123" lon="-0.62463">
        <ele>20.32</ele>
        <time>2016-09-04T08:19:29Z</time>
      </trkpt>
      <trkpt lat="47.40115" lon="-0.62466">
        <ele>20.32</ele>
        <time>2016-09-04T08:19:31Z</time>
      </trkpt>
      <trkpt lat="47.40111" lon="-0.62466">
        <ele>20.32</ele>
        <time>2016-09-04T08:19:32Z</time>
      </trkpt>
      <trkpt lat="47.40107" lon="-0.62467">
        <ele>19.84</ele>
        <time>2016-09-04T08:19:33Z</time>
      </trkpt>
      <trkpt lat="47.40103" lon="-0.62469">
        <ele>20.32</ele>
        <time>2016-09-04T08:19:34Z</time>
      </trkpt>
      <trkpt lat="47.401" lon="-0.62472">
        <ele>20.32</ele>
        <time>2016-09-04T08:19:35Z</time>
      </trkpt>
      <trkpt lat="47.40098" lon="-0.62476">
        <ele>20.32</ele>
        <time>2016-09-04T08:19:36Z</time>
      </trkpt>
      <trkpt lat="47.40095" lon="-0.6248">
        <ele>20.32</ele>
        <time>2016-09-04T08:19:37Z</time>
      </trkpt>
      <trkpt lat="47.40092" lon="-0.62484">
        <ele>20.32</ele>
        <time>2016-09-04T08:19:38Z</time>
      </trkpt>
      <trkpt lat="47.40074" lon="-0.62496">
        <ele>20.32</ele>
        <time>2016-09-04T08:19:43Z</time>
      </trkpt>
      <trkpt lat="47.40034" lon="-0.62512">
        <ele>20.81</ele>
        <time>2016-09-04T08:19:54Z</time>
      </trkpt>
      <trkpt lat="47.4002" lon="-0.62525">
        <ele>20.32</ele>
        <time>2016-09-04T08:19:58Z</time>
      </trkpt>
      <trkpt lat="47.40016" lon="-0.62527">
        <ele>20.32</ele>
        <time>2016-09-04T08:19:59Z</time>
      </trkpt>
      <trkpt lat="47.40012" lon="-0.62528">
        <ele>20.32</ele>
        <time>2016-09-04T08:20:00Z</time>
      </trkpt>
      <trkpt lat="47.40008" lon="-0.6253">
        <ele>20.32</ele>
        <time>2016-09-04T08:20:01Z</time>
      </trkpt>
      <trkpt lat="47.40004" lon="-0.62532">
        <ele>20.32</ele>
        <time>2016-09-04T08:20:02Z</time>
      </trkpt>
      <trkpt lat="47.40001" lon="-0.62533">
        <ele>20.32</ele>
        <time>2016-09-04T08:20:03Z</time>
      </trkpt>
      <trkpt lat="47.39999" lon="-0.62535">
        <ele>19.84</ele>
        <time>2016-09-04T08:20:04Z</time>
      </trkpt>
      <trkpt lat="47.39997" lon="-0.62537">
        <ele>19.84</ele>
        <time>2016-09-04T08:20:05Z</time>
      </trkpt>
      <trkpt lat="47.39966" lon="-0.62551">
        <ele>20.32</ele>
        <time>2016-09-04T08:20:15Z</time>
      </trkpt>
      <trkpt lat="47.39922" lon="-0.62568">
        <ele>20.32</ele>
        <time>2016-09-04T08:20:28Z</time>
      </trkpt>
      <trkpt lat="47.39898" lon="-0.62599">
        <ele>20.32</ele>
        <time>2016-09-04T08:20:38Z</time>
      </trkpt>
      <trkpt lat="47.39886" lon="-0.6263">
        <ele>23.21</ele>
        <time>2016-09-04T08:20:50Z</time>
      </trkpt>
      <trkpt lat="47.39887" lon="-0.62636">
        <ele>24.17</ele>
        <time>2016-09-04T08:20:54Z</time>
      </trkpt>
      <trkpt lat="47.39886" lon="-0.62637">
        <ele>24.17</ele>
        <time>2016-09-04T08:20:55Z</time>
      </trkpt>
      <trkpt lat="47.39885" lon="-0.62638">
        <ele>24.17</ele>
        <time>2016-09-04T08:20:56Z</time>
      </trkpt>
      <trkpt lat="47.39883" lon="-0.6264">
        <ele>24.17</ele>
        <time>2016-09-04T08:20:57Z</time>
      </trkpt>
      <trkpt lat="47.39882" lon="-0.62641">
        <ele>24.17</ele>
        <time>2016-09-04T08:20:58Z</time>
      </trkpt>
      <trkpt lat="47.39865" lon="-0.62661">
        <ele>23.21</ele>
        <time>2016-09-04T08:21:07Z</time>
      </trkpt>
      <trkpt lat="47.39864" lon="-0.62666">
        <ele>23.21</ele>
        <time>2016-09-04T08:21:08Z</time>
      </trkpt>
      <trkpt lat="47.39865" lon="-0.6267">
        <ele>23.21</ele>
        <time>2016-09-04T08:21:09Z</time>
      </trkpt>
      <trkpt lat="47.39865" lon="-0.62675">
        <ele>23.69</ele>
        <time>2016-09-04T08:21:10Z</time>
      </trkpt>
      <trkpt lat="47.39863" lon="-0.62679">
        <ele>23.69</ele>
        <time>2016-09-04T08:21:11Z</time>
      </trkpt>
      <trkpt lat="47.39861" lon="-0.62682">
        <ele>24.17</ele>
        <time>2016-09-04T08:21:12Z</time>
      </trkpt>
      <trkpt lat="47.39858" lon="-0.62683">
        <ele>24.17</ele>
        <time>2016-09-04T08:21:13Z</time>
      </trkpt>
      <trkpt lat="47.39854" lon="-0.62686">
        <ele>24.17</ele>
        <time>2016-09-04T08:21:14Z</time>
      </trkpt>
      <trkpt lat="47.39851" lon="-0.62688">
        <ele>24.65</ele>
        <time>2016-09-04T08:21:15Z</time>
      </trkpt>
      <trkpt lat="47.39848" lon="-0.62691">
        <ele>24.65</ele>
        <time>2016-09-04T08:21:16Z</time>
      </trkpt>
      <trkpt lat="47.39791" lon="-0.62739">
        <ele>24.65</ele>
        <time>2016-09-04T08:21:33Z</time>
      </trkpt>
      <trkpt lat="47.39723" lon="-0.62798">
        <ele>23.69</ele>
        <time>2016-09-04T08:21:52Z</time>
      </trkpt>
      <trkpt lat="47.39672" lon="-0.62836">
        <ele>23.69</ele>
        <time>2016-09-04T08:22:06Z</time>
      </trkpt>
      <trkpt lat="47.39638" lon="-0.62846">
        <ele>23.69</ele>
        <time>2016-09-04T08:22:13Z</time>
      </trkpt>
      <trkpt lat="47.39635" lon="-0.6285">
        <ele>23.69</ele>
        <time>2016-09-04T08:22:14Z</time>
      </trkpt>
      <trkpt lat="47.39632" lon="-0.62853">
        <ele>23.69</ele>
        <time>2016-09-04T08:22:15Z</time>
      </trkpt>
      <trkpt lat="47.39604" lon="-0.62873">
        <ele>23.21</ele>
        <time>2016-09-04T08:22:24Z</time>
      </trkpt>
      <trkpt lat="47.396" lon="-0.62877">
        <ele>23.21</ele>
        <time>2016-09-04T08:22:25Z</time>
      </trkpt>
      <trkpt lat="47.39583" lon="-0.62903">
        <ele>22.73</ele>
        <time>2016-09-04T08:22:30Z</time>
      </trkpt>
      <trkpt lat="47.39579" lon="-0.62907">
        <ele>23.21</ele>
        <time>2016-09-04T08:22:31Z</time>
      </trkpt>
      <trkpt lat="47.39576" lon="-0.62911">
        <ele>22.73</ele>
        <time>2016-09-04T08:22:32Z</time>
      </trkpt>
      <trkpt lat="47.39558" lon="-0.62935">
        <ele>22.73</ele>
        <time>2016-09-04T08:22:38Z</time>
      </trkpt>
      <trkpt lat="47.39557" lon="-0.62938">
        <ele>22.25</ele>
        <time>2016-09-04T08:22:39Z</time>
      </trkpt>
      <trkpt lat="47.39557" lon="-0.62941">
        <ele>22.25</ele>
        <time>2016-09-04T08:22:40Z</time>
      </trkpt>
      <trkpt lat="47.39558" lon="-0.62944">
        <ele>22.73</ele>
        <time>2016-09-04T08:22:41Z</time>
      </trkpt>
      <trkpt lat="47.39558" lon="-0.62946">
        <ele>22.25</ele>
        <time>2016-09-04T08:22:42Z</time>
      </trkpt>
      <trkpt lat="47.39559" lon="-0.62948">
        <ele>22.73</ele>
        <time>2016-09-04T08:22:43Z</time>
      </trkpt>
      <trkpt lat="47.3956" lon="-0.6295">
        <ele>22.73</ele>
        <time>2016-09-04T08:22:44Z</time>
      </trkpt>
      <trkpt lat="47.39562" lon="-0.62955">
        <ele>22.73</ele>
        <time>2016-09-04T08:22:46Z</time>
      </trkpt>
      <trkpt lat="47.39563" lon="-0.62958">
        <ele>23.21</ele>
        <time>2016-09-04T08:22:47Z</time>
      </trkpt>
      <trkpt lat="47.3957" lon="-0.62979">
        <ele>23.69</ele>
        <time>2016-09-04T08:22:52Z</time>
      </trkpt>
      <trkpt lat="47.39582" lon="-0.63003">
        <ele>26.57</ele>
        <time>2016-09-04T08:23:00Z</time>
      </trkpt>
      <trkpt lat="47.39597" lon="-0.63024">
        <ele>28.98</ele>
        <time>2016-09-04T08:23:12Z</time>
      </trkpt>
      <trkpt lat="47.39609" lon="-0.63039">
        <ele>32.34</ele>
        <time>2016-09-04T08:23:20Z</time>
      </trkpt>
      <trkpt lat="47.3961" lon="-0.63041">
        <ele>32.34</ele>
        <time>2016-09-04T08:23:21Z</time>
      </trkpt>
      <trkpt lat="47.39621" lon="-0.63062">
        <ele>36.19</ele>
        <time>2016-09-04T08:23:30Z</time>
      </trkpt>
      <trkpt lat="47.3963" lon="-0.63082">
        <ele>39.07</ele>
        <time>2016-09-04T08:23:41Z</time>
      </trkpt>
      <trkpt lat="47.39637" lon="-0.63104">
        <ele>42.44</ele>
        <time>2016-09-04T08:23:52Z</time>
      </trkpt>
      <trkpt lat="47.39643" lon="-0.63127">
        <ele>45.8</ele>
        <time>2016-09-04T08:24:05Z</time>
      </trkpt>
      <trkpt lat="47.39647" lon="-0.63142">
        <ele>49.16</ele>
        <time>2016-09-04T08:24:16Z</time>
      </trkpt>
      <trkpt lat="47.39649" lon="-0.63145">
        <ele>49.65</ele>
        <time>2016-09-04T08:24:19Z</time>
      </trkpt>
      <trkpt lat="47.39649" lon="-0.63147">
        <ele>49.65</ele>
        <time>2016-09-04T08:24:20Z</time>
      </trkpt>
      <trkpt lat="47.39662" lon="-0.63168">
        <ele>52.53</ele>
        <time>2016-09-04T08:24:35Z</time>
      </trkpt>
      <trkpt lat="47.39684" lon="-0.63185">
        <ele>53.97</ele>
        <time>2016-09-04T08:24:51Z</time>
      </trkpt>
      <trkpt lat="47.39708" lon="-0.63209">
        <ele>53.49</ele>
        <time>2016-09-04T08:25:07Z</time>
      </trkpt>
      <trkpt lat="47.3974" lon="-0.63227">
        <ele>52.53</ele>
        <time>2016-09-04T08:25:18Z</time>
      </trkpt>
      <trkpt lat="47.39781" lon="-0.63225">
        <ele>53.01</ele>
        <time>2016-09-04T08:25:33Z</time>
      </trkpt>
      <trkpt lat="47.3979" lon="-0.6323">
        <ele>53.49</ele>
        <time>2016-09-04T08:25:36Z</time>
      </trkpt>
      <trkpt lat="47.39791" lon="-0.63233">
        <ele>52.53</ele>
        <time>2016-09-04T08:25:37Z</time>
      </trkpt>
      <trkpt lat="47.39792" lon="-0.63237">
        <ele>53.01</ele>
        <time>2016-09-04T08:25:38Z</time>
      </trkpt>
      <trkpt lat="47.39791" lon="-0.63242">
        <ele>53.01</ele>
        <time>2016-09-04T08:25:39Z</time>
      </trkpt>
      <trkpt lat="47.3979" lon="-0.63246">
        <ele>53.49</ele>
        <time>2016-09-04T08:25:40Z</time>
      </trkpt>
      <trkpt lat="47.39789" lon="-0.6325">
        <ele>53.49</ele>
        <time>2016-09-04T08:25:41Z</time>
      </trkpt>
      <trkpt lat="47.39774" lon="-0.63293">
        <ele>55.41</ele>
        <time>2016-09-04T08:25:54Z</time>
      </trkpt>
      <trkpt lat="47.39762" lon="-0.63333">
        <ele>56.86</ele>
        <time>2016-09-04T08:26:05Z</time>
      </trkpt>
      <trkpt lat="47.39764" lon="-0.63406">
        <ele>58.3</ele>
        <time>2016-09-04T08:26:20Z</time>
      </trkpt>
      <trkpt lat="47.39768" lon="-0.63458">
        <ele>60.22</ele>
        <time>2016-09-04T08:26:32Z</time>
      </trkpt>
      <trkpt lat="47.39772" lon="-0.63512">
        <ele>61.66</ele>
        <time>2016-09-04T08:26:45Z</time>
      </trkpt>
      <trkpt lat="47.39794" lon="-0.63571">
        <ele>63.1</ele>
        <time>2016-09-04T08:26:57Z</time>
      </trkpt>
      <trkpt lat="47.39797" lon="-0.63575">
        <ele>63.1</ele>
        <time>2016-09-04T08:26:58Z</time>
      </trkpt>
      <trkpt lat="47.39799" lon="-0.6358">
        <ele>63.1</ele>
        <time>2016-09-04T08:26:59Z</time>
      </trkpt>
      <trkpt lat="47.39823" lon="-0.63664">
        <ele>62.14</ele>
        <time>2016-09-04T08:27:15Z</time>
      </trkpt>
      <trkpt lat="47.39844" lon="-0.63731">
        <ele>61.18</ele>
        <time>2016-09-04T08:27:29Z</time>
      </trkpt>
      <trkpt lat="47.39872" lon="-0.63823">
        <ele>60.7</ele>
        <time>2016-09-04T08:27:44Z</time>
      </trkpt>
      <trkpt lat="47.39872" lon="-0.6383">
        <ele>60.7</ele>
        <time>2016-09-04T08:27:45Z</time>
      </trkpt>
      <trkpt lat="47.39873" lon="-0.63843">
        <ele>60.7</ele>
        <time>2016-09-04T08:27:47Z</time>
      </trkpt>
      <trkpt lat="47.39872" lon="-0.63849">
        <ele>60.22</ele>
        <time>2016-09-04T08:27:48Z</time>
      </trkpt>
      <trkpt lat="47.3987" lon="-0.63855">
        <ele>60.7</ele>
        <time>2016-09-04T08:27:49Z</time>
      </trkpt>
      <trkpt lat="47.39869" lon="-0.63861">
        <ele>60.22</ele>
        <time>2016-09-04T08:27:50Z</time>
      </trkpt>
      <trkpt lat="47.39867" lon="-0.63866">
        <ele>60.7</ele>
        <time>2016-09-04T08:27:51Z</time>
      </trkpt>
      <trkpt lat="47.39864" lon="-0.63871">
        <ele>60.22</ele>
        <time>2016-09-04T08:27:52Z</time>
      </trkpt>
      <trkpt lat="47.39855" lon="-0.63898">
        <ele>60.7</ele>
        <time>2016-09-04T08:27:57Z</time>
      </trkpt>
      <trkpt lat="47.39853" lon="-0.63911">
        <ele>61.18</ele>
        <time>2016-09-04T08:27:59Z</time>
      </trkpt>
      <trkpt lat="47.39865" lon="-0.63993">
        <ele>61.66</ele>
        <time>2016-09-04T08:28:12Z</time>
      </trkpt>
      <trkpt lat="47.3988" lon="-0.64036">
        <ele>61.66</ele>
        <time>2016-09-04T08:28:19Z</time>
      </trkpt>
      <trkpt lat="47.39882" lon="-0.64041">
        <ele>61.18</ele>
        <time>2016-09-04T08:28:20Z</time>
      </trkpt>
      <trkpt lat="47.3989" lon="-0.64065">
        <ele>62.14</ele>
        <time>2016-09-04T08:28:24Z</time>
      </trkpt>
      <trkpt lat="47.39908" lon="-0.64113">
        <ele>62.14</ele>
        <time>2016-09-04T08:28:32Z</time>
      </trkpt>
      <trkpt lat="47.39931" lon="-0.64197">
        <ele>62.62</ele>
        <time>2016-09-04T08:28:46Z</time>
      </trkpt>
      <trkpt lat="47.39949" lon="-0.64329">
        <ele>63.58</ele>
        <time>2016-09-04T08:29:05Z</time>
      </trkpt>
      <trkpt lat="47.39971" lon="-0.64439">
        <ele>65.03</ele>
        <time>2016-09-04T08:29:22Z</time>
      </trkpt>
      <trkpt lat="47.39976" lon="-0.6445">
        <ele>65.51</ele>
        <time>2016-09-04T08:29:24Z</time>
      </trkpt>
      <trkpt lat="47.39987" lon="-0.64465">
        <ele>65.03</ele>
        <time>2016-09-04T08:29:27Z</time>
      </trkpt>
      <trkpt lat="47.39992" lon="-0.64469">
        <ele>65.03</ele>
        <time>2016-09-04T08:29:28Z</time>
      </trkpt>
      <trkpt lat="47.39996" lon="-0.64472">
        <ele>64.55</ele>
        <time>2016-09-04T08:29:29Z</time>
      </trkpt>
      <trkpt lat="47.40001" lon="-0.64474">
        <ele>64.55</ele>
        <time>2016-09-04T08:29:30Z</time>
      </trkpt>
      <trkpt lat="47.40006" lon="-0.64476">
        <ele>64.55</ele>
        <time>2016-09-04T08:29:31Z</time>
      </trkpt>
      <trkpt lat="47.40011" lon="-0.64477">
        <ele>64.55</ele>
        <time>2016-09-04T08:29:32Z</time>
      </trkpt>
      <trkpt lat="47.40016" lon="-0.64477">
        <ele>65.03</ele>
        <time>2016-09-04T08:29:33Z</time>
      </trkpt>
      <trkpt lat="47.40021" lon="-0.64477">
        <ele>64.55</ele>
        <time>2016-09-04T08:29:34Z</time>
      </trkpt>
      <trkpt lat="47.40026" lon="-0.64478">
        <ele>64.55</ele>
        <time>2016-09-04T08:29:35Z</time>
      </trkpt>
      <trkpt lat="47.4004" lon="-0.64481">
        <ele>65.03</ele>
        <time>2016-09-04T08:29:38Z</time>
      </trkpt>
      <trkpt lat="47.40045" lon="-0.64484">
        <ele>64.55</ele>
        <time>2016-09-04T08:29:39Z</time>
      </trkpt>
      <trkpt lat="47.4005" lon="-0.64487">
        <ele>65.03</ele>
        <time>2016-09-04T08:29:40Z</time>
      </trkpt>
      <trkpt lat="47.40055" lon="-0.64491">
        <ele>64.55</ele>
        <time>2016-09-04T08:29:41Z</time>
      </trkpt>
      <trkpt lat="47.40059" lon="-0.64495">
        <ele>65.03</ele>
        <time>2016-09-04T08:29:42Z</time>
      </trkpt>
      <trkpt lat="47.40063" lon="-0.645">
        <ele>65.03</ele>
        <time>2016-09-04T08:29:43Z</time>
      </trkpt>
      <trkpt lat="47.4007" lon="-0.64511">
        <ele>65.03</ele>
        <time>2016-09-04T08:29:45Z</time>
      </trkpt>
      <trkpt lat="47.40097" lon="-0.64575">
        <ele>66.47</ele>
        <time>2016-09-04T08:29:56Z</time>
      </trkpt>
      <trkpt lat="47.40104" lon="-0.646">
        <ele>66.47</ele>
        <time>2016-09-04T08:30:01Z</time>
      </trkpt>
      <trkpt lat="47.40104" lon="-0.64603">
        <ele>66.47</ele>
        <time>2016-09-04T08:30:02Z</time>
      </trkpt>
      <trkpt lat="47.40102" lon="-0.64605">
        <ele>66.95</ele>
        <time>2016-09-04T08:30:03Z</time>
      </trkpt>
      <trkpt lat="47.401" lon="-0.64607">
        <ele>66.47</ele>
        <time>2016-09-04T08:30:04Z</time>
      </trkpt>
      <trkpt lat="47.40098" lon="-0.64607">
        <ele>66.47</ele>
        <time>2016-09-04T08:30:05Z</time>
      </trkpt>
      <trkpt lat="47.40095" lon="-0.64607">
        <ele>66.95</ele>
        <time>2016-09-04T08:30:06Z</time>
      </trkpt>
      <trkpt lat="47.40092" lon="-0.64607">
        <ele>66.47</ele>
        <time>2016-09-04T08:30:07Z</time>
      </trkpt>
      <trkpt lat="47.40088" lon="-0.64607">
        <ele>66.47</ele>
        <time>2016-09-04T08:30:08Z</time>
      </trkpt>
      <trkpt lat="47.4003" lon="-0.64617">
        <ele>67.43</ele>
        <time>2016-09-04T08:30:22Z</time>
      </trkpt>
      <trkpt lat="47.40013" lon="-0.64621">
        <ele>66.95</ele>
        <time>2016-09-04T08:30:26Z</time>
      </trkpt>
      <trkpt lat="47.39984" lon="-0.64632">
        <ele>68.39</ele>
        <time>2016-09-04T08:30:33Z</time>
      </trkpt>
      <trkpt lat="47.3998" lon="-0.64633">
        <ele>68.39</ele>
        <time>2016-09-04T08:30:34Z</time>
      </trkpt>
      <trkpt lat="47.39933" lon="-0.64654">
        <ele>69.35</ele>
        <time>2016-09-04T08:30:46Z</time>
      </trkpt>
      <trkpt lat="47.39865" lon="-0.64681">
        <ele>71.27</ele>
        <time>2016-09-04T08:31:02Z</time>
      </trkpt>
      <trkpt lat="47.39855" lon="-0.64684">
        <ele>71.27</ele>
        <time>2016-09-04T08:31:04Z</time>
      </trkpt>
      <trkpt lat="47.39851" lon="-0.64685">
        <ele>71.27</ele>
        <time>2016-09-04T08:31:05Z</time>
      </trkpt>
      <trkpt lat="47.39846" lon="-0.64684">
        <ele>71.27</ele>
        <time>2016-09-04T08:31:06Z</time>
      </trkpt>
      <trkpt lat="47.3984" lon="-0.64684">
        <ele>71.27</ele>
        <time>2016-09-04T08:31:07Z</time>
      </trkpt>
      <trkpt lat="47.39835" lon="-0.64685">
        <ele>70.79</ele>
        <time>2016-09-04T08:31:08Z</time>
      </trkpt>
      <trkpt lat="47.39829" lon="-0.64686">
        <ele>71.27</ele>
        <time>2016-09-04T08:31:09Z</time>
      </trkpt>
      <trkpt lat="47.39823" lon="-0.64688">
        <ele>71.27</ele>
        <time>2016-09-04T08:31:10Z</time>
      </trkpt>
      <trkpt lat="47.39734" lon="-0.64695">
        <ele>68.39</ele>
        <time>2016-09-04T08:31:25Z</time>
      </trkpt>
      <trkpt lat="47.39711" lon="-0.64694">
        <ele>67.91</ele>
        <time>2016-09-04T08:31:29Z</time>
      </trkpt>
      <trkpt lat="47.39687" lon="-0.647">
        <ele>66.47</ele>
        <time>2016-09-04T08:31:34Z</time>
      </trkpt>
      <trkpt lat="47.39686" lon="-0.64703">
        <ele>66.95</ele>
        <time>2016-09-04T08:31:35Z</time>
      </trkpt>
      <trkpt lat="47.39688" lon="-0.64707">
        <ele>66.47</ele>
        <time>2016-09-04T08:31:36Z</time>
      </trkpt>
      <trkpt lat="47.3969" lon="-0.64708">
        <ele>66.95</ele>
        <time>2016-09-04T08:31:37Z</time>
      </trkpt>
      <trkpt lat="47.39693" lon="-0.6471">
        <ele>66.95</ele>
        <time>2016-09-04T08:31:38Z</time>
      </trkpt>
      <trkpt lat="47.39736" lon="-0.64739">
        <ele>68.39</ele>
        <time>2016-09-04T08:31:51Z</time>
      </trkpt>
      <trkpt lat="47.39752" lon="-0.64761">
        <ele>69.35</ele>
        <time>2016-09-04T08:31:56Z</time>
      </trkpt>
      <trkpt lat="47.39767" lon="-0.648">
        <ele>69.35</ele>
        <time>2016-09-04T08:32:03Z</time>
      </trkpt>
      <trkpt lat="47.39768" lon="-0.64806">
        <ele>70.31</ele>
        <time>2016-09-04T08:32:04Z</time>
      </trkpt>
      <trkpt lat="47.39766" lon="-0.64812">
        <ele>69.83</ele>
        <time>2016-09-04T08:32:05Z</time>
      </trkpt>
      <trkpt lat="47.39763" lon="-0.64817">
        <ele>69.83</ele>
        <time>2016-09-04T08:32:06Z</time>
      </trkpt>
      <trkpt lat="47.39759" lon="-0.64822">
        <ele>69.35</ele>
        <time>2016-09-04T08:32:07Z</time>
      </trkpt>
      <trkpt lat="47.39739" lon="-0.64847">
        <ele>68.87</ele>
        <time>2016-09-04T08:32:12Z</time>
      </trkpt>
      <trkpt lat="47.39736" lon="-0.64852">
        <ele>68.87</ele>
        <time>2016-09-04T08:32:13Z</time>
      </trkpt>
      <trkpt lat="47.39715" lon="-0.64887">
        <ele>67.91</ele>
        <time>2016-09-04T08:32:19Z</time>
      </trkpt>
      <trkpt lat="47.39671" lon="-0.64966">
        <ele>66.47</ele>
        <time>2016-09-04T08:32:32Z</time>
      </trkpt>
      <trkpt lat="47.39661" lon="-0.64985">
        <ele>65.51</ele>
        <time>2016-09-04T08:32:35Z</time>
      </trkpt>
      <trkpt lat="47.39628" lon="-0.65033">
        <ele>62.14</ele>
        <time>2016-09-04T08:32:44Z</time>
      </trkpt>
      <trkpt lat="47.39619" lon="-0.65045">
        <ele>61.66</ele>
        <time>2016-09-04T08:32:46Z</time>
      </trkpt>
      <trkpt lat="47.39615" lon="-0.65051">
        <ele>60.7</ele>
        <time>2016-09-04T08:32:47Z</time>
      </trkpt>
      <trkpt lat="47.39612" lon="-0.65056">
        <ele>61.18</ele>
        <time>2016-09-04T08:32:48Z</time>
      </trkpt>
      <trkpt lat="47.396" lon="-0.6507">
        <ele>59.26</ele>
        <time>2016-09-04T08:32:52Z</time>
      </trkpt>
      <trkpt lat="47.39587" lon="-0.65081">
        <ele>55.89</ele>
        <time>2016-09-04T08:32:59Z</time>
      </trkpt>
      <trkpt lat="47.39578" lon="-0.65086">
        <ele>55.41</ele>
        <time>2016-09-04T08:33:02Z</time>
      </trkpt>
      <trkpt lat="47.39573" lon="-0.65089">
        <ele>54.93</ele>
        <time>2016-09-04T08:33:04Z</time>
      </trkpt>
      <trkpt lat="47.39567" lon="-0.65092">
        <ele>55.89</ele>
        <time>2016-09-04T08:33:06Z</time>
      </trkpt>
      <trkpt lat="47.3955" lon="-0.65088">
        <ele>55.41</ele>
        <time>2016-09-04T08:33:14Z</time>
      </trkpt>
      <trkpt lat="47.39544" lon="-0.65088">
        <ele>57.82</ele>
        <time>2016-09-04T08:33:18Z</time>
      </trkpt>
      <trkpt lat="47.39535" lon="-0.65087">
        <ele>60.22</ele>
        <time>2016-09-04T08:33:25Z</time>
      </trkpt>
      <trkpt lat="47.3952" lon="-0.6507">
        <ele>62.62</ele>
        <time>2016-09-04T08:33:38Z</time>
      </trkpt>
      <trkpt lat="47.39519" lon="-0.65067">
        <ele>63.1</ele>
        <time>2016-09-04T08:33:40Z</time>
      </trkpt>
      <trkpt lat="47.39518" lon="-0.65063">
        <ele>63.58</ele>
        <time>2016-09-04T08:33:42Z</time>
      </trkpt>
      <trkpt lat="47.39515" lon="-0.65052">
        <ele>64.07</ele>
        <time>2016-09-04T08:33:48Z</time>
      </trkpt>
      <trkpt lat="47.39507" lon="-0.65045">
        <ele>65.03</ele>
        <time>2016-09-04T08:33:55Z</time>
      </trkpt>
      <trkpt lat="47.39505" lon="-0.65042">
        <ele>65.03</ele>
        <time>2016-09-04T08:33:57Z</time>
      </trkpt>
      <trkpt lat="47.39504" lon="-0.65038">
        <ele>65.03</ele>
        <time>2016-09-04T08:33:59Z</time>
      </trkpt>
      <trkpt lat="47.39501" lon="-0.65034">
        <ele>65.03</ele>
        <time>2016-09-04T08:34:02Z</time>
      </trkpt>
      <trkpt lat="47.39495" lon="-0.65031">
        <ele>65.03</ele>
        <time>2016-09-04T08:34:06Z</time>
      </trkpt>
      <trkpt lat="47.39491" lon="-0.65025">
        <ele>65.51</ele>
        <time>2016-09-04T08:34:10Z</time>
      </trkpt>
      <trkpt lat="47.3948" lon="-0.65011">
        <ele>62.14</ele>
        <time>2016-09-04T08:34:21Z</time>
      </trkpt>
      <trkpt lat="47.39477" lon="-0.65008">
        <ele>58.78</ele>
        <time>2016-09-04T08:34:24Z</time>
      </trkpt>
      <trkpt lat="47.39466" lon="-0.65008">
        <ele>54.45</ele>
        <time>2016-09-04T08:34:28Z</time>
      </trkpt>
      <trkpt lat="47.39459" lon="-0.65007">
        <ele>52.53</ele>
        <time>2016-09-04T08:34:31Z</time>
      </trkpt>
      <trkpt lat="47.39456" lon="-0.65006">
        <ele>51.09</ele>
        <time>2016-09-04T08:34:32Z</time>
      </trkpt>
      <trkpt lat="47.39447" lon="-0.65004">
        <ele>48.68</ele>
        <time>2016-09-04T08:34:36Z</time>
      </trkpt>
      <trkpt lat="47.39443" lon="-0.65001">
        <ele>48.68</ele>
        <time>2016-09-04T08:34:38Z</time>
      </trkpt>
      <trkpt lat="47.3943" lon="-0.65002">
        <ele>47.24</ele>
        <time>2016-09-04T08:34:43Z</time>
      </trkpt>
      <trkpt lat="47.39422" lon="-0.65008">
        <ele>46.76</ele>
        <time>2016-09-04T08:34:50Z</time>
      </trkpt>
      <trkpt lat="47.39426" lon="-0.65024">
        <ele>47.24</ele>
        <time>2016-09-04T08:34:59Z</time>
      </trkpt>
      <trkpt lat="47.39445" lon="-0.65051">
        <ele>48.2</ele>
        <time>2016-09-04T08:35:10Z</time>
      </trkpt>
      <trkpt lat="47.39462" lon="-0.65079">
        <ele>48.68</ele>
        <time>2016-09-04T08:35:23Z</time>
      </trkpt>
      <trkpt lat="47.39478" lon="-0.65099">
        <ele>49.16</ele>
        <time>2016-09-04T08:35:33Z</time>
      </trkpt>
      <trkpt lat="47.39479" lon="-0.65102">
        <ele>49.16</ele>
        <time>2016-09-04T08:35:34Z</time>
      </trkpt>
      <trkpt lat="47.3948" lon="-0.65105">
        <ele>49.16</ele>
        <time>2016-09-04T08:35:35Z</time>
      </trkpt>
      <trkpt lat="47.39497" lon="-0.65134">
        <ele>50.13</ele>
        <time>2016-09-04T08:35:47Z</time>
      </trkpt>
      <trkpt lat="47.39498" lon="-0.65134">
        <ele>50.13</ele>
        <time>2016-09-04T08:35:48Z</time>
      </trkpt>
      <trkpt lat="47.395" lon="-0.65133">
        <ele>50.61</ele>
        <time>2016-09-04T08:35:49Z</time>
      </trkpt>
      <trkpt lat="47.39502" lon="-0.65133">
        <ele>50.61</ele>
        <time>2016-09-04T08:35:50Z</time>
      </trkpt>
      <trkpt lat="47.39504" lon="-0.65132">
        <ele>50.61</ele>
        <time>2016-09-04T08:35:51Z</time>
      </trkpt>
      <trkpt lat="47.39529" lon="-0.65113">
        <ele>53.49</ele>
        <time>2016-09-04T08:36:07Z</time>
      </trkpt>
      <trkpt lat="47.39532" lon="-0.6511">
        <ele>53.97</ele>
        <time>2016-09-04T08:36:10Z</time>
      </trkpt>
      <trkpt lat="47.39533" lon="-0.65109">
        <ele>53.97</ele>
        <time>2016-09-04T08:36:11Z</time>
      </trkpt>
      <trkpt lat="47.39541" lon="-0.65103">
        <ele>55.41</ele>
        <time>2016-09-04T08:36:18Z</time>
      </trkpt>
      <trkpt lat="47.3954" lon="-0.65099">
        <ele>55.89</ele>
        <time>2016-09-04T08:36:23Z</time>
      </trkpt>
      <trkpt lat="47.39538" lon="-0.65096">
        <ele>56.37</ele>
        <time>2016-09-04T08:36:25Z</time>
      </trkpt>
      <trkpt lat="47.39533" lon="-0.65091">
        <ele>57.82</ele>
        <time>2016-09-04T08:36:30Z</time>
      </trkpt>
      <trkpt lat="47.39526" lon="-0.65089">
        <ele>60.22</ele>
        <time>2016-09-04T08:36:39Z</time>
      </trkpt>
      <trkpt lat="47.39516" lon="-0.65075">
        <ele>63.1</ele>
        <time>2016-09-04T08:36:51Z</time>
      </trkpt>
      <trkpt lat="47.39505" lon="-0.65066">
        <ele>63.58</ele>
        <time>2016-09-04T08:37:04Z</time>
      </trkpt>
      <trkpt lat="47.39502" lon="-0.65059">
        <ele>64.07</ele>
        <time>2016-09-04T08:37:17Z</time>
      </trkpt>
      <trkpt lat="47.39495" lon="-0.65054">
        <ele>62.14</ele>
        <time>2016-09-04T08:37:21Z</time>
      </trkpt>
      <trkpt lat="47.39486" lon="-0.65048">
        <ele>59.74</ele>
        <time>2016-09-04T08:37:28Z</time>
      </trkpt>
      <trkpt lat="47.3949" lon="-0.65056">
        <ele>56.86</ele>
        <time>2016-09-04T08:37:33Z</time>
      </trkpt>
      <trkpt lat="47.39485" lon="-0.65062">
        <ele>53.97</ele>
        <time>2016-09-04T08:37:39Z</time>
      </trkpt>
      <trkpt lat="47.39482" lon="-0.65065">
        <ele>51.57</ele>
        <time>2016-09-04T08:37:43Z</time>
      </trkpt>
      <trkpt lat="47.39482" lon="-0.65074">
        <ele>50.13</ele>
        <time>2016-09-04T08:37:47Z</time>
      </trkpt>
      <trkpt lat="47.39483" lon="-0.65084">
        <ele>48.2</ele>
        <time>2016-09-04T08:37:51Z</time>
      </trkpt>
      <trkpt lat="47.39485" lon="-0.65088">
        <ele>48.2</ele>
        <time>2016-09-04T08:37:52Z</time>
      </trkpt>
      <trkpt lat="47.39492" lon="-0.65121">
        <ele>49.16</ele>
        <time>2016-09-04T08:38:04Z</time>
      </trkpt>
      <trkpt lat="47.39497" lon="-0.65137">
        <ele>49.65</ele>
        <time>2016-09-04T08:38:17Z</time>
      </trkpt>
      <trkpt lat="47.39498" lon="-0.65137">
        <ele>50.13</ele>
        <time>2016-09-04T08:38:29Z</time>
      </trkpt>
      <trkpt lat="47.39498" lon="-0.65138">
        <ele>49.16</ele>
        <time>2016-09-04T08:38:52Z</time>
      </trkpt>
      <trkpt lat="47.395" lon="-0.65136">
        <ele>49.65</ele>
        <time>2016-09-04T08:39:12Z</time>
      </trkpt>
      <trkpt lat="47.395" lon="-0.65135">
        <ele>49.65</ele>
        <time>2016-09-04T08:39:45Z</time>
      </trkpt>
      <trkpt lat="47.39503" lon="-0.65145">
        <ele>49.65</ele>
        <time>2016-09-04T08:40:06Z</time>
      </trkpt>
      <trkpt lat="47.39503" lon="-0.65154">
        <ele>50.61</ele>
        <time>2016-09-04T08:40:10Z</time>
      </trkpt>
      <trkpt lat="47.39502" lon="-0.65155">
        <ele>50.13</ele>
        <time>2016-09-04T08:40:11Z</time>
      </trkpt>
      <trkpt lat="47.395" lon="-0.65156">
        <ele>50.13</ele>
        <time>2016-09-04T08:40:12Z</time>
      </trkpt>
      <trkpt lat="47.39465" lon="-0.65156">
        <ele>50.61</ele>
        <time>2016-09-04T08:40:22Z</time>
      </trkpt>
      <trkpt lat="47.39447" lon="-0.65166">
        <ele>53.49</ele>
        <time>2016-09-04T08:40:29Z</time>
      </trkpt>
      <trkpt lat="47.39417" lon="-0.65196">
        <ele>55.89</ele>
        <time>2016-09-04T08:40:42Z</time>
      </trkpt>
      <trkpt lat="47.39382" lon="-0.65223">
        <ele>57.34</ele>
        <time>2016-09-04T08:40:54Z</time>
      </trkpt>
      <trkpt lat="47.39333" lon="-0.65242">
        <ele>59.26</ele>
        <time>2016-09-04T08:41:08Z</time>
      </trkpt>
      <trkpt lat="47.39294" lon="-0.65245">
        <ele>57.82</ele>
        <time>2016-09-04T08:41:16Z</time>
      </trkpt>
      <trkpt lat="47.39288" lon="-0.65247">
        <ele>57.34</ele>
        <time>2016-09-04T08:41:17Z</time>
      </trkpt>
      <trkpt lat="47.39283" lon="-0.6525">
        <ele>57.34</ele>
        <time>2016-09-04T08:41:18Z</time>
      </trkpt>
      <trkpt lat="47.39227" lon="-0.65295">
        <ele>59.74</ele>
        <time>2016-09-04T08:41:32Z</time>
      </trkpt>
      <trkpt lat="47.39186" lon="-0.65348">
        <ele>62.14</ele>
        <time>2016-09-04T08:41:47Z</time>
      </trkpt>
      <trkpt lat="47.39156" lon="-0.65404">
        <ele>64.55</ele>
        <time>2016-09-04T08:42:01Z</time>
      </trkpt>
      <trkpt lat="47.39131" lon="-0.65453">
        <ele>67.43</ele>
        <time>2016-09-04T08:42:15Z</time>
      </trkpt>
      <trkpt lat="47.39108" lon="-0.65508">
        <ele>67.43</ele>
        <time>2016-09-04T08:42:27Z</time>
      </trkpt>
      <trkpt lat="47.39073" lon="-0.65609">
        <ele>65.51</ele>
        <time>2016-09-04T08:42:41Z</time>
      </trkpt>
      <trkpt lat="47.39054" lon="-0.65676">
        <ele>66.47</ele>
        <time>2016-09-04T08:42:51Z</time>
      </trkpt>
      <trkpt lat="47.39053" lon="-0.65682">
        <ele>66.95</ele>
        <time>2016-09-04T08:42:52Z</time>
      </trkpt>
      <trkpt lat="47.39053" lon="-0.65687">
        <ele>66.95</ele>
        <time>2016-09-04T08:42:53Z</time>
      </trkpt>
      <trkpt lat="47.39051" lon="-0.65693">
        <ele>67.43</ele>
        <time>2016-09-04T08:42:54Z</time>
      </trkpt>
      <trkpt lat="47.3905" lon="-0.65698">
        <ele>67.91</ele>
        <time>2016-09-04T08:42:55Z</time>
      </trkpt>
      <trkpt lat="47.39033" lon="-0.65754">
        <ele>68.87</ele>
        <time>2016-09-04T08:43:04Z</time>
      </trkpt>
      <trkpt lat="47.39017" lon="-0.65796">
        <ele>69.35</ele>
        <time>2016-09-04T08:43:12Z</time>
      </trkpt>
      <trkpt lat="47.39014" lon="-0.658">
        <ele>68.87</ele>
        <time>2016-09-04T08:43:13Z</time>
      </trkpt>
      <trkpt lat="47.39011" lon="-0.65804">
        <ele>69.35</ele>
        <time>2016-09-04T08:43:14Z</time>
      </trkpt>
      <trkpt lat="47.39008" lon="-0.65806">
        <ele>68.87</ele>
        <time>2016-09-04T08:43:15Z</time>
      </trkpt>
      <trkpt lat="47.39005" lon="-0.65808">
        <ele>68.87</ele>
        <time>2016-09-04T08:43:16Z</time>
      </trkpt>
      <trkpt lat="47.39002" lon="-0.65811">
        <ele>68.87</ele>
        <time>2016-09-04T08:43:17Z</time>
      </trkpt>
      <trkpt lat="47.38999" lon="-0.65814">
        <ele>68.39</ele>
        <time>2016-09-04T08:43:18Z</time>
      </trkpt>
      <trkpt lat="47.38997" lon="-0.65818">
        <ele>68.39</ele>
        <time>2016-09-04T08:43:19Z</time>
      </trkpt>
      <trkpt lat="47.38994" lon="-0.65822">
        <ele>68.39</ele>
        <time>2016-09-04T08:43:20Z</time>
      </trkpt>
      <trkpt lat="47.38964" lon="-0.65854">
        <ele>69.35</ele>
        <time>2016-09-04T08:43:31Z</time>
      </trkpt>
      <trkpt lat="47.38908" lon="-0.65844">
        <ele>65.99</ele>
        <time>2016-09-04T08:43:44Z</time>
      </trkpt>
      <trkpt lat="47.38835" lon="-0.65829">
        <ele>64.07</ele>
        <time>2016-09-04T08:43:58Z</time>
      </trkpt>
      <trkpt lat="47.38816" lon="-0.65826">
        <ele>62.62</ele>
        <time>2016-09-04T08:44:01Z</time>
      </trkpt>
      <trkpt lat="47.38788" lon="-0.6582">
        <ele>59.26</ele>
        <time>2016-09-04T08:44:05Z</time>
      </trkpt>
      <trkpt lat="47.3876" lon="-0.65813">
        <ele>55.41</ele>
        <time>2016-09-04T08:44:09Z</time>
      </trkpt>
      <trkpt lat="47.38737" lon="-0.65808">
        <ele>52.05</ele>
        <time>2016-09-04T08:44:13Z</time>
      </trkpt>
      <trkpt lat="47.38732" lon="-0.65805">
        <ele>51.09</ele>
        <time>2016-09-04T08:44:14Z</time>
      </trkpt>
      <trkpt lat="47.38728" lon="-0.65802">
        <ele>50.61</ele>
        <time>2016-09-04T08:44:15Z</time>
      </trkpt>
      <trkpt lat="47.38726" lon="-0.65799">
        <ele>50.61</ele>
        <time>2016-09-04T08:44:16Z</time>
      </trkpt>
      <trkpt lat="47.38724" lon="-0.65795">
        <ele>50.13</ele>
        <time>2016-09-04T08:44:17Z</time>
      </trkpt>
      <trkpt lat="47.38724" lon="-0.65791">
        <ele>50.13</ele>
        <time>2016-09-04T08:44:18Z</time>
      </trkpt>
      <trkpt lat="47.38736" lon="-0.65775">
        <ele>51.57</ele>
        <time>2016-09-04T08:44:25Z</time>
      </trkpt>
      <trkpt lat="47.38738" lon="-0.65773">
        <ele>52.53</ele>
        <time>2016-09-04T08:44:26Z</time>
      </trkpt>
      <trkpt lat="47.38743" lon="-0.65757">
        <ele>53.97</ele>
        <time>2016-09-04T08:44:31Z</time>
      </trkpt>
      <trkpt lat="47.38728" lon="-0.65738">
        <ele>50.61</ele>
        <time>2016-09-04T08:44:37Z</time>
      </trkpt>
      <trkpt lat="47.38729" lon="-0.65723">
        <ele>50.13</ele>
        <time>2016-09-04T08:44:50Z</time>
      </trkpt>
      <trkpt lat="47.3873" lon="-0.65716">
        <ele>51.09</ele>
        <time>2016-09-04T08:44:54Z</time>
      </trkpt>
      <trkpt lat="47.38731" lon="-0.65716">
        <ele>51.57</ele>
        <time>2016-09-04T08:45:08Z</time>
      </trkpt>
      <trkpt lat="47.3873" lon="-0.65717">
        <ele>51.57</ele>
        <time>2016-09-04T08:45:20Z</time>
      </trkpt>
      <trkpt lat="47.3873" lon="-0.65717">
        <ele>51.09</ele>
        <time>2016-09-04T08:45:41Z</time>
      </trkpt>
      <trkpt lat="47.38729" lon="-0.65718">
        <ele>51.09</ele>
        <time>2016-09-04T08:45:43Z</time>
      </trkpt>
      <trkpt lat="47.38722" lon="-0.65722">
        <ele>49.65</ele>
        <time>2016-09-04T08:45:47Z</time>
      </trkpt>
      <trkpt lat="47.38719" lon="-0.65731">
        <ele>48.68</ele>
        <time>2016-09-04T08:45:51Z</time>
      </trkpt>
      <trkpt lat="47.38708" lon="-0.65742">
        <ele>45.8</ele>
        <time>2016-09-04T08:45:56Z</time>
      </trkpt>
      <trkpt lat="47.38692" lon="-0.65748">
        <ele>42.44</ele>
        <time>2016-09-04T08:46:01Z</time>
      </trkpt>
      <trkpt lat="47.38685" lon="-0.6575">
        <ele>40.51</ele>
        <time>2016-09-04T08:46:12Z</time>
      </trkpt>
      <trkpt lat="47.3868" lon="-0.65753">
        <ele>40.99</ele>
        <time>2016-09-04T08:46:45Z</time>
      </trkpt>
      <trkpt lat="47.3868" lon="-0.65755">
        <ele>40.99</ele>
        <time>2016-09-04T08:47:18Z</time>
      </trkpt>
      <trkpt lat="47.3868" lon="-0.6575">
        <ele>41.47</ele>
        <time>2016-09-04T08:47:49Z</time>
      </trkpt>
      <trkpt lat="47.38675" lon="-0.6575">
        <ele>40.03</ele>
        <time>2016-09-04T08:47:58Z</time>
      </trkpt>
      <trkpt lat="47.38673" lon="-0.6575">
        <ele>40.03</ele>
        <time>2016-09-04T08:47:59Z</time>
      </trkpt>
      <trkpt lat="47.38671" lon="-0.6575">
        <ele>38.59</ele>
        <time>2016-09-04T08:48:00Z</time>
      </trkpt>
      <trkpt lat="47.38668" lon="-0.65753">
        <ele>38.59</ele>
        <time>2016-09-04T08:48:01Z</time>
      </trkpt>
      <trkpt lat="47.38666" lon="-0.65756">
        <ele>38.59</ele>
        <time>2016-09-04T08:48:02Z</time>
      </trkpt>
      <trkpt lat="47.38665" lon="-0.65759">
        <ele>37.63</ele>
        <time>2016-09-04T08:48:03Z</time>
      </trkpt>
      <trkpt lat="47.38667" lon="-0.65767">
        <ele>36.67</ele>
        <time>2016-09-04T08:48:07Z</time>
      </trkpt>
      <trkpt lat="47.38684" lon="-0.65772">
        <ele>39.07</ele>
        <time>2016-09-04T08:48:16Z</time>
      </trkpt>
      <trkpt lat="47.38686" lon="-0.65773">
        <ele>39.07</ele>
        <time>2016-09-04T08:48:17Z</time>
      </trkpt>
      <trkpt lat="47.38687" lon="-0.65775">
        <ele>39.07</ele>
        <time>2016-09-04T08:48:18Z</time>
      </trkpt>
      <trkpt lat="47.38688" lon="-0.65777">
        <ele>39.55</ele>
        <time>2016-09-04T08:48:19Z</time>
      </trkpt>
      <trkpt lat="47.38689" lon="-0.65779">
        <ele>40.03</ele>
        <time>2016-09-04T08:48:20Z</time>
      </trkpt>
      <trkpt lat="47.3869" lon="-0.65781">
        <ele>40.03</ele>
        <time>2016-09-04T08:48:21Z</time>
      </trkpt>
      <trkpt lat="47.38691" lon="-0.65782">
        <ele>40.51</ele>
        <time>2016-09-04T08:48:22Z</time>
      </trkpt>
      <trkpt lat="47.38706" lon="-0.65797">
        <ele>43.88</ele>
        <time>2016-09-04T08:48:33Z</time>
      </trkpt>
      <trkpt lat="47.38708" lon="-0.658">
        <ele>43.88</ele>
        <time>2016-09-04T08:48:35Z</time>
      </trkpt>
      <trkpt lat="47.38709" lon="-0.65801">
        <ele>43.88</ele>
        <time>2016-09-04T08:48:36Z</time>
      </trkpt>
      <trkpt lat="47.38723" lon="-0.65816">
        <ele>47.24</ele>
        <time>2016-09-04T08:48:50Z</time>
      </trkpt>
      <trkpt lat="47.3874" lon="-0.65826">
        <ele>50.61</ele>
        <time>2016-09-04T08:49:04Z</time>
      </trkpt>
      <trkpt lat="47.38748" lon="-0.65831">
        <ele>51.09</ele>
        <time>2016-09-04T08:49:12Z</time>
      </trkpt>
      <trkpt lat="47.3875" lon="-0.65831">
        <ele>52.05</ele>
        <time>2016-09-04T08:49:13Z</time>
      </trkpt>
      <trkpt lat="47.38751" lon="-0.65831">
        <ele>52.53</ele>
        <time>2016-09-04T08:49:14Z</time>
      </trkpt>
      <trkpt lat="47.38752" lon="-0.65831">
        <ele>52.53</ele>
        <time>2016-09-04T08:49:15Z</time>
      </trkpt>
      <trkpt lat="47.38753" lon="-0.65831">
        <ele>52.53</ele>
        <time>2016-09-04T08:49:16Z</time>
      </trkpt>
      <trkpt lat="47.38754" lon="-0.65832">
        <ele>53.01</ele>
        <time>2016-09-04T08:49:17Z</time>
      </trkpt>
      <trkpt lat="47.38778" lon="-0.65835">
        <ele>55.89</ele>
        <time>2016-09-04T08:49:35Z</time>
      </trkpt>
      <trkpt lat="47.38796" lon="-0.65836">
        <ele>58.3</ele>
        <time>2016-09-04T08:49:51Z</time>
      </trkpt>
      <trkpt lat="47.38815" lon="-0.65837">
        <ele>61.18</ele>
        <time>2016-09-04T08:50:06Z</time>
      </trkpt>
      <trkpt lat="47.38825" lon="-0.65837">
        <ele>62.14</ele>
        <time>2016-09-04T08:50:14Z</time>
      </trkpt>
      <trkpt lat="47.38827" lon="-0.65838">
        <ele>62.14</ele>
        <time>2016-09-04T08:50:15Z</time>
      </trkpt>
      <trkpt lat="47.38828" lon="-0.65838">
        <ele>62.62</ele>
        <time>2016-09-04T08:50:16Z</time>
      </trkpt>
      <trkpt lat="47.38854" lon="-0.65843">
        <ele>64.55</ele>
        <time>2016-09-04T08:50:34Z</time>
      </trkpt>
      <trkpt lat="47.38888" lon="-0.65852">
        <ele>65.99</ele>
        <time>2016-09-04T08:50:49Z</time>
      </trkpt>
      <trkpt lat="47.38932" lon="-0.65864">
        <ele>67.43</ele>
        <time>2016-09-04T08:51:04Z</time>
      </trkpt>
      <trkpt lat="47.38975" lon="-0.65861">
        <ele>69.35</ele>
        <time>2016-09-04T08:51:19Z</time>
      </trkpt>
      <trkpt lat="47.38996" lon="-0.65834">
        <ele>68.87</ele>
        <time>2016-09-04T08:51:31Z</time>
      </trkpt>
      <trkpt lat="47.39" lon="-0.6583">
        <ele>68.39</ele>
        <time>2016-09-04T08:51:44Z</time>
      </trkpt>
      <trkpt lat="47.39001" lon="-0.65829">
        <ele>68.39</ele>
        <time>2016-09-04T08:52:11Z</time>
      </trkpt>
      <trkpt lat="47.39002" lon="-0.65827">
        <ele>68.87</ele>
        <time>2016-09-04T08:52:12Z</time>
      </trkpt>
      <trkpt lat="47.39009" lon="-0.65815">
        <ele>68.87</ele>
        <time>2016-09-04T08:52:17Z</time>
      </trkpt>
      <trkpt lat="47.39031" lon="-0.65761">
        <ele>68.39</ele>
        <time>2016-09-04T08:52:31Z</time>
      </trkpt>
      <trkpt lat="47.3904" lon="-0.65734">
        <ele>67.91</ele>
        <time>2016-09-04T08:52:36Z</time>
      </trkpt>
      <trkpt lat="47.39053" lon="-0.65692">
        <ele>66.95</ele>
        <time>2016-09-04T08:52:43Z</time>
      </trkpt>
      <trkpt lat="47.39054" lon="-0.65685">
        <ele>66.95</ele>
        <time>2016-09-04T08:52:44Z</time>
      </trkpt>
      <trkpt lat="47.39055" lon="-0.65677">
        <ele>66.95</ele>
        <time>2016-09-04T08:52:45Z</time>
      </trkpt>
      <trkpt lat="47.39089" lon="-0.65566">
        <ele>65.03</ele>
        <time>2016-09-04T08:53:00Z</time>
      </trkpt>
      <trkpt lat="47.3913" lon="-0.65458">
        <ele>66.47</ele>
        <time>2016-09-04T08:53:15Z</time>
      </trkpt>
      <trkpt lat="47.39182" lon="-0.65355">
        <ele>62.62</ele>
        <time>2016-09-04T08:53:28Z</time>
      </trkpt>
      <trkpt lat="47.39226" lon="-0.65296">
        <ele>60.22</ele>
        <time>2016-09-04T08:53:36Z</time>
      </trkpt>
      <trkpt lat="47.3929" lon="-0.65249">
        <ele>57.82</ele>
        <time>2016-09-04T08:53:46Z</time>
      </trkpt>
      <trkpt lat="47.39297" lon="-0.65247">
        <ele>57.82</ele>
        <time>2016-09-04T08:53:47Z</time>
      </trkpt>
      <trkpt lat="47.39347" lon="-0.65243">
        <ele>58.3</ele>
        <time>2016-09-04T08:53:56Z</time>
      </trkpt>
      <trkpt lat="47.39352" lon="-0.6524">
        <ele>58.3</ele>
        <time>2016-09-04T08:53:57Z</time>
      </trkpt>
      <trkpt lat="47.39417" lon="-0.65188">
        <ele>54.45</ele>
        <time>2016-09-04T08:54:09Z</time>
      </trkpt>
      <trkpt lat="47.3944" lon="-0.65161">
        <ele>53.01</ele>
        <time>2016-09-04T08:54:15Z</time>
      </trkpt>
      <trkpt lat="47.39462" lon="-0.65156">
        <ele>50.13</ele>
        <time>2016-09-04T08:54:21Z</time>
      </trkpt>
      <trkpt lat="47.39469" lon="-0.65156">
        <ele>50.13</ele>
        <time>2016-09-04T08:54:22Z</time>
      </trkpt>
      <trkpt lat="47.39474" lon="-0.65156">
        <ele>49.65</ele>
        <time>2016-09-04T08:54:23Z</time>
      </trkpt>
      <trkpt lat="47.39478" lon="-0.65157">
        <ele>49.65</ele>
        <time>2016-09-04T08:54:24Z</time>
      </trkpt>
      <trkpt lat="47.39489" lon="-0.65159">
        <ele>50.13</ele>
        <time>2016-09-04T08:54:28Z</time>
      </trkpt>
      <trkpt lat="47.39489" lon="-0.65157">
        <ele>50.13</ele>
        <time>2016-09-04T08:54:29Z</time>
      </trkpt>
      <trkpt lat="47.3949" lon="-0.65154">
        <ele>49.65</ele>
        <time>2016-09-04T08:54:30Z</time>
      </trkpt>
      <trkpt lat="47.3949" lon="-0.65152">
        <ele>50.13</ele>
        <time>2016-09-04T08:54:31Z</time>
      </trkpt>
      <trkpt lat="47.3949" lon="-0.65149">
        <ele>49.65</ele>
        <time>2016-09-04T08:54:32Z</time>
      </trkpt>
      <trkpt lat="47.39498" lon="-0.65141">
        <ele>50.13</ele>
        <time>2016-09-04T08:54:41Z</time>
      </trkpt>
      <trkpt lat="47.395" lon="-0.6514">
        <ele>50.13</ele>
        <time>2016-09-04T08:54:42Z</time>
      </trkpt>
      <trkpt lat="47.39515" lon="-0.65127">
        <ele>52.05</ele>
        <time>2016-09-04T08:54:54Z</time>
      </trkpt>
      <trkpt lat="47.39539" lon="-0.65106">
        <ele>54.93</ele>
        <time>2016-09-04T08:55:09Z</time>
      </trkpt>
      <trkpt lat="47.39541" lon="-0.651">
        <ele>55.41</ele>
        <time>2016-09-04T08:55:18Z</time>
      </trkpt>
      <trkpt lat="47.39535" lon="-0.6509">
        <ele>57.34</ele>
        <time>2016-09-04T08:55:27Z</time>
      </trkpt>
      <trkpt lat="47.3953" lon="-0.6509">
        <ele>58.3</ele>
        <time>2016-09-04T08:55:32Z</time>
      </trkpt>
      <trkpt lat="47.3952" lon="-0.65078">
        <ele>61.18</ele>
        <time>2016-09-04T08:55:44Z</time>
      </trkpt>
      <trkpt lat="47.3951" lon="-0.65076">
        <ele>62.14</ele>
        <time>2016-09-04T08:55:58Z</time>
      </trkpt>
      <trkpt lat="47.39508" lon="-0.65077">
        <ele>61.66</ele>
        <time>2016-09-04T08:56:21Z</time>
      </trkpt>
      <trkpt lat="47.39502" lon="-0.65087">
        <ele>61.66</ele>
        <time>2016-09-04T08:56:33Z</time>
      </trkpt>
      <trkpt lat="47.39496" lon="-0.65087">
        <ele>58.3</ele>
        <time>2016-09-04T08:56:41Z</time>
      </trkpt>
      <trkpt lat="47.39492" lon="-0.65091">
        <ele>55.89</ele>
        <time>2016-09-04T08:56:54Z</time>
      </trkpt>
      <trkpt lat="47.39491" lon="-0.6509">
        <ele>54.93</ele>
        <time>2016-09-04T08:56:56Z</time>
      </trkpt>
      <trkpt lat="47.39489" lon="-0.65091">
        <ele>54.45</ele>
        <time>2016-09-04T08:57:08Z</time>
      </trkpt>
      <trkpt lat="47.39484" lon="-0.65103">
        <ele>51.09</ele>
        <time>2016-09-04T08:57:20Z</time>
      </trkpt>
      <trkpt lat="47.39483" lon="-0.65106">
        <ele>50.13</ele>
        <time>2016-09-04T08:57:21Z</time>
      </trkpt>
      <trkpt lat="47.39481" lon="-0.65109">
        <ele>48.68</ele>
        <time>2016-09-04T08:57:23Z</time>
      </trkpt>
      <trkpt lat="47.3948" lon="-0.65109">
        <ele>48.2</ele>
        <time>2016-09-04T08:57:35Z</time>
      </trkpt>
      <trkpt lat="47.39479" lon="-0.65112">
        <ele>48.2</ele>
        <time>2016-09-04T08:57:59Z</time>
      </trkpt>
      <trkpt lat="47.39478" lon="-0.65106">
        <ele>48.2</ele>
        <time>2016-09-04T08:58:14Z</time>
      </trkpt>
      <trkpt lat="47.3946" lon="-0.65076">
        <ele>47.24</ele>
        <time>2016-09-04T08:58:27Z</time>
      </trkpt>
      <trkpt lat="47.39448" lon="-0.65052">
        <ele>47.24</ele>
        <time>2016-09-04T08:58:32Z</time>
      </trkpt>
      <trkpt lat="47.39444" lon="-0.65048">
        <ele>47.24</ele>
        <time>2016-09-04T08:58:33Z</time>
      </trkpt>
      <trkpt lat="47.39436" lon="-0.65039">
        <ele>47.24</ele>
        <time>2016-09-04T08:58:35Z</time>
      </trkpt>
      <trkpt lat="47.39433" lon="-0.65033">
        <ele>46.76</ele>
        <time>2016-09-04T08:58:36Z</time>
      </trkpt>
      <trkpt lat="47.39429" lon="-0.65027">
        <ele>46.76</ele>
        <time>2016-09-04T08:58:37Z</time>
      </trkpt>
      <trkpt lat="47.39426" lon="-0.65021">
        <ele>46.76</ele>
        <time>2016-09-04T08:58:38Z</time>
      </trkpt>
      <trkpt lat="47.39423" lon="-0.65014">
        <ele>46.28</ele>
        <time>2016-09-04T08:58:39Z</time>
      </trkpt>
      <trkpt lat="47.3942" lon="-0.65008">
        <ele>45.8</ele>
        <time>2016-09-04T08:58:40Z</time>
      </trkpt>
      <trkpt lat="47.39417" lon="-0.65002">
        <ele>45.8</ele>
        <time>2016-09-04T08:58:41Z</time>
      </trkpt>
      <trkpt lat="47.39412" lon="-0.64997">
        <ele>45.32</ele>
        <time>2016-09-04T08:58:42Z</time>
      </trkpt>
      <trkpt lat="47.39407" lon="-0.64995">
        <ele>45.32</ele>
        <time>2016-09-04T08:58:43Z</time>
      </trkpt>
      <trkpt lat="47.39396" lon="-0.64991">
        <ele>44.36</ele>
        <time>2016-09-04T08:58:45Z</time>
      </trkpt>
      <trkpt lat="47.39377" lon="-0.64991">
        <ele>44.36</ele>
        <time>2016-09-04T08:58:48Z</time>
      </trkpt>
      <trkpt lat="47.39365" lon="-0.65002">
        <ele>43.88</ele>
        <time>2016-09-04T08:58:51Z</time>
      </trkpt>
      <trkpt lat="47.39362" lon="-0.65005">
        <ele>44.36</ele>
        <time>2016-09-04T08:58:52Z</time>
      </trkpt>
      <trkpt lat="47.39358" lon="-0.65008">
        <ele>43.88</ele>
        <time>2016-09-04T08:58:53Z</time>
      </trkpt>
      <trkpt lat="47.39315" lon="-0.65035">
        <ele>42.92</ele>
        <time>2016-09-04T08:59:02Z</time>
      </trkpt>
      <trkpt lat="47.39311" lon="-0.65037">
        <ele>42.92</ele>
        <time>2016-09-04T08:59:03Z</time>
      </trkpt>
      <trkpt lat="47.39306" lon="-0.65039">
        <ele>42.92</ele>
        <time>2016-09-04T08:59:04Z</time>
      </trkpt>
      <trkpt lat="47.393" lon="-0.65039">
        <ele>41.95</ele>
        <time>2016-09-04T08:59:05Z</time>
      </trkpt>
      <trkpt lat="47.39295" lon="-0.65039">
        <ele>41.47</ele>
        <time>2016-09-04T08:59:06Z</time>
      </trkpt>
      <trkpt lat="47.3929" lon="-0.65038">
        <ele>41.95</ele>
        <time>2016-09-04T08:59:07Z</time>
      </trkpt>
      <trkpt lat="47.39285" lon="-0.65036">
        <ele>41.95</ele>
        <time>2016-09-04T08:59:08Z</time>
      </trkpt>
      <trkpt lat="47.3928" lon="-0.65034">
        <ele>41.47</ele>
        <time>2016-09-04T08:59:09Z</time>
      </trkpt>
      <trkpt lat="47.39276" lon="-0.65032">
        <ele>41.95</ele>
        <time>2016-09-04T08:59:10Z</time>
      </trkpt>
      <trkpt lat="47.39271" lon="-0.65027">
        <ele>40.99</ele>
        <time>2016-09-04T08:59:11Z</time>
      </trkpt>
      <trkpt lat="47.39266" lon="-0.65021">
        <ele>40.99</ele>
        <time>2016-09-04T08:59:12Z</time>
      </trkpt>
      <trkpt lat="47.3926" lon="-0.65016">
        <ele>40.99</ele>
        <time>2016-09-04T08:59:13Z</time>
      </trkpt>
      <trkpt lat="47.39255" lon="-0.6501">
        <ele>40.99</ele>
        <time>2016-09-04T08:59:14Z</time>
      </trkpt>
      <trkpt lat="47.39251" lon="-0.65003">
        <ele>40.51</ele>
        <time>2016-09-04T08:59:15Z</time>
      </trkpt>
      <trkpt lat="47.39247" lon="-0.64994">
        <ele>40.51</ele>
        <time>2016-09-04T08:59:16Z</time>
      </trkpt>
      <trkpt lat="47.39243" lon="-0.64986">
        <ele>40.51</ele>
        <time>2016-09-04T08:59:17Z</time>
      </trkpt>
      <trkpt lat="47.39239" lon="-0.64977">
        <ele>40.51</ele>
        <time>2016-09-04T08:59:18Z</time>
      </trkpt>
      <trkpt lat="47.39236" lon="-0.64968">
        <ele>40.99</ele>
        <time>2016-09-04T08:59:19Z</time>
      </trkpt>
      <trkpt lat="47.39208" lon="-0.64893">
        <ele>39.07</ele>
        <time>2016-09-04T08:59:27Z</time>
      </trkpt>
      <trkpt lat="47.39194" lon="-0.64872">
        <ele>37.63</ele>
        <time>2016-09-04T08:59:30Z</time>
      </trkpt>
      <trkpt lat="47.39184" lon="-0.64861">
        <ele>37.15</ele>
        <time>2016-09-04T08:59:32Z</time>
      </trkpt>
      <trkpt lat="47.39179" lon="-0.64858">
        <ele>36.19</ele>
        <time>2016-09-04T08:59:33Z</time>
      </trkpt>
      <trkpt lat="47.39174" lon="-0.64856">
        <ele>36.19</ele>
        <time>2016-09-04T08:59:34Z</time>
      </trkpt>
      <trkpt lat="47.39168" lon="-0.64856">
        <ele>35.71</ele>
        <time>2016-09-04T08:59:35Z</time>
      </trkpt>
      <trkpt lat="47.39161" lon="-0.64856">
        <ele>35.71</ele>
        <time>2016-09-04T08:59:36Z</time>
      </trkpt>
      <trkpt lat="47.39154" lon="-0.64858">
        <ele>35.71</ele>
        <time>2016-09-04T08:59:37Z</time>
      </trkpt>
      <trkpt lat="47.39127" lon="-0.64864">
        <ele>35.23</ele>
        <time>2016-09-04T08:59:41Z</time>
      </trkpt>
      <trkpt lat="47.39088" lon="-0.64859">
        <ele>34.74</ele>
        <time>2016-09-04T08:59:46Z</time>
      </trkpt>
      <trkpt lat="47.39081" lon="-0.64856">
        <ele>34.74</ele>
        <time>2016-09-04T08:59:47Z</time>
      </trkpt>
      <trkpt lat="47.39074" lon="-0.64851">
        <ele>34.74</ele>
        <time>2016-09-04T08:59:48Z</time>
      </trkpt>
      <trkpt lat="47.39018" lon="-0.6481">
        <ele>32.34</ele>
        <time>2016-09-04T08:59:59Z</time>
      </trkpt>
      <trkpt lat="47.39014" lon="-0.64808">
        <ele>32.34</ele>
        <time>2016-09-04T09:00:00Z</time>
      </trkpt>
      <trkpt lat="47.3901" lon="-0.64804">
        <ele>32.34</ele>
        <time>2016-09-04T09:00:01Z</time>
      </trkpt>
      <trkpt lat="47.39006" lon="-0.64799">
        <ele>32.34</ele>
        <time>2016-09-04T09:00:02Z</time>
      </trkpt>
      <trkpt lat="47.38984" lon="-0.64779">
        <ele>31.38</ele>
        <time>2016-09-04T09:00:06Z</time>
      </trkpt>
      <trkpt lat="47.38979" lon="-0.64773">
        <ele>31.38</ele>
        <time>2016-09-04T09:00:07Z</time>
      </trkpt>
      <trkpt lat="47.38973" lon="-0.64769">
        <ele>30.9</ele>
        <time>2016-09-04T09:00:08Z</time>
      </trkpt>
      <trkpt lat="47.38968" lon="-0.64769">
        <ele>30.9</ele>
        <time>2016-09-04T09:00:09Z</time>
      </trkpt>
      <trkpt lat="47.38962" lon="-0.64771">
        <ele>30.9</ele>
        <time>2016-09-04T09:00:10Z</time>
      </trkpt>
      <trkpt lat="47.38956" lon="-0.64773">
        <ele>30.9</ele>
        <time>2016-09-04T09:00:11Z</time>
      </trkpt>
      <trkpt lat="47.38951" lon="-0.64776">
        <ele>30.9</ele>
        <time>2016-09-04T09:00:12Z</time>
      </trkpt>
      <trkpt lat="47.38944" lon="-0.64776">
        <ele>30.9</ele>
        <time>2016-09-04T09:00:13Z</time>
      </trkpt>
      <trkpt lat="47.38938" lon="-0.64775">
        <ele>30.42</ele>
        <time>2016-09-04T09:00:14Z</time>
      </trkpt>
      <trkpt lat="47.38913" lon="-0.64762">
        <ele>29.94</ele>
        <time>2016-09-04T09:00:18Z</time>
      </trkpt>
      <trkpt lat="47.38907" lon="-0.64756">
        <ele>29.94</ele>
        <time>2016-09-04T09:00:19Z</time>
      </trkpt>
      <trkpt lat="47.38903" lon="-0.64749">
        <ele>29.94</ele>
        <time>2016-09-04T09:00:20Z</time>
      </trkpt>
      <trkpt lat="47.389" lon="-0.64741">
        <ele>29.46</ele>
        <time>2016-09-04T09:00:21Z</time>
      </trkpt>
      <trkpt lat="47.38898" lon="-0.64733">
        <ele>29.46</ele>
        <time>2016-09-04T09:00:22Z</time>
      </trkpt>
      <trkpt lat="47.38895" lon="-0.64726">
        <ele>29.46</ele>
        <time>2016-09-04T09:00:23Z</time>
      </trkpt>
      <trkpt lat="47.38892" lon="-0.64721">
        <ele>29.94</ele>
        <time>2016-09-04T09:00:24Z</time>
      </trkpt>
      <trkpt lat="47.38888" lon="-0.64718">
        <ele>29.94</ele>
        <time>2016-09-04T09:00:25Z</time>
      </trkpt>
      <trkpt lat="47.38884" lon="-0.64716">
        <ele>29.94</ele>
        <time>2016-09-04T09:00:26Z</time>
      </trkpt>
      <trkpt lat="47.3888" lon="-0.64714">
        <ele>29.46</ele>
        <time>2016-09-04T09:00:27Z</time>
      </trkpt>
      <trkpt lat="47.38877" lon="-0.64712">
        <ele>29.46</ele>
        <time>2016-09-04T09:00:28Z</time>
      </trkpt>
      <trkpt lat="47.38831" lon="-0.64681">
        <ele>29.46</ele>
        <time>2016-09-04T09:00:38Z</time>
      </trkpt>
      <trkpt lat="47.38826" lon="-0.64677">
        <ele>29.46</ele>
        <time>2016-09-04T09:00:39Z</time>
      </trkpt>
      <trkpt lat="47.38821" lon="-0.64674">
        <ele>28.98</ele>
        <time>2016-09-04T09:00:40Z</time>
      </trkpt>
      <trkpt lat="47.38816" lon="-0.64671">
        <ele>29.46</ele>
        <time>2016-09-04T09:00:41Z</time>
      </trkpt>
      <trkpt lat="47.38811" lon="-0.64667">
        <ele>29.46</ele>
        <time>2016-09-04T09:00:42Z</time>
      </trkpt>
      <trkpt lat="47.38806" lon="-0.64663">
        <ele>29.46</ele>
        <time>2016-09-04T09:00:43Z</time>
      </trkpt>
      <trkpt lat="47.38745" lon="-0.64601">
        <ele>29.46</ele>
        <time>2016-09-04T09:00:55Z</time>
      </trkpt>
      <trkpt lat="47.3874" lon="-0.6459">
        <ele>29.94</ele>
        <time>2016-09-04T09:00:57Z</time>
      </trkpt>
      <trkpt lat="47.38738" lon="-0.64585">
        <ele>29.94</ele>
        <time>2016-09-04T09:00:58Z</time>
      </trkpt>
      <trkpt lat="47.38736" lon="-0.64576">
        <ele>30.42</ele>
        <time>2016-09-04T09:01:00Z</time>
      </trkpt>
      <trkpt lat="47.38734" lon="-0.64575">
        <ele>30.9</ele>
        <time>2016-09-04T09:01:01Z</time>
      </trkpt>
      <trkpt lat="47.38731" lon="-0.64573">
        <ele>30.9</ele>
        <time>2016-09-04T09:01:02Z</time>
      </trkpt>
      <trkpt lat="47.38718" lon="-0.64563">
        <ele>32.34</ele>
        <time>2016-09-04T09:01:07Z</time>
      </trkpt>
      <trkpt lat="47.38717" lon="-0.6456">
        <ele>32.82</ele>
        <time>2016-09-04T09:01:08Z</time>
      </trkpt>
      <trkpt lat="47.38719" lon="-0.64558">
        <ele>33.3</ele>
        <time>2016-09-04T09:01:09Z</time>
      </trkpt>
      <trkpt lat="47.38721" lon="-0.64557">
        <ele>33.3</ele>
        <time>2016-09-04T09:01:10Z</time>
      </trkpt>
      <trkpt lat="47.38723" lon="-0.64556">
        <ele>33.3</ele>
        <time>2016-09-04T09:01:11Z</time>
      </trkpt>
      <trkpt lat="47.38725" lon="-0.64556">
        <ele>33.78</ele>
        <time>2016-09-04T09:01:12Z</time>
      </trkpt>
      <trkpt lat="47.38742" lon="-0.64554">
        <ele>37.15</ele>
        <time>2016-09-04T09:01:20Z</time>
      </trkpt>
      <trkpt lat="47.38763" lon="-0.64549">
        <ele>40.03</ele>
        <time>2016-09-04T09:01:32Z</time>
      </trkpt>
      <trkpt lat="47.38765" lon="-0.64548">
        <ele>40.51</ele>
        <time>2016-09-04T09:01:33Z</time>
      </trkpt>
      <trkpt lat="47.38785" lon="-0.64538">
        <ele>43.4</ele>
        <time>2016-09-04T09:01:47Z</time>
      </trkpt>
      <trkpt lat="47.38788" lon="-0.64537">
        <ele>43.4</ele>
        <time>2016-09-04T09:01:50Z</time>
      </trkpt>
      <trkpt lat="47.38789" lon="-0.64536">
        <ele>43.88</ele>
        <time>2016-09-04T09:01:51Z</time>
      </trkpt>
      <trkpt lat="47.3879" lon="-0.64535">
        <ele>44.36</ele>
        <time>2016-09-04T09:01:52Z</time>
      </trkpt>
      <trkpt lat="47.38791" lon="-0.64534">
        <ele>43.88</ele>
        <time>2016-09-04T09:01:53Z</time>
      </trkpt>
      <trkpt lat="47.38792" lon="-0.64534">
        <ele>44.84</ele>
        <time>2016-09-04T09:01:54Z</time>
      </trkpt>
      <trkpt lat="47.38794" lon="-0.64533">
        <ele>44.36</ele>
        <time>2016-09-04T09:01:55Z</time>
      </trkpt>
      <trkpt lat="47.38795" lon="-0.64533">
        <ele>44.84</ele>
        <time>2016-09-04T09:01:56Z</time>
      </trkpt>
      <trkpt lat="47.38796" lon="-0.64532">
        <ele>44.84</ele>
        <time>2016-09-04T09:01:57Z</time>
      </trkpt>
      <trkpt lat="47.38798" lon="-0.6453">
        <ele>45.32</ele>
        <time>2016-09-04T09:01:59Z</time>
      </trkpt>
      <trkpt lat="47.38799" lon="-0.6453">
        <ele>45.32</ele>
        <time>2016-09-04T09:02:00Z</time>
      </trkpt>
      <trkpt lat="47.388" lon="-0.64529">
        <ele>46.28</ele>
        <time>2016-09-04T09:02:01Z</time>
      </trkpt>
      <trkpt lat="47.38802" lon="-0.64528">
        <ele>46.28</ele>
        <time>2016-09-04T09:02:03Z</time>
      </trkpt>
      <trkpt lat="47.38803" lon="-0.64527">
        <ele>46.76</ele>
        <time>2016-09-04T09:02:04Z</time>
      </trkpt>
      <trkpt lat="47.38805" lon="-0.64527">
        <ele>46.76</ele>
        <time>2016-09-04T09:02:06Z</time>
      </trkpt>
      <trkpt lat="47.38807" lon="-0.64527">
        <ele>46.76</ele>
        <time>2016-09-04T09:02:07Z</time>
      </trkpt>
      <trkpt lat="47.38808" lon="-0.64527">
        <ele>46.76</ele>
        <time>2016-09-04T09:02:08Z</time>
      </trkpt>
      <trkpt lat="47.3881" lon="-0.64526">
        <ele>47.24</ele>
        <time>2016-09-04T09:02:09Z</time>
      </trkpt>
      <trkpt lat="47.38811" lon="-0.64525">
        <ele>47.72</ele>
        <time>2016-09-04T09:02:10Z</time>
      </trkpt>
      <trkpt lat="47.38812" lon="-0.64525">
        <ele>47.24</ele>
        <time>2016-09-04T09:02:11Z</time>
      </trkpt>
      <trkpt lat="47.38813" lon="-0.64525">
        <ele>47.72</ele>
        <time>2016-09-04T09:02:12Z</time>
      </trkpt>
      <trkpt lat="47.38817" lon="-0.64524">
        <ele>48.2</ele>
        <time>2016-09-04T09:02:16Z</time>
      </trkpt>
      <trkpt lat="47.38821" lon="-0.64522">
        <ele>48.68</ele>
        <time>2016-09-04T09:02:19Z</time>
      </trkpt>
      <trkpt lat="47.38822" lon="-0.64521">
        <ele>49.16</ele>
        <time>2016-09-04T09:02:20Z</time>
      </trkpt>
      <trkpt lat="47.38844" lon="-0.64515">
        <ele>51.57</ele>
        <time>2016-09-04T09:02:37Z</time>
      </trkpt>
      <trkpt lat="47.38856" lon="-0.64511">
        <ele>52.53</ele>
        <time>2016-09-04T09:02:46Z</time>
      </trkpt>
      <trkpt lat="47.38857" lon="-0.6451">
        <ele>53.01</ele>
        <time>2016-09-04T09:02:47Z</time>
      </trkpt>
      <trkpt lat="47.38859" lon="-0.6451">
        <ele>53.01</ele>
        <time>2016-09-04T09:02:48Z</time>
      </trkpt>
      <trkpt lat="47.3886" lon="-0.64509">
        <ele>53.01</ele>
        <time>2016-09-04T09:02:49Z</time>
      </trkpt>
      <trkpt lat="47.38862" lon="-0.64509">
        <ele>53.97</ele>
        <time>2016-09-04T09:02:50Z</time>
      </trkpt>
      <trkpt lat="47.38864" lon="-0.64508">
        <ele>53.49</ele>
        <time>2016-09-04T09:02:51Z</time>
      </trkpt>
      <trkpt lat="47.38865" lon="-0.64507">
        <ele>53.97</ele>
        <time>2016-09-04T09:02:52Z</time>
      </trkpt>
      <trkpt lat="47.38867" lon="-0.64506">
        <ele>53.97</ele>
        <time>2016-09-04T09:02:53Z</time>
      </trkpt>
      <trkpt lat="47.38868" lon="-0.64505">
        <ele>53.97</ele>
        <time>2016-09-04T09:02:54Z</time>
      </trkpt>
      <trkpt lat="47.3887" lon="-0.64504">
        <ele>53.97</ele>
        <time>2016-09-04T09:02:55Z</time>
      </trkpt>
      <trkpt lat="47.38871" lon="-0.64503">
        <ele>54.45</ele>
        <time>2016-09-04T09:02:56Z</time>
      </trkpt>
      <trkpt lat="47.38873" lon="-0.64502">
        <ele>54.93</ele>
        <time>2016-09-04T09:02:57Z</time>
      </trkpt>
      <trkpt lat="47.38874" lon="-0.64502">
        <ele>54.93</ele>
        <time>2016-09-04T09:02:58Z</time>
      </trkpt>
      <trkpt lat="47.38876" lon="-0.64501">
        <ele>54.45</ele>
        <time>2016-09-04T09:02:59Z</time>
      </trkpt>
      <trkpt lat="47.38893" lon="-0.64493">
        <ele>57.34</ele>
        <time>2016-09-04T09:03:13Z</time>
      </trkpt>
      <trkpt lat="47.38912" lon="-0.64485">
        <ele>59.26</ele>
        <time>2016-09-04T09:03:28Z</time>
      </trkpt>
      <trkpt lat="47.3893" lon="-0.64481">
        <ele>61.66</ele>
        <time>2016-09-04T09:03:42Z</time>
      </trkpt>
      <trkpt lat="47.38952" lon="-0.64468">
        <ele>63.1</ele>
        <time>2016-09-04T09:03:55Z</time>
      </trkpt>
      <trkpt lat="47.38971" lon="-0.64441">
        <ele>65.03</ele>
        <time>2016-09-04T09:04:09Z</time>
      </trkpt>
      <trkpt lat="47.38995" lon="-0.64398">
        <ele>64.07</ele>
        <time>2016-09-04T09:04:21Z</time>
      </trkpt>
      <trkpt lat="47.39041" lon="-0.64338">
        <ele>65.03</ele>
        <time>2016-09-04T09:04:39Z</time>
      </trkpt>
      <trkpt lat="47.39044" lon="-0.64315">
        <ele>65.99</ele>
        <time>2016-09-04T09:04:49Z</time>
      </trkpt>
      <trkpt lat="47.39019" lon="-0.64273">
        <ele>62.62</ele>
        <time>2016-09-04T09:05:00Z</time>
      </trkpt>
      <trkpt lat="47.39016" lon="-0.64269">
        <ele>62.62</ele>
        <time>2016-09-04T09:05:01Z</time>
      </trkpt>
      <trkpt lat="47.38984" lon="-0.64241">
        <ele>62.14</ele>
        <time>2016-09-04T09:05:09Z</time>
      </trkpt>
      <trkpt lat="47.38971" lon="-0.64226">
        <ele>62.14</ele>
        <time>2016-09-04T09:05:12Z</time>
      </trkpt>
      <trkpt lat="47.38967" lon="-0.6422">
        <ele>61.66</ele>
        <time>2016-09-04T09:05:13Z</time>
      </trkpt>
      <trkpt lat="47.38962" lon="-0.64213">
        <ele>61.66</ele>
        <time>2016-09-04T09:05:14Z</time>
      </trkpt>
      <trkpt lat="47.38916" lon="-0.6414">
        <ele>58.3</ele>
        <time>2016-09-04T09:05:24Z</time>
      </trkpt>
      <trkpt lat="47.38909" lon="-0.64127">
        <ele>57.34</ele>
        <time>2016-09-04T09:05:26Z</time>
      </trkpt>
      <trkpt lat="47.38882" lon="-0.64076">
        <ele>54.93</ele>
        <time>2016-09-04T09:05:35Z</time>
      </trkpt>
      <trkpt lat="47.3888" lon="-0.64071">
        <ele>54.45</ele>
        <time>2016-09-04T09:05:36Z</time>
      </trkpt>
      <trkpt lat="47.38878" lon="-0.64066">
        <ele>53.97</ele>
        <time>2016-09-04T09:05:37Z</time>
      </trkpt>
      <trkpt lat="47.38866" lon="-0.64043">
        <ele>52.53</ele>
        <time>2016-09-04T09:05:42Z</time>
      </trkpt>
      <trkpt lat="47.38862" lon="-0.64042">
        <ele>52.05</ele>
        <time>2016-09-04T09:05:43Z</time>
      </trkpt>
      <trkpt lat="47.38859" lon="-0.64044">
        <ele>52.05</ele>
        <time>2016-09-04T09:05:44Z</time>
      </trkpt>
      <trkpt lat="47.38855" lon="-0.64047">
        <ele>51.57</ele>
        <time>2016-09-04T09:05:45Z</time>
      </trkpt>
      <trkpt lat="47.38851" lon="-0.6405">
        <ele>51.57</ele>
        <time>2016-09-04T09:05:46Z</time>
      </trkpt>
      <trkpt lat="47.38829" lon="-0.64073">
        <ele>48.68</ele>
        <time>2016-09-04T09:05:56Z</time>
      </trkpt>
      <trkpt lat="47.3882" lon="-0.64086">
        <ele>45.32</ele>
        <time>2016-09-04T09:06:01Z</time>
      </trkpt>
      <trkpt lat="47.38812" lon="-0.64098">
        <ele>41.95</ele>
        <time>2016-09-04T09:06:05Z</time>
      </trkpt>
      <trkpt lat="47.38805" lon="-0.64112">
        <ele>38.11</ele>
        <time>2016-09-04T09:06:09Z</time>
      </trkpt>
      <trkpt lat="47.38801" lon="-0.64116">
        <ele>37.15</ele>
        <time>2016-09-04T09:06:11Z</time>
      </trkpt>
      <trkpt lat="47.38791" lon="-0.64119">
        <ele>33.3</ele>
        <time>2016-09-04T09:06:15Z</time>
      </trkpt>
      <trkpt lat="47.38788" lon="-0.64121">
        <ele>32.82</ele>
        <time>2016-09-04T09:06:17Z</time>
      </trkpt>
      <trkpt lat="47.38786" lon="-0.64123">
        <ele>32.34</ele>
        <time>2016-09-04T09:06:18Z</time>
      </trkpt>
      <trkpt lat="47.38784" lon="-0.64128">
        <ele>30.42</ele>
        <time>2016-09-04T09:06:20Z</time>
      </trkpt>
      <trkpt lat="47.38783" lon="-0.6413">
        <ele>30.42</ele>
        <time>2016-09-04T09:06:21Z</time>
      </trkpt>
      <trkpt lat="47.38781" lon="-0.64132">
        <ele>29.94</ele>
        <time>2016-09-04T09:06:22Z</time>
      </trkpt>
      <trkpt lat="47.38779" lon="-0.64135">
        <ele>29.46</ele>
        <time>2016-09-04T09:06:23Z</time>
      </trkpt>
      <trkpt lat="47.38776" lon="-0.64137">
        <ele>28.98</ele>
        <time>2016-09-04T09:06:24Z</time>
      </trkpt>
      <trkpt lat="47.38769" lon="-0.64146">
        <ele>26.57</ele>
        <time>2016-09-04T09:06:27Z</time>
      </trkpt>
      <trkpt lat="47.38768" lon="-0.64148">
        <ele>26.57</ele>
        <time>2016-09-04T09:06:28Z</time>
      </trkpt>
      <trkpt lat="47.38764" lon="-0.64147">
        <ele>26.57</ele>
        <time>2016-09-04T09:06:41Z</time>
      </trkpt>
      <trkpt lat="47.38765" lon="-0.6415">
        <ele>27.05</ele>
        <time>2016-09-04T09:07:08Z</time>
      </trkpt>
      <trkpt lat="47.38766" lon="-0.64148">
        <ele>26.09</ele>
        <time>2016-09-04T09:07:31Z</time>
      </trkpt>
      <trkpt lat="47.38768" lon="-0.6415">
        <ele>27.05</ele>
        <time>2016-09-04T09:07:55Z</time>
      </trkpt>
      <trkpt lat="47.38767" lon="-0.64151">
        <ele>26.57</ele>
        <time>2016-09-04T09:08:18Z</time>
      </trkpt>
      <trkpt lat="47.38766" lon="-0.64152">
        <ele>27.05</ele>
        <time>2016-09-04T09:08:39Z</time>
      </trkpt>
      <trkpt lat="47.38767" lon="-0.64153">
        <ele>27.05</ele>
        <time>2016-09-04T09:09:03Z</time>
      </trkpt>
      <trkpt lat="47.38763" lon="-0.64156">
        <ele>27.05</ele>
        <time>2016-09-04T09:09:22Z</time>
      </trkpt>
      <trkpt lat="47.38765" lon="-0.64153">
        <ele>26.09</ele>
        <time>2016-09-04T09:09:49Z</time>
      </trkpt>
      <trkpt lat="47.38767" lon="-0.64152">
        <ele>27.05</ele>
        <time>2016-09-04T09:10:20Z</time>
      </trkpt>
      <trkpt lat="47.3876" lon="-0.64163">
        <ele>27.53</ele>
        <time>2016-09-04T09:10:52Z</time>
      </trkpt>
      <trkpt lat="47.38761" lon="-0.64164">
        <ele>27.53</ele>
        <time>2016-09-04T09:11:28Z</time>
      </trkpt>
      <trkpt lat="47.38764" lon="-0.64161">
        <ele>28.5</ele>
        <time>2016-09-04T09:12:04Z</time>
      </trkpt>
      <trkpt lat="47.38761" lon="-0.64162">
        <ele>28.5</ele>
        <time>2016-09-04T09:12:32Z</time>
      </trkpt>
      <trkpt lat="47.38759" lon="-0.64166">
        <ele>28.5</ele>
        <time>2016-09-04T09:13:09Z</time>
      </trkpt>
      <trkpt lat="47.38759" lon="-0.64166">
        <ele>28.02</ele>
        <time>2016-09-04T09:13:23Z</time>
      </trkpt>
      <trkpt lat="47.38759" lon="-0.64167">
        <ele>28.5</ele>
        <time>2016-09-04T09:13:25Z</time>
      </trkpt>
      <trkpt lat="47.38757" lon="-0.64168">
        <ele>28.02</ele>
        <time>2016-09-04T09:13:26Z</time>
      </trkpt>
      <trkpt lat="47.38756" lon="-0.64168">
        <ele>28.02</ele>
        <time>2016-09-04T09:13:27Z</time>
      </trkpt>
      <trkpt lat="47.38754" lon="-0.64168">
        <ele>27.53</ele>
        <time>2016-09-04T09:13:28Z</time>
      </trkpt>
      <trkpt lat="47.38751" lon="-0.64167">
        <ele>27.53</ele>
        <time>2016-09-04T09:13:29Z</time>
      </trkpt>
      <trkpt lat="47.38747" lon="-0.64167">
        <ele>27.05</ele>
        <time>2016-09-04T09:13:30Z</time>
      </trkpt>
      <trkpt lat="47.38744" lon="-0.64167">
        <ele>27.05</ele>
        <time>2016-09-04T09:13:31Z</time>
      </trkpt>
      <trkpt lat="47.38741" lon="-0.64167">
        <ele>27.05</ele>
        <time>2016-09-04T09:13:32Z</time>
      </trkpt>
      <trkpt lat="47.38739" lon="-0.64166">
        <ele>26.57</ele>
        <time>2016-09-04T09:13:33Z</time>
      </trkpt>
      <trkpt lat="47.38738" lon="-0.64163">
        <ele>26.09</ele>
        <time>2016-09-04T09:13:34Z</time>
      </trkpt>
      <trkpt lat="47.38737" lon="-0.6416">
        <ele>26.09</ele>
        <time>2016-09-04T09:13:35Z</time>
      </trkpt>
      <trkpt lat="47.38735" lon="-0.64157">
        <ele>26.09</ele>
        <time>2016-09-04T09:13:36Z</time>
      </trkpt>
      <trkpt lat="47.38733" lon="-0.64153">
        <ele>25.61</ele>
        <time>2016-09-04T09:13:37Z</time>
      </trkpt>
      <trkpt lat="47.38731" lon="-0.6415">
        <ele>25.61</ele>
        <time>2016-09-04T09:13:38Z</time>
      </trkpt>
      <trkpt lat="47.38728" lon="-0.64147">
        <ele>25.61</ele>
        <time>2016-09-04T09:13:39Z</time>
      </trkpt>
      <trkpt lat="47.38716" lon="-0.64135">
        <ele>24.65</ele>
        <time>2016-09-04T09:13:45Z</time>
      </trkpt>
      <trkpt lat="47.38715" lon="-0.64137">
        <ele>25.13</ele>
        <time>2016-09-04T09:13:46Z</time>
      </trkpt>
      <trkpt lat="47.38714" lon="-0.64139">
        <ele>25.13</ele>
        <time>2016-09-04T09:13:47Z</time>
      </trkpt>
      <trkpt lat="47.38699" lon="-0.64176">
        <ele>27.53</ele>
        <time>2016-09-04T09:13:56Z</time>
      </trkpt>
      <trkpt lat="47.38672" lon="-0.64231">
        <ele>28.98</ele>
        <time>2016-09-04T09:14:10Z</time>
      </trkpt>
      <trkpt lat="47.38639" lon="-0.64297">
        <ele>28.02</ele>
        <time>2016-09-04T09:14:24Z</time>
      </trkpt>
      <trkpt lat="47.38633" lon="-0.64307">
        <ele>28.5</ele>
        <time>2016-09-04T09:14:26Z</time>
      </trkpt>
      <trkpt lat="47.38626" lon="-0.64317">
        <ele>28.98</ele>
        <time>2016-09-04T09:14:28Z</time>
      </trkpt>
      <trkpt lat="47.38622" lon="-0.64322">
        <ele>28.98</ele>
        <time>2016-09-04T09:14:29Z</time>
      </trkpt>
      <trkpt lat="47.38605" lon="-0.64339">
        <ele>28.5</ele>
        <time>2016-09-04T09:14:33Z</time>
      </trkpt>
      <trkpt lat="47.38601" lon="-0.64343">
        <ele>28.5</ele>
        <time>2016-09-04T09:14:34Z</time>
      </trkpt>
      <trkpt lat="47.38598" lon="-0.64349">
        <ele>28.5</ele>
        <time>2016-09-04T09:14:35Z</time>
      </trkpt>
      <trkpt lat="47.38584" lon="-0.64378">
        <ele>28.5</ele>
        <time>2016-09-04T09:14:40Z</time>
      </trkpt>
      <trkpt lat="47.38582" lon="-0.64384">
        <ele>28.5</ele>
        <time>2016-09-04T09:14:41Z</time>
      </trkpt>
      <trkpt lat="47.38581" lon="-0.64391">
        <ele>28.5</ele>
        <time>2016-09-04T09:14:42Z</time>
      </trkpt>
      <trkpt lat="47.3858" lon="-0.64398">
        <ele>28.5</ele>
        <time>2016-09-04T09:14:43Z</time>
      </trkpt>
      <trkpt lat="47.38579" lon="-0.64404">
        <ele>28.98</ele>
        <time>2016-09-04T09:14:44Z</time>
      </trkpt>
      <trkpt lat="47.38567" lon="-0.64449">
        <ele>28.02</ele>
        <time>2016-09-04T09:14:54Z</time>
      </trkpt>
      <trkpt lat="47.38566" lon="-0.64455">
        <ele>28.5</ele>
        <time>2016-09-04T09:15:05Z</time>
      </trkpt>
      <trkpt lat="47.38561" lon="-0.64456">
        <ele>28.5</ele>
        <time>2016-09-04T09:15:36Z</time>
      </trkpt>
      <trkpt lat="47.38561" lon="-0.64457">
        <ele>28.5</ele>
        <time>2016-09-04T09:15:54Z</time>
      </trkpt>
      <trkpt lat="47.38561" lon="-0.64456">
        <ele>28.02</ele>
        <time>2016-09-04T09:16:16Z</time>
      </trkpt>
      <trkpt lat="47.38561" lon="-0.64455">
        <ele>28.02</ele>
        <time>2016-09-04T09:16:48Z</time>
      </trkpt>
      <trkpt lat="47.38561" lon="-0.64453">
        <ele>28.02</ele>
        <time>2016-09-04T09:16:49Z</time>
      </trkpt>
      <trkpt lat="47.38575" lon="-0.64428">
        <ele>28.02</ele>
        <time>2016-09-04T09:16:58Z</time>
      </trkpt>
      <trkpt lat="47.38578" lon="-0.64416">
        <ele>28.5</ele>
        <time>2016-09-04T09:17:00Z</time>
      </trkpt>
      <trkpt lat="47.38578" lon="-0.6441">
        <ele>28.02</ele>
        <time>2016-09-04T09:17:01Z</time>
      </trkpt>
      <trkpt lat="47.3858" lon="-0.64396">
        <ele>28.02</ele>
        <time>2016-09-04T09:17:03Z</time>
      </trkpt>
      <trkpt lat="47.38581" lon="-0.6439">
        <ele>28.02</ele>
        <time>2016-09-04T09:17:04Z</time>
      </trkpt>
      <trkpt lat="47.3859" lon="-0.64363">
        <ele>28.02</ele>
        <time>2016-09-04T09:17:08Z</time>
      </trkpt>
      <trkpt lat="47.38595" lon="-0.64351">
        <ele>28.5</ele>
        <time>2016-09-04T09:17:10Z</time>
      </trkpt>
      <trkpt lat="47.38598" lon="-0.64345">
        <ele>28.02</ele>
        <time>2016-09-04T09:17:11Z</time>
      </trkpt>
      <trkpt lat="47.38602" lon="-0.6434">
        <ele>27.53</ele>
        <time>2016-09-04T09:17:12Z</time>
      </trkpt>
      <trkpt lat="47.38606" lon="-0.64336">
        <ele>27.53</ele>
        <time>2016-09-04T09:17:13Z</time>
      </trkpt>
      <trkpt lat="47.38611" lon="-0.64332">
        <ele>27.53</ele>
        <time>2016-09-04T09:17:14Z</time>
      </trkpt>
      <trkpt lat="47.38624" lon="-0.64317">
        <ele>28.02</ele>
        <time>2016-09-04T09:17:17Z</time>
      </trkpt>
      <trkpt lat="47.38638" lon="-0.64292">
        <ele>28.02</ele>
        <time>2016-09-04T09:17:21Z</time>
      </trkpt>
      <trkpt lat="47.38686" lon="-0.64194">
        <ele>28.5</ele>
        <time>2016-09-04T09:17:35Z</time>
      </trkpt>
      <trkpt lat="47.38709" lon="-0.64141">
        <ele>26.09</ele>
        <time>2016-09-04T09:17:42Z</time>
      </trkpt>
      <trkpt lat="47.38713" lon="-0.64137">
        <ele>26.09</ele>
        <time>2016-09-04T09:17:43Z</time>
      </trkpt>
      <trkpt lat="47.38717" lon="-0.64137">
        <ele>25.61</ele>
        <time>2016-09-04T09:17:44Z</time>
      </trkpt>
      <trkpt lat="47.3872" lon="-0.6414">
        <ele>25.13</ele>
        <time>2016-09-04T09:17:45Z</time>
      </trkpt>
      <trkpt lat="47.38724" lon="-0.64142">
        <ele>24.65</ele>
        <time>2016-09-04T09:17:46Z</time>
      </trkpt>
      <trkpt lat="47.3873" lon="-0.64149">
        <ele>25.13</ele>
        <time>2016-09-04T09:17:48Z</time>
      </trkpt>
      <trkpt lat="47.38733" lon="-0.64153">
        <ele>25.61</ele>
        <time>2016-09-04T09:17:49Z</time>
      </trkpt>
      <trkpt lat="47.38736" lon="-0.64156">
        <ele>25.61</ele>
        <time>2016-09-04T09:17:50Z</time>
      </trkpt>
      <trkpt lat="47.38738" lon="-0.64159">
        <ele>26.09</ele>
        <time>2016-09-04T09:17:51Z</time>
      </trkpt>
      <trkpt lat="47.38737" lon="-0.64161">
        <ele>27.05</ele>
        <time>2016-09-04T09:17:52Z</time>
      </trkpt>
      <trkpt lat="47.38736" lon="-0.64161">
        <ele>26.57</ele>
        <time>2016-09-04T09:17:53Z</time>
      </trkpt>
      <trkpt lat="47.38735" lon="-0.64158">
        <ele>26.09</ele>
        <time>2016-09-04T09:17:54Z</time>
      </trkpt>
      <trkpt lat="47.38734" lon="-0.64154">
        <ele>26.09</ele>
        <time>2016-09-04T09:17:55Z</time>
      </trkpt>
      <trkpt lat="47.38732" lon="-0.6415">
        <ele>25.61</ele>
        <time>2016-09-04T09:17:56Z</time>
      </trkpt>
      <trkpt lat="47.38729" lon="-0.64145">
        <ele>25.61</ele>
        <time>2016-09-04T09:17:57Z</time>
      </trkpt>
      <trkpt lat="47.38723" lon="-0.64137">
        <ele>25.61</ele>
        <time>2016-09-04T09:17:59Z</time>
      </trkpt>
      <trkpt lat="47.3872" lon="-0.64131">
        <ele>25.61</ele>
        <time>2016-09-04T09:18:00Z</time>
      </trkpt>
      <trkpt lat="47.38718" lon="-0.64126">
        <ele>25.13</ele>
        <time>2016-09-04T09:18:01Z</time>
      </trkpt>
      <trkpt lat="47.38717" lon="-0.6412">
        <ele>25.13</ele>
        <time>2016-09-04T09:18:02Z</time>
      </trkpt>
      <trkpt lat="47.38717" lon="-0.64113">
        <ele>25.61</ele>
        <time>2016-09-04T09:18:03Z</time>
      </trkpt>
      <trkpt lat="47.38718" lon="-0.64108">
        <ele>26.09</ele>
        <time>2016-09-04T09:18:04Z</time>
      </trkpt>
      <trkpt lat="47.3872" lon="-0.64103">
        <ele>25.61</ele>
        <time>2016-09-04T09:18:05Z</time>
      </trkpt>
      <trkpt lat="47.38722" lon="-0.64098">
        <ele>26.09</ele>
        <time>2016-09-04T09:18:06Z</time>
      </trkpt>
      <trkpt lat="47.38725" lon="-0.64092">
        <ele>25.61</ele>
        <time>2016-09-04T09:18:07Z</time>
      </trkpt>
      <trkpt lat="47.38727" lon="-0.64086">
        <ele>26.09</ele>
        <time>2016-09-04T09:18:08Z</time>
      </trkpt>
      <trkpt lat="47.38758" lon="-0.64025">
        <ele>26.09</ele>
        <time>2016-09-04T09:18:17Z</time>
      </trkpt>
      <trkpt lat="47.38819" lon="-0.63947">
        <ele>27.05</ele>
        <time>2016-09-04T09:18:31Z</time>
      </trkpt>
      <trkpt lat="47.38824" lon="-0.63941">
        <ele>26.57</ele>
        <time>2016-09-04T09:18:32Z</time>
      </trkpt>
      <trkpt lat="47.38828" lon="-0.63934">
        <ele>26.57</ele>
        <time>2016-09-04T09:18:33Z</time>
      </trkpt>
      <trkpt lat="47.38897" lon="-0.63817">
        <ele>26.57</ele>
        <time>2016-09-04T09:18:51Z</time>
      </trkpt>
      <trkpt lat="47.38961" lon="-0.63714">
        <ele>26.57</ele>
        <time>2016-09-04T09:19:07Z</time>
      </trkpt>
      <trkpt lat="47.39051" lon="-0.63578">
        <ele>27.53</ele>
        <time>2016-09-04T09:19:28Z</time>
      </trkpt>
      <trkpt lat="47.3912" lon="-0.63464">
        <ele>25.61</ele>
        <time>2016-09-04T09:19:45Z</time>
      </trkpt>
      <trkpt lat="47.39124" lon="-0.63447">
        <ele>25.61</ele>
        <time>2016-09-04T09:19:47Z</time>
      </trkpt>
      <trkpt lat="47.3913" lon="-0.63423">
        <ele>25.61</ele>
        <time>2016-09-04T09:19:50Z</time>
      </trkpt>
      <trkpt lat="47.39143" lon="-0.63388">
        <ele>25.61</ele>
        <time>2016-09-04T09:19:55Z</time>
      </trkpt>
      <trkpt lat="47.39147" lon="-0.63381">
        <ele>25.13</ele>
        <time>2016-09-04T09:19:56Z</time>
      </trkpt>
      <trkpt lat="47.39206" lon="-0.63285">
        <ele>25.61</ele>
        <time>2016-09-04T09:20:11Z</time>
      </trkpt>
      <trkpt lat="47.39214" lon="-0.63271">
        <ele>25.61</ele>
        <time>2016-09-04T09:20:13Z</time>
      </trkpt>
      <trkpt lat="47.39218" lon="-0.63266">
        <ele>26.09</ele>
        <time>2016-09-04T09:20:14Z</time>
      </trkpt>
      <trkpt lat="47.39268" lon="-0.63221">
        <ele>26.57</ele>
        <time>2016-09-04T09:20:24Z</time>
      </trkpt>
      <trkpt lat="47.39273" lon="-0.63215">
        <ele>26.57</ele>
        <time>2016-09-04T09:20:25Z</time>
      </trkpt>
      <trkpt lat="47.39309" lon="-0.63167">
        <ele>25.61</ele>
        <time>2016-09-04T09:20:33Z</time>
      </trkpt>
      <trkpt lat="47.39361" lon="-0.63122">
        <ele>26.09</ele>
        <time>2016-09-04T09:20:43Z</time>
      </trkpt>
      <trkpt lat="47.39411" lon="-0.63081">
        <ele>26.09</ele>
        <time>2016-09-04T09:20:52Z</time>
      </trkpt>
      <trkpt lat="47.39476" lon="-0.63031">
        <ele>26.09</ele>
        <time>2016-09-04T09:21:05Z</time>
      </trkpt>
      <trkpt lat="47.39485" lon="-0.63023">
        <ele>26.57</ele>
        <time>2016-09-04T09:21:07Z</time>
      </trkpt>
      <trkpt lat="47.39489" lon="-0.63019">
        <ele>26.57</ele>
        <time>2016-09-04T09:21:08Z</time>
      </trkpt>
      <trkpt lat="47.39493" lon="-0.63015">
        <ele>26.57</ele>
        <time>2016-09-04T09:21:09Z</time>
      </trkpt>
      <trkpt lat="47.39537" lon="-0.6296">
        <ele>25.61</ele>
        <time>2016-09-04T09:21:22Z</time>
      </trkpt>
      <trkpt lat="47.39539" lon="-0.62958">
        <ele>25.61</ele>
        <time>2016-09-04T09:21:23Z</time>
      </trkpt>
      <trkpt lat="47.39541" lon="-0.62956">
        <ele>25.61</ele>
        <time>2016-09-04T09:21:24Z</time>
      </trkpt>
      <trkpt lat="47.39542" lon="-0.62954">
        <ele>25.61</ele>
        <time>2016-09-04T09:21:25Z</time>
      </trkpt>
      <trkpt lat="47.39543" lon="-0.62953">
        <ele>25.61</ele>
        <time>2016-09-04T09:21:26Z</time>
      </trkpt>
      <trkpt lat="47.39548" lon="-0.62954">
        <ele>25.61</ele>
        <time>2016-09-04T09:21:39Z</time>
      </trkpt>
      <trkpt lat="47.39549" lon="-0.62955">
        <ele>25.13</ele>
        <time>2016-09-04T09:21:40Z</time>
      </trkpt>
      <trkpt lat="47.39551" lon="-0.62957">
        <ele>25.61</ele>
        <time>2016-09-04T09:21:42Z</time>
      </trkpt>
      <trkpt lat="47.39552" lon="-0.62959">
        <ele>25.61</ele>
        <time>2016-09-04T09:21:43Z</time>
      </trkpt>
      <trkpt lat="47.39553" lon="-0.6296">
        <ele>25.61</ele>
        <time>2016-09-04T09:21:44Z</time>
      </trkpt>
      <trkpt lat="47.39554" lon="-0.62962">
        <ele>25.61</ele>
        <time>2016-09-04T09:21:45Z</time>
      </trkpt>
      <trkpt lat="47.39555" lon="-0.62964">
        <ele>25.61</ele>
        <time>2016-09-04T09:21:46Z</time>
      </trkpt>
      <trkpt lat="47.39575" lon="-0.63001">
        <ele>28.02</ele>
        <time>2016-09-04T09:21:58Z</time>
      </trkpt>
      <trkpt lat="47.39592" lon="-0.6302">
        <ele>30.9</ele>
        <time>2016-09-04T09:22:08Z</time>
      </trkpt>
      <trkpt lat="47.3961" lon="-0.63043">
        <ele>34.26</ele>
        <time>2016-09-04T09:22:22Z</time>
      </trkpt>
      <trkpt lat="47.39621" lon="-0.6306">
        <ele>37.15</ele>
        <time>2016-09-04T09:22:32Z</time>
      </trkpt>
      <trkpt lat="47.39622" lon="-0.63064">
        <ele>37.63</ele>
        <time>2016-09-04T09:22:34Z</time>
      </trkpt>
      <trkpt lat="47.39627" lon="-0.63073">
        <ele>39.55</ele>
        <time>2016-09-04T09:22:41Z</time>
      </trkpt>
      <trkpt lat="47.39635" lon="-0.63091">
        <ele>42.44</ele>
        <time>2016-09-04T09:22:52Z</time>
      </trkpt>
      <trkpt lat="47.39638" lon="-0.63113">
        <ele>45.8</ele>
        <time>2016-09-04T09:23:07Z</time>
      </trkpt>
      <trkpt lat="47.39645" lon="-0.63134">
        <ele>49.16</ele>
        <time>2016-09-04T09:23:22Z</time>
      </trkpt>
      <trkpt lat="47.39649" lon="-0.63147">
        <ele>51.57</ele>
        <time>2016-09-04T09:23:33Z</time>
      </trkpt>
      <trkpt lat="47.39662" lon="-0.63169">
        <ele>53.97</ele>
        <time>2016-09-04T09:23:50Z</time>
      </trkpt>
      <trkpt lat="47.39672" lon="-0.63178">
        <ele>55.41</ele>
        <time>2016-09-04T09:24:00Z</time>
      </trkpt>
      <trkpt lat="47.39674" lon="-0.63179">
        <ele>55.89</ele>
        <time>2016-09-04T09:24:01Z</time>
      </trkpt>
      <trkpt lat="47.39692" lon="-0.63194">
        <ele>55.89</ele>
        <time>2016-09-04T09:24:18Z</time>
      </trkpt>
      <trkpt lat="47.39722" lon="-0.63222">
        <ele>54.93</ele>
        <time>2016-09-04T09:24:31Z</time>
      </trkpt>
      <trkpt lat="47.39756" lon="-0.63227">
        <ele>55.41</ele>
        <time>2016-09-04T09:24:44Z</time>
      </trkpt>
      <trkpt lat="47.39798" lon="-0.63226">
        <ele>54.93</ele>
        <time>2016-09-04T09:24:57Z</time>
      </trkpt>
      <trkpt lat="47.39802" lon="-0.63223">
        <ele>55.41</ele>
        <time>2016-09-04T09:24:58Z</time>
      </trkpt>
      <trkpt lat="47.3981" lon="-0.63218">
        <ele>54.93</ele>
        <time>2016-09-04T09:25:00Z</time>
      </trkpt>
      <trkpt lat="47.39813" lon="-0.63216">
        <ele>54.93</ele>
        <time>2016-09-04T09:25:01Z</time>
      </trkpt>
      <trkpt lat="47.3989" lon="-0.63182">
        <ele>54.45</ele>
        <time>2016-09-04T09:25:18Z</time>
      </trkpt>
      <trkpt lat="47.39963" lon="-0.63183">
        <ele>55.41</ele>
        <time>2016-09-04T09:25:34Z</time>
      </trkpt>
      <trkpt lat="47.39977" lon="-0.63181">
        <ele>56.37</ele>
        <time>2016-09-04T09:25:37Z</time>
      </trkpt>
      <trkpt lat="47.39981" lon="-0.63179">
        <ele>56.86</ele>
        <time>2016-09-04T09:25:38Z</time>
      </trkpt>
      <trkpt lat="47.39985" lon="-0.63176">
        <ele>57.34</ele>
        <time>2016-09-04T09:25:39Z</time>
      </trkpt>
      <trkpt lat="47.39989" lon="-0.63173">
        <ele>57.34</ele>
        <time>2016-09-04T09:25:40Z</time>
      </trkpt>
      <trkpt lat="47.39992" lon="-0.63169">
        <ele>57.82</ele>
        <time>2016-09-04T09:25:41Z</time>
      </trkpt>
      <trkpt lat="47.39995" lon="-0.63165">
        <ele>57.82</ele>
        <time>2016-09-04T09:25:42Z</time>
      </trkpt>
      <trkpt lat="47.39997" lon="-0.63161">
        <ele>58.78</ele>
        <time>2016-09-04T09:25:43Z</time>
      </trkpt>
      <trkpt lat="47.4" lon="-0.63157">
        <ele>58.3</ele>
        <time>2016-09-04T09:25:44Z</time>
      </trkpt>
      <trkpt lat="47.40002" lon="-0.63152">
        <ele>58.78</ele>
        <time>2016-09-04T09:25:45Z</time>
      </trkpt>
      <trkpt lat="47.40044" lon="-0.63049">
        <ele>59.74</ele>
        <time>2016-09-04T09:26:03Z</time>
      </trkpt>
      <trkpt lat="47.40084" lon="-0.62966">
        <ele>60.7</ele>
        <time>2016-09-04T09:26:17Z</time>
      </trkpt>
      <trkpt lat="47.40143" lon="-0.62887">
        <ele>62.14</ele>
        <time>2016-09-04T09:26:34Z</time>
      </trkpt>
      <trkpt lat="47.40196" lon="-0.6281">
        <ele>64.55</ele>
        <time>2016-09-04T09:26:51Z</time>
      </trkpt>
      <trkpt lat="47.40246" lon="-0.62732">
        <ele>64.07</ele>
        <time>2016-09-04T09:27:07Z</time>
      </trkpt>
      <trkpt lat="47.40312" lon="-0.62635">
        <ele>61.66</ele>
        <time>2016-09-04T09:27:22Z</time>
      </trkpt>
      <trkpt lat="47.40326" lon="-0.62612">
        <ele>60.7</ele>
        <time>2016-09-04T09:27:25Z</time>
      </trkpt>
      <trkpt lat="47.40362" lon="-0.6255">
        <ele>57.34</ele>
        <time>2016-09-04T09:27:32Z</time>
      </trkpt>
      <trkpt lat="47.40368" lon="-0.62538">
        <ele>57.34</ele>
        <time>2016-09-04T09:27:33Z</time>
      </trkpt>
      <trkpt lat="47.40387" lon="-0.62497">
        <ele>53.49</ele>
        <time>2016-09-04T09:27:36Z</time>
      </trkpt>
      <trkpt lat="47.40395" lon="-0.62482">
        <ele>52.05</ele>
        <time>2016-09-04T09:27:37Z</time>
      </trkpt>
      <trkpt lat="47.40404" lon="-0.62469">
        <ele>50.61</ele>
        <time>2016-09-04T09:27:38Z</time>
      </trkpt>
      <trkpt lat="47.40414" lon="-0.62456">
        <ele>49.16</ele>
        <time>2016-09-04T09:27:39Z</time>
      </trkpt>
      <trkpt lat="47.4045" lon="-0.62423">
        <ele>45.8</ele>
        <time>2016-09-04T09:27:42Z</time>
      </trkpt>
      <trkpt lat="47.40486" lon="-0.6239">
        <ele>42.44</ele>
        <time>2016-09-04T09:27:45Z</time>
      </trkpt>
      <trkpt lat="47.40507" lon="-0.6237">
        <ele>38.59</ele>
        <time>2016-09-04T09:27:47Z</time>
      </trkpt>
      <trkpt lat="47.40515" lon="-0.6236">
        <ele>37.63</ele>
        <time>2016-09-04T09:27:48Z</time>
      </trkpt>
      <trkpt lat="47.40521" lon="-0.62349">
        <ele>36.67</ele>
        <time>2016-09-04T09:27:49Z</time>
      </trkpt>
      <trkpt lat="47.40525" lon="-0.62338">
        <ele>35.23</ele>
        <time>2016-09-04T09:27:50Z</time>
      </trkpt>
      <trkpt lat="47.40527" lon="-0.62328">
        <ele>34.74</ele>
        <time>2016-09-04T09:27:51Z</time>
      </trkpt>
      <trkpt lat="47.4053" lon="-0.62317">
        <ele>33.78</ele>
        <time>2016-09-04T09:27:52Z</time>
      </trkpt>
      <trkpt lat="47.40534" lon="-0.62307">
        <ele>33.3</ele>
        <time>2016-09-04T09:27:53Z</time>
      </trkpt>
      <trkpt lat="47.4054" lon="-0.62299">
        <ele>33.78</ele>
        <time>2016-09-04T09:27:54Z</time>
      </trkpt>
      <trkpt lat="47.40548" lon="-0.62293">
        <ele>32.82</ele>
        <time>2016-09-04T09:27:55Z</time>
      </trkpt>
      <trkpt lat="47.40556" lon="-0.62289">
        <ele>32.34</ele>
        <time>2016-09-04T09:27:56Z</time>
      </trkpt>
      <trkpt lat="47.40565" lon="-0.62286">
        <ele>31.86</ele>
        <time>2016-09-04T09:27:57Z</time>
      </trkpt>
      <trkpt lat="47.40573" lon="-0.62284">
        <ele>30.42</ele>
        <time>2016-09-04T09:27:58Z</time>
      </trkpt>
      <trkpt lat="47.4058" lon="-0.62282">
        <ele>30.42</ele>
        <time>2016-09-04T09:27:59Z</time>
      </trkpt>
      <trkpt lat="47.40587" lon="-0.62279">
        <ele>28.98</ele>
        <time>2016-09-04T09:28:00Z</time>
      </trkpt>
      <trkpt lat="47.40593" lon="-0.62276">
        <ele>28.98</ele>
        <time>2016-09-04T09:28:01Z</time>
      </trkpt>
      <trkpt lat="47.40597" lon="-0.62273">
        <ele>28.5</ele>
        <time>2016-09-04T09:28:02Z</time>
      </trkpt>
      <trkpt lat="47.40602" lon="-0.62271">
        <ele>28.98</ele>
        <time>2016-09-04T09:28:03Z</time>
      </trkpt>
      <trkpt lat="47.40607" lon="-0.62272">
        <ele>27.53</ele>
        <time>2016-09-04T09:28:04Z</time>
      </trkpt>
      <trkpt lat="47.40611" lon="-0.62272">
        <ele>26.57</ele>
        <time>2016-09-04T09:28:05Z</time>
      </trkpt>
      <trkpt lat="47.40615" lon="-0.62268">
        <ele>26.09</ele>
        <time>2016-09-04T09:28:06Z</time>
      </trkpt>
      <trkpt lat="47.40616" lon="-0.62262">
        <ele>26.09</ele>
        <time>2016-09-04T09:28:07Z</time>
      </trkpt>
      <trkpt lat="47.40616" lon="-0.62255">
        <ele>26.09</ele>
        <time>2016-09-04T09:28:08Z</time>
      </trkpt>
      <trkpt lat="47.40616" lon="-0.62247">
        <ele>25.61</ele>
        <time>2016-09-04T09:28:09Z</time>
      </trkpt>
      <trkpt lat="47.40617" lon="-0.62239">
        <ele>26.09</ele>
        <time>2016-09-04T09:28:10Z</time>
      </trkpt>
      <trkpt lat="47.40617" lon="-0.62231">
        <ele>26.57</ele>
        <time>2016-09-04T09:28:11Z</time>
      </trkpt>
      <trkpt lat="47.40622" lon="-0.62168">
        <ele>26.09</ele>
        <time>2016-09-04T09:28:18Z</time>
      </trkpt>
      <trkpt lat="47.40622" lon="-0.62159">
        <ele>26.09</ele>
        <time>2016-09-04T09:28:19Z</time>
      </trkpt>
      <trkpt lat="47.40617" lon="-0.62116">
        <ele>25.13</ele>
        <time>2016-09-04T09:28:24Z</time>
      </trkpt>
      <trkpt lat="47.40617" lon="-0.62108">
        <ele>24.65</ele>
        <time>2016-09-04T09:28:25Z</time>
      </trkpt>
      <trkpt lat="47.40619" lon="-0.62099">
        <ele>24.65</ele>
        <time>2016-09-04T09:28:26Z</time>
      </trkpt>
      <trkpt lat="47.40621" lon="-0.6209">
        <ele>23.69</ele>
        <time>2016-09-04T09:28:27Z</time>
      </trkpt>
      <trkpt lat="47.40624" lon="-0.62081">
        <ele>23.21</ele>
        <time>2016-09-04T09:28:28Z</time>
      </trkpt>
      <trkpt lat="47.40627" lon="-0.62072">
        <ele>23.21</ele>
        <time>2016-09-04T09:28:29Z</time>
      </trkpt>
      <trkpt lat="47.40633" lon="-0.62064">
        <ele>23.21</ele>
        <time>2016-09-04T09:28:30Z</time>
      </trkpt>
      <trkpt lat="47.40638" lon="-0.62057">
        <ele>22.25</ele>
        <time>2016-09-04T09:28:31Z</time>
      </trkpt>
      <trkpt lat="47.40643" lon="-0.6205">
        <ele>21.77</ele>
        <time>2016-09-04T09:28:32Z</time>
      </trkpt>
      <trkpt lat="47.40691" lon="-0.61988">
        <ele>22.73</ele>
        <time>2016-09-04T09:28:43Z</time>
      </trkpt>
      <trkpt lat="47.40695" lon="-0.61983">
        <ele>22.73</ele>
        <time>2016-09-04T09:28:44Z</time>
      </trkpt>
      <trkpt lat="47.40699" lon="-0.61976">
        <ele>22.73</ele>
        <time>2016-09-04T09:28:45Z</time>
      </trkpt>
      <trkpt lat="47.40702" lon="-0.61969">
        <ele>22.73</ele>
        <time>2016-09-04T09:28:46Z</time>
      </trkpt>
      <trkpt lat="47.40705" lon="-0.61962">
        <ele>22.25</ele>
        <time>2016-09-04T09:28:47Z</time>
      </trkpt>
      <trkpt lat="47.4071" lon="-0.61956">
        <ele>22.73</ele>
        <time>2016-09-04T09:28:48Z</time>
      </trkpt>
      <trkpt lat="47.40714" lon="-0.61951">
        <ele>22.73</ele>
        <time>2016-09-04T09:28:49Z</time>
      </trkpt>
      <trkpt lat="47.40767" lon="-0.61881">
        <ele>22.73</ele>
        <time>2016-09-04T09:29:01Z</time>
      </trkpt>
      <trkpt lat="47.40781" lon="-0.61864">
        <ele>22.73</ele>
        <time>2016-09-04T09:29:04Z</time>
      </trkpt>
      <trkpt lat="47.4079" lon="-0.61853">
        <ele>22.73</ele>
        <time>2016-09-04T09:29:06Z</time>
      </trkpt>
      <trkpt lat="47.408" lon="-0.61842">
        <ele>22.25</ele>
        <time>2016-09-04T09:29:08Z</time>
      </trkpt>
      <trkpt lat="47.40831" lon="-0.61818">
        <ele>22.25</ele>
        <time>2016-09-04T09:29:14Z</time>
      </trkpt>
      <trkpt lat="47.40835" lon="-0.61813">
        <ele>22.73</ele>
        <time>2016-09-04T09:29:15Z</time>
      </trkpt>
      <trkpt lat="47.40842" lon="-0.618">
        <ele>22.25</ele>
        <time>2016-09-04T09:29:17Z</time>
      </trkpt>
      <trkpt lat="47.40846" lon="-0.61794">
        <ele>22.25</ele>
        <time>2016-09-04T09:29:18Z</time>
      </trkpt>
      <trkpt lat="47.40855" lon="-0.61783">
        <ele>21.77</ele>
        <time>2016-09-04T09:29:20Z</time>
      </trkpt>
      <trkpt lat="47.40864" lon="-0.61772">
        <ele>21.29</ele>
        <time>2016-09-04T09:29:22Z</time>
      </trkpt>
      <trkpt lat="47.40875" lon="-0.61764">
        <ele>20.81</ele>
        <time>2016-09-04T09:29:24Z</time>
      </trkpt>
      <trkpt lat="47.40948" lon="-0.61743">
        <ele>22.25</ele>
        <time>2016-09-04T09:29:36Z</time>
      </trkpt>
      <trkpt lat="47.40958" lon="-0.61743">
        <ele>22.73</ele>
        <time>2016-09-04T09:29:38Z</time>
      </trkpt>
      <trkpt lat="47.40962" lon="-0.61742">
        <ele>23.21</ele>
        <time>2016-09-04T09:29:39Z</time>
      </trkpt>
      <trkpt lat="47.41025" lon="-0.61717">
        <ele>22.73</ele>
        <time>2016-09-04T09:29:52Z</time>
      </trkpt>
      <trkpt lat="47.41084" lon="-0.6172">
        <ele>24.17</ele>
        <time>2016-09-04T09:30:06Z</time>
      </trkpt>
      <trkpt lat="47.41132" lon="-0.61732">
        <ele>24.65</ele>
        <time>2016-09-04T09:30:18Z</time>
      </trkpt>
      <trkpt lat="47.41203" lon="-0.61769">
        <ele>25.61</ele>
        <time>2016-09-04T09:30:33Z</time>
      </trkpt>
      <trkpt lat="47.41207" lon="-0.61774">
        <ele>25.61</ele>
        <time>2016-09-04T09:30:34Z</time>
      </trkpt>
      <trkpt lat="47.41211" lon="-0.61778">
        <ele>25.61</ele>
        <time>2016-09-04T09:30:35Z</time>
      </trkpt>
      <trkpt lat="47.41239" lon="-0.6181">
        <ele>27.53</ele>
        <time>2016-09-04T09:30:45Z</time>
      </trkpt>
      <trkpt lat="47.41242" lon="-0.61807">
        <ele>27.05</ele>
        <time>2016-09-04T09:30:46Z</time>
      </trkpt>
      <trkpt lat="47.41245" lon="-0.61803">
        <ele>27.05</ele>
        <time>2016-09-04T09:30:47Z</time>
      </trkpt>
      <trkpt lat="47.41248" lon="-0.61799">
        <ele>27.53</ele>
        <time>2016-09-04T09:30:48Z</time>
      </trkpt>
      <trkpt lat="47.41251" lon="-0.61795">
        <ele>27.05</ele>
        <time>2016-09-04T09:30:49Z</time>
      </trkpt>
      <trkpt lat="47.4131" lon="-0.61717">
        <ele>27.05</ele>
        <time>2016-09-04T09:31:05Z</time>
      </trkpt>
      <trkpt lat="47.41389" lon="-0.61655">
        <ele>28.02</ele>
        <time>2016-09-04T09:31:22Z</time>
      </trkpt>
      <trkpt lat="47.41463" lon="-0.61632">
        <ele>29.46</ele>
        <time>2016-09-04T09:31:36Z</time>
      </trkpt>
      <trkpt lat="47.41496" lon="-0.61623">
        <ele>29.94</ele>
        <time>2016-09-04T09:31:42Z</time>
      </trkpt>
      <trkpt lat="47.41507" lon="-0.61618">
        <ele>28.98</ele>
        <time>2016-09-04T09:31:44Z</time>
      </trkpt>
      <trkpt lat="47.41513" lon="-0.61613">
        <ele>28.98</ele>
        <time>2016-09-04T09:31:45Z</time>
      </trkpt>
      <trkpt lat="47.41518" lon="-0.61608">
        <ele>28.98</ele>
        <time>2016-09-04T09:31:46Z</time>
      </trkpt>
      <trkpt lat="47.41524" lon="-0.61602">
        <ele>28.5</ele>
        <time>2016-09-04T09:31:47Z</time>
      </trkpt>
      <trkpt lat="47.41529" lon="-0.61595">
        <ele>28.02</ele>
        <time>2016-09-04T09:31:48Z</time>
      </trkpt>
      <trkpt lat="47.41575" lon="-0.61541">
        <ele>26.57</ele>
        <time>2016-09-04T09:31:59Z</time>
      </trkpt>
      <trkpt lat="47.41627" lon="-0.61502">
        <ele>27.05</ele>
        <time>2016-09-04T09:32:11Z</time>
      </trkpt>
      <trkpt lat="47.41703" lon="-0.61433">
        <ele>27.05</ele>
        <time>2016-09-04T09:32:25Z</time>
      </trkpt>
      <trkpt lat="47.41707" lon="-0.61425">
        <ele>27.05</ele>
        <time>2016-09-04T09:32:26Z</time>
      </trkpt>
      <trkpt lat="47.41775" lon="-0.61295">
        <ele>27.05</ele>
        <time>2016-09-04T09:32:42Z</time>
      </trkpt>
      <trkpt lat="47.41838" lon="-0.61232">
        <ele>27.05</ele>
        <time>2016-09-04T09:32:55Z</time>
      </trkpt>
      <trkpt lat="47.41863" lon="-0.61209">
        <ele>25.61</ele>
        <time>2016-09-04T09:33:06Z</time>
      </trkpt>
      <trkpt lat="47.419" lon="-0.61178">
        <ele>26.57</ele>
        <time>2016-09-04T09:33:14Z</time>
      </trkpt>
      <trkpt lat="47.41943" lon="-0.6114">
        <ele>26.09</ele>
        <time>2016-09-04T09:33:24Z</time>
      </trkpt>
      <trkpt lat="47.41976" lon="-0.61116">
        <ele>26.09</ele>
        <time>2016-09-04T09:33:36Z</time>
      </trkpt>
      <trkpt lat="47.42009" lon="-0.61086">
        <ele>26.09</ele>
        <time>2016-09-04T09:33:49Z</time>
      </trkpt>
      <trkpt lat="47.42018" lon="-0.61079">
        <ele>26.09</ele>
        <time>2016-09-04T09:34:00Z</time>
      </trkpt>
      <trkpt lat="47.42041" lon="-0.61062">
        <ele>26.09</ele>
        <time>2016-09-04T09:34:11Z</time>
      </trkpt>
      <trkpt lat="47.42069" lon="-0.61024">
        <ele>26.09</ele>
        <time>2016-09-04T09:34:23Z</time>
      </trkpt>
      <trkpt lat="47.42069" lon="-0.61019">
        <ele>26.09</ele>
        <time>2016-09-04T09:34:24Z</time>
      </trkpt>
      <trkpt lat="47.42067" lon="-0.61016">
        <ele>25.61</ele>
        <time>2016-09-04T09:34:25Z</time>
      </trkpt>
      <trkpt lat="47.42065" lon="-0.61014">
        <ele>25.61</ele>
        <time>2016-09-04T09:34:26Z</time>
      </trkpt>
      <trkpt lat="47.42064" lon="-0.6101">
        <ele>25.13</ele>
        <time>2016-09-04T09:34:27Z</time>
      </trkpt>
      <trkpt lat="47.42063" lon="-0.61006">
        <ele>24.65</ele>
        <time>2016-09-04T09:34:28Z</time>
      </trkpt>
      <trkpt lat="47.42047" lon="-0.60961">
        <ele>22.25</ele>
        <time>2016-09-04T09:34:38Z</time>
      </trkpt>
      <trkpt lat="47.42047" lon="-0.60954">
        <ele>21.77</ele>
        <time>2016-09-04T09:34:41Z</time>
      </trkpt>
      <trkpt lat="47.42047" lon="-0.60952">
        <ele>22.25</ele>
        <time>2016-09-04T09:34:42Z</time>
      </trkpt>
      <trkpt lat="47.42047" lon="-0.60948">
        <ele>22.25</ele>
        <time>2016-09-04T09:34:43Z</time>
      </trkpt>
      <trkpt lat="47.42046" lon="-0.60942">
        <ele>22.25</ele>
        <time>2016-09-04T09:34:44Z</time>
      </trkpt>
      <trkpt lat="47.42047" lon="-0.60937">
        <ele>22.25</ele>
        <time>2016-09-04T09:34:45Z</time>
      </trkpt>
      <trkpt lat="47.4205" lon="-0.60933">
        <ele>22.25</ele>
        <time>2016-09-04T09:34:46Z</time>
      </trkpt>
      <trkpt lat="47.42054" lon="-0.60931">
        <ele>22.25</ele>
        <time>2016-09-04T09:34:47Z</time>
      </trkpt>
      <trkpt lat="47.42058" lon="-0.60929">
        <ele>22.25</ele>
        <time>2016-09-04T09:34:48Z</time>
      </trkpt>
      <trkpt lat="47.42063" lon="-0.60928">
        <ele>21.77</ele>
        <time>2016-09-04T09:34:49Z</time>
      </trkpt>
      <trkpt lat="47.42068" lon="-0.60927">
        <ele>22.73</ele>
        <time>2016-09-04T09:34:50Z</time>
      </trkpt>
      <trkpt lat="47.42073" lon="-0.60927">
        <ele>22.25</ele>
        <time>2016-09-04T09:34:51Z</time>
      </trkpt>
      <trkpt lat="47.42078" lon="-0.60928">
        <ele>22.73</ele>
        <time>2016-09-04T09:34:52Z</time>
      </trkpt>
      <trkpt lat="47.42082" lon="-0.60929">
        <ele>22.73</ele>
        <time>2016-09-04T09:34:53Z</time>
      </trkpt>
      <trkpt lat="47.42086" lon="-0.60929">
        <ele>22.73</ele>
        <time>2016-09-04T09:34:54Z</time>
      </trkpt>
      <trkpt lat="47.42091" lon="-0.60929">
        <ele>23.21</ele>
        <time>2016-09-04T09:34:55Z</time>
      </trkpt>
      <trkpt lat="47.42096" lon="-0.60929">
        <ele>22.73</ele>
        <time>2016-09-04T09:34:56Z</time>
      </trkpt>
      <trkpt lat="47.42101" lon="-0.60927">
        <ele>23.21</ele>
        <time>2016-09-04T09:34:57Z</time>
      </trkpt>
      <trkpt lat="47.42105" lon="-0.60923">
        <ele>22.73</ele>
        <time>2016-09-04T09:34:58Z</time>
      </trkpt>
      <trkpt lat="47.42108" lon="-0.60919">
        <ele>22.73</ele>
        <time>2016-09-04T09:34:59Z</time>
      </trkpt>
      <trkpt lat="47.42118" lon="-0.60904">
        <ele>22.73</ele>
        <time>2016-09-04T09:35:03Z</time>
      </trkpt>
      <trkpt lat="47.4216" lon="-0.60845">
        <ele>22.25</ele>
        <time>2016-09-04T09:35:15Z</time>
      </trkpt>
      <trkpt lat="47.42164" lon="-0.60843">
        <ele>22.25</ele>
        <time>2016-09-04T09:35:16Z</time>
      </trkpt>
      <trkpt lat="47.42168" lon="-0.60844">
        <ele>22.25</ele>
        <time>2016-09-04T09:35:17Z</time>
      </trkpt>
      <trkpt lat="47.4217" lon="-0.60846">
        <ele>22.73</ele>
        <time>2016-09-04T09:35:18Z</time>
      </trkpt>
      <trkpt lat="47.42172" lon="-0.60849">
        <ele>23.69</ele>
        <time>2016-09-04T09:35:19Z</time>
      </trkpt>
      <trkpt lat="47.42175" lon="-0.60853">
        <ele>24.65</ele>
        <time>2016-09-04T09:35:21Z</time>
      </trkpt>
      <trkpt lat="47.42176" lon="-0.60853">
        <ele>24.17</ele>
        <time>2016-09-04T09:35:22Z</time>
      </trkpt>
      <trkpt lat="47.42178" lon="-0.60852">
        <ele>24.17</ele>
        <time>2016-09-04T09:35:23Z</time>
      </trkpt>
      <trkpt lat="47.42179" lon="-0.6085">
        <ele>24.17</ele>
        <time>2016-09-04T09:35:24Z</time>
      </trkpt>
      <trkpt lat="47.42179" lon="-0.60847">
        <ele>24.65</ele>
        <time>2016-09-04T09:35:25Z</time>
      </trkpt>
      <trkpt lat="47.42179" lon="-0.60844">
        <ele>24.65</ele>
        <time>2016-09-04T09:35:26Z</time>
      </trkpt>
      <trkpt lat="47.42179" lon="-0.60842">
        <ele>24.65</ele>
        <time>2016-09-04T09:35:27Z</time>
      </trkpt>
      <trkpt lat="47.42192" lon="-0.60796">
        <ele>24.17</ele>
        <time>2016-09-04T09:35:40Z</time>
      </trkpt>
      <trkpt lat="47.42207" lon="-0.60766">
        <ele>24.17</ele>
        <time>2016-09-04T09:35:53Z</time>
      </trkpt>
      <trkpt lat="47.42211" lon="-0.60761">
        <ele>24.17</ele>
        <time>2016-09-04T09:35:56Z</time>
      </trkpt>
      <trkpt lat="47.42213" lon="-0.60763">
        <ele>24.17</ele>
        <time>2016-09-04T09:35:57Z</time>
      </trkpt>
      <trkpt lat="47.42213" lon="-0.60765">
        <ele>23.69</ele>
        <time>2016-09-04T09:35:58Z</time>
      </trkpt>
      <trkpt lat="47.42213" lon="-0.60767">
        <ele>24.65</ele>
        <time>2016-09-04T09:35:59Z</time>
      </trkpt>
      <trkpt lat="47.42211" lon="-0.60769">
        <ele>24.65</ele>
        <time>2016-09-04T09:36:00Z</time>
      </trkpt>
      <trkpt lat="47.42209" lon="-0.6077">
        <ele>24.65</ele>
        <time>2016-09-04T09:36:01Z</time>
      </trkpt>
      <trkpt lat="47.42208" lon="-0.60773">
        <ele>24.65</ele>
        <time>2016-09-04T09:36:02Z</time>
      </trkpt>
      <trkpt lat="47.42207" lon="-0.60776">
        <ele>24.65</ele>
        <time>2016-09-04T09:36:03Z</time>
      </trkpt>
      <trkpt lat="47.42207" lon="-0.60779">
        <ele>24.65</ele>
        <time>2016-09-04T09:36:04Z</time>
      </trkpt>
      <trkpt lat="47.42209" lon="-0.60779">
        <ele>24.65</ele>
        <time>2016-09-04T09:36:05Z</time>
      </trkpt>
      <trkpt lat="47.4221" lon="-0.60777">
        <ele>25.13</ele>
        <time>2016-09-04T09:36:06Z</time>
      </trkpt>
      <trkpt lat="47.42211" lon="-0.60774">
        <ele>24.17</ele>
        <time>2016-09-04T09:36:07Z</time>
      </trkpt>
      <trkpt lat="47.42212" lon="-0.60771">
        <ele>24.17</ele>
        <time>2016-09-04T09:36:08Z</time>
      </trkpt>
      <trkpt lat="47.42214" lon="-0.60767">
        <ele>24.65</ele>
        <time>2016-09-04T09:36:09Z</time>
      </trkpt>
      <trkpt lat="47.42235" lon="-0.60743">
        <ele>24.17</ele>
        <time>2016-09-04T09:36:19Z</time>
      </trkpt>
      <trkpt lat="47.42236" lon="-0.6074">
        <ele>24.17</ele>
        <time>2016-09-04T09:36:20Z</time>
      </trkpt>
      <trkpt lat="47.42238" lon="-0.60739">
        <ele>24.17</ele>
        <time>2016-09-04T09:36:21Z</time>
      </trkpt>
      <trkpt lat="47.4224" lon="-0.60737">
        <ele>24.65</ele>
        <time>2016-09-04T09:36:22Z</time>
      </trkpt>
      <trkpt lat="47.42242" lon="-0.60734">
        <ele>24.65</ele>
        <time>2016-09-04T09:36:23Z</time>
      </trkpt>
      <trkpt lat="47.42245" lon="-0.6073">
        <ele>24.17</ele>
        <time>2016-09-04T09:36:24Z</time>
      </trkpt>
      <trkpt lat="47.42248" lon="-0.60726">
        <ele>24.17</ele>
        <time>2016-09-04T09:36:25Z</time>
      </trkpt>
      <trkpt lat="47.42251" lon="-0.60722">
        <ele>24.17</ele>
        <time>2016-09-04T09:36:26Z</time>
      </trkpt>
      <trkpt lat="47.42255" lon="-0.60718">
        <ele>24.65</ele>
        <time>2016-09-04T09:36:27Z</time>
      </trkpt>
      <trkpt lat="47.42258" lon="-0.60713">
        <ele>25.13</ele>
        <time>2016-09-04T09:36:28Z</time>
      </trkpt>
      <trkpt lat="47.4226" lon="-0.60706">
        <ele>24.17</ele>
        <time>2016-09-04T09:36:29Z</time>
      </trkpt>
      <trkpt lat="47.42261" lon="-0.60698">
        <ele>24.65</ele>
        <time>2016-09-04T09:36:30Z</time>
      </trkpt>
      <trkpt lat="47.42263" lon="-0.60689">
        <ele>24.17</ele>
        <time>2016-09-04T09:36:31Z</time>
      </trkpt>
      <trkpt lat="47.42264" lon="-0.6068">
        <ele>23.69</ele>
        <time>2016-09-04T09:36:32Z</time>
      </trkpt>
      <trkpt lat="47.42273" lon="-0.60644">
        <ele>22.73</ele>
        <time>2016-09-04T09:36:36Z</time>
      </trkpt>
      <trkpt lat="47.42275" lon="-0.60634">
        <ele>22.73</ele>
        <time>2016-09-04T09:36:37Z</time>
      </trkpt>
      <trkpt lat="47.42276" lon="-0.60605">
        <ele>22.25</ele>
        <time>2016-09-04T09:36:40Z</time>
      </trkpt>
      <trkpt lat="47.42278" lon="-0.60597">
        <ele>21.77</ele>
        <time>2016-09-04T09:36:41Z</time>
      </trkpt>
      <trkpt lat="47.4228" lon="-0.60589">
        <ele>21.29</ele>
        <time>2016-09-04T09:36:42Z</time>
      </trkpt>
      <trkpt lat="47.42284" lon="-0.60583">
        <ele>21.77</ele>
        <time>2016-09-04T09:36:43Z</time>
      </trkpt>
      <trkpt lat="47.4229" lon="-0.6058">
        <ele>21.77</ele>
        <time>2016-09-04T09:36:44Z</time>
      </trkpt>
      <trkpt lat="47.42296" lon="-0.60578">
        <ele>22.25</ele>
        <time>2016-09-04T09:36:45Z</time>
      </trkpt>
      <trkpt lat="47.42384" lon="-0.60539">
        <ele>22.25</ele>
        <time>2016-09-04T09:36:59Z</time>
      </trkpt>
      <trkpt lat="47.42391" lon="-0.60537">
        <ele>22.25</ele>
        <time>2016-09-04T09:37:00Z</time>
      </trkpt>
      <trkpt lat="47.42397" lon="-0.60536">
        <ele>22.25</ele>
        <time>2016-09-04T09:37:01Z</time>
      </trkpt>
      <trkpt lat="47.42476" lon="-0.6051">
        <ele>22.25</ele>
        <time>2016-09-04T09:37:14Z</time>
      </trkpt>
      <trkpt lat="47.42561" lon="-0.60462">
        <ele>21.77</ele>
        <time>2016-09-04T09:37:29Z</time>
      </trkpt>
      <trkpt lat="47.42573" lon="-0.60458">
        <ele>22.25</ele>
        <time>2016-09-04T09:37:31Z</time>
      </trkpt>
      <trkpt lat="47.42578" lon="-0.60458">
        <ele>22.73</ele>
        <time>2016-09-04T09:37:32Z</time>
      </trkpt>
      <trkpt lat="47.42584" lon="-0.60459">
        <ele>22.25</ele>
        <time>2016-09-04T09:37:33Z</time>
      </trkpt>
      <trkpt lat="47.42589" lon="-0.60462">
        <ele>22.25</ele>
        <time>2016-09-04T09:37:34Z</time>
      </trkpt>
      <trkpt lat="47.42594" lon="-0.60464">
        <ele>22.73</ele>
        <time>2016-09-04T09:37:35Z</time>
      </trkpt>
      <trkpt lat="47.42599" lon="-0.60465">
        <ele>22.73</ele>
        <time>2016-09-04T09:37:36Z</time>
      </trkpt>
      <trkpt lat="47.42604" lon="-0.60467">
        <ele>23.21</ele>
        <time>2016-09-04T09:37:37Z</time>
      </trkpt>
      <trkpt lat="47.42664" lon="-0.60457">
        <ele>23.69</ele>
        <time>2016-09-04T09:37:49Z</time>
      </trkpt>
      <trkpt lat="47.42746" lon="-0.60457">
        <ele>23.21</ele>
        <time>2016-09-04T09:38:02Z</time>
      </trkpt>
      <trkpt lat="47.42771" lon="-0.60455">
        <ele>23.69</ele>
        <time>2016-09-04T09:38:06Z</time>
      </trkpt>
      <trkpt lat="47.42778" lon="-0.60453">
        <ele>23.69</ele>
        <time>2016-09-04T09:38:07Z</time>
      </trkpt>
      <trkpt lat="47.42784" lon="-0.60452">
        <ele>23.21</ele>
        <time>2016-09-04T09:38:08Z</time>
      </trkpt>
      <trkpt lat="47.42791" lon="-0.60453">
        <ele>24.17</ele>
        <time>2016-09-04T09:38:09Z</time>
      </trkpt>
      <trkpt lat="47.42797" lon="-0.60455">
        <ele>23.21</ele>
        <time>2016-09-04T09:38:10Z</time>
      </trkpt>
      <trkpt lat="47.42872" lon="-0.60478">
        <ele>23.21</ele>
        <time>2016-09-04T09:38:22Z</time>
      </trkpt>
      <trkpt lat="47.42952" lon="-0.605">
        <ele>23.21</ele>
        <time>2016-09-04T09:38:35Z</time>
      </trkpt>
      <trkpt lat="47.43011" lon="-0.60505">
        <ele>23.69</ele>
        <time>2016-09-04T09:38:45Z</time>
      </trkpt>
      <trkpt lat="47.43072" lon="-0.60495">
        <ele>23.21</ele>
        <time>2016-09-04T09:38:56Z</time>
      </trkpt>
      <trkpt lat="47.43096" lon="-0.60492">
        <ele>23.21</ele>
        <time>2016-09-04T09:39:00Z</time>
      </trkpt>
      <trkpt lat="47.43178" lon="-0.60481">
        <ele>23.69</ele>
        <time>2016-09-04T09:39:13Z</time>
      </trkpt>
      <trkpt lat="47.43265" lon="-0.605">
        <ele>23.69</ele>
        <time>2016-09-04T09:39:27Z</time>
      </trkpt>
      <trkpt lat="47.43343" lon="-0.60497">
        <ele>22.73</ele>
        <time>2016-09-04T09:39:39Z</time>
      </trkpt>
      <trkpt lat="47.43375" lon="-0.60499">
        <ele>24.65</ele>
        <time>2016-09-04T09:39:44Z</time>
      </trkpt>
      <trkpt lat="47.43411" lon="-0.60502">
        <ele>24.65</ele>
        <time>2016-09-04T09:39:50Z</time>
      </trkpt>
      <trkpt lat="47.43417" lon="-0.605">
        <ele>24.17</ele>
        <time>2016-09-04T09:39:51Z</time>
      </trkpt>
      <trkpt lat="47.43423" lon="-0.60499">
        <ele>24.65</ele>
        <time>2016-09-04T09:39:52Z</time>
      </trkpt>
      <trkpt lat="47.43429" lon="-0.60497">
        <ele>24.17</ele>
        <time>2016-09-04T09:39:53Z</time>
      </trkpt>
      <trkpt lat="47.43435" lon="-0.60493">
        <ele>24.17</ele>
        <time>2016-09-04T09:39:54Z</time>
      </trkpt>
      <trkpt lat="47.43516" lon="-0.6046">
        <ele>24.65</ele>
        <time>2016-09-04T09:40:07Z</time>
      </trkpt>
      <trkpt lat="47.43528" lon="-0.60456">
        <ele>24.65</ele>
        <time>2016-09-04T09:40:09Z</time>
      </trkpt>
      <trkpt lat="47.43534" lon="-0.60455">
        <ele>24.65</ele>
        <time>2016-09-04T09:40:10Z</time>
      </trkpt>
      <trkpt lat="47.43545" lon="-0.60449">
        <ele>23.69</ele>
        <time>2016-09-04T09:40:12Z</time>
      </trkpt>
      <trkpt lat="47.4361" lon="-0.60397">
        <ele>23.21</ele>
        <time>2016-09-04T09:40:23Z</time>
      </trkpt>
      <trkpt lat="47.43615" lon="-0.60394">
        <ele>23.21</ele>
        <time>2016-09-04T09:40:24Z</time>
      </trkpt>
      <trkpt lat="47.43621" lon="-0.60392">
        <ele>23.21</ele>
        <time>2016-09-04T09:40:25Z</time>
      </trkpt>
      <trkpt lat="47.4371" lon="-0.60349">
        <ele>23.21</ele>
        <time>2016-09-04T09:40:39Z</time>
      </trkpt>
      <trkpt lat="47.43819" lon="-0.6027">
        <ele>22.73</ele>
        <time>2016-09-04T09:40:54Z</time>
      </trkpt>
      <trkpt lat="47.43884" lon="-0.6022">
        <ele>23.21</ele>
        <time>2016-09-04T09:41:04Z</time>
      </trkpt>
      <trkpt lat="47.43891" lon="-0.60216">
        <ele>22.73</ele>
        <time>2016-09-04T09:41:05Z</time>
      </trkpt>
      <trkpt lat="47.43897" lon="-0.60213">
        <ele>22.25</ele>
        <time>2016-09-04T09:41:06Z</time>
      </trkpt>
      <trkpt lat="47.43909" lon="-0.60204">
        <ele>22.25</ele>
        <time>2016-09-04T09:41:08Z</time>
      </trkpt>
      <trkpt lat="47.43915" lon="-0.60199">
        <ele>22.25</ele>
        <time>2016-09-04T09:41:09Z</time>
      </trkpt>
      <trkpt lat="47.4392" lon="-0.60195">
        <ele>22.73</ele>
        <time>2016-09-04T09:41:10Z</time>
      </trkpt>
      <trkpt lat="47.43931" lon="-0.60187">
        <ele>23.21</ele>
        <time>2016-09-04T09:41:12Z</time>
      </trkpt>
      <trkpt lat="47.43942" lon="-0.60177">
        <ele>23.21</ele>
        <time>2016-09-04T09:41:14Z</time>
      </trkpt>
      <trkpt lat="47.43948" lon="-0.60173">
        <ele>23.69</ele>
        <time>2016-09-04T09:41:15Z</time>
      </trkpt>
      <trkpt lat="47.44026" lon="-0.60105">
        <ele>23.21</ele>
        <time>2016-09-04T09:41:29Z</time>
      </trkpt>
      <trkpt lat="47.44093" lon="-0.60041">
        <ele>23.21</ele>
        <time>2016-09-04T09:41:40Z</time>
      </trkpt>
      <trkpt lat="47.44161" lon="-0.59977">
        <ele>23.21</ele>
        <time>2016-09-04T09:41:52Z</time>
      </trkpt>
      <trkpt lat="47.44228" lon="-0.59913">
        <ele>22.73</ele>
        <time>2016-09-04T09:42:05Z</time>
      </trkpt>
      <trkpt lat="47.44321" lon="-0.59822">
        <ele>22.73</ele>
        <time>2016-09-04T09:42:23Z</time>
      </trkpt>
      <trkpt lat="47.44357" lon="-0.59789">
        <ele>22.73</ele>
        <time>2016-09-04T09:42:30Z</time>
      </trkpt>
      <trkpt lat="47.44414" lon="-0.5974">
        <ele>22.73</ele>
        <time>2016-09-04T09:42:41Z</time>
      </trkpt>
      <trkpt lat="47.44427" lon="-0.5973">
        <ele>22.73</ele>
        <time>2016-09-04T09:42:45Z</time>
      </trkpt>
      <trkpt lat="47.44429" lon="-0.59728">
        <ele>23.21</ele>
        <time>2016-09-04T09:42:46Z</time>
      </trkpt>
      <trkpt lat="47.44431" lon="-0.59727">
        <ele>23.21</ele>
        <time>2016-09-04T09:42:47Z</time>
      </trkpt>
      <trkpt lat="47.44433" lon="-0.59726">
        <ele>23.21</ele>
        <time>2016-09-04T09:42:48Z</time>
      </trkpt>
      <trkpt lat="47.44435" lon="-0.59723">
        <ele>23.69</ele>
        <time>2016-09-04T09:42:49Z</time>
      </trkpt>
      <trkpt lat="47.4446" lon="-0.59704">
        <ele>24.17</ele>
        <time>2016-09-04T09:42:57Z</time>
      </trkpt>
      <trkpt lat="47.44463" lon="-0.59702">
        <ele>23.69</ele>
        <time>2016-09-04T09:42:58Z</time>
      </trkpt>
      <trkpt lat="47.44465" lon="-0.597">
        <ele>23.69</ele>
        <time>2016-09-04T09:42:59Z</time>
      </trkpt>
      <trkpt lat="47.44469" lon="-0.59699">
        <ele>23.69</ele>
        <time>2016-09-04T09:43:00Z</time>
      </trkpt>
      <trkpt lat="47.44471" lon="-0.59696">
        <ele>23.69</ele>
        <time>2016-09-04T09:43:01Z</time>
      </trkpt>
      <trkpt lat="47.44473" lon="-0.59694">
        <ele>23.69</ele>
        <time>2016-09-04T09:43:02Z</time>
      </trkpt>
      <trkpt lat="47.44476" lon="-0.59691">
        <ele>23.69</ele>
        <time>2016-09-04T09:43:03Z</time>
      </trkpt>
      <trkpt lat="47.4448" lon="-0.59687">
        <ele>23.69</ele>
        <time>2016-09-04T09:43:04Z</time>
      </trkpt>
      <trkpt lat="47.44552" lon="-0.59631">
        <ele>23.69</ele>
        <time>2016-09-04T09:43:18Z</time>
      </trkpt>
      <trkpt lat="47.44623" lon="-0.59587">
        <ele>23.69</ele>
        <time>2016-09-04T09:43:32Z</time>
      </trkpt>
      <trkpt lat="47.44711" lon="-0.59556">
        <ele>23.69</ele>
        <time>2016-09-04T09:43:48Z</time>
      </trkpt>
      <trkpt lat="47.44808" lon="-0.59521">
        <ele>24.17</ele>
        <time>2016-09-04T09:44:04Z</time>
      </trkpt>
      <trkpt lat="47.44877" lon="-0.59495">
        <ele>24.17</ele>
        <time>2016-09-04T09:44:16Z</time>
      </trkpt>
      <trkpt lat="47.44909" lon="-0.59472">
        <ele>24.65</ele>
        <time>2016-09-04T09:44:22Z</time>
      </trkpt>
      <trkpt lat="47.44936" lon="-0.59447">
        <ele>24.65</ele>
        <time>2016-09-04T09:44:27Z</time>
      </trkpt>
      <trkpt lat="47.44941" lon="-0.59444">
        <ele>24.65</ele>
        <time>2016-09-04T09:44:28Z</time>
      </trkpt>
      <trkpt lat="47.44945" lon="-0.5944">
        <ele>24.65</ele>
        <time>2016-09-04T09:44:29Z</time>
      </trkpt>
      <trkpt lat="47.44949" lon="-0.59434">
        <ele>24.65</ele>
        <time>2016-09-04T09:44:30Z</time>
      </trkpt>
      <trkpt lat="47.44952" lon="-0.59428">
        <ele>24.65</ele>
        <time>2016-09-04T09:44:31Z</time>
      </trkpt>
      <trkpt lat="47.44964" lon="-0.5941">
        <ele>24.17</ele>
        <time>2016-09-04T09:44:34Z</time>
      </trkpt>
      <trkpt lat="47.44968" lon="-0.59407">
        <ele>24.65</ele>
        <time>2016-09-04T09:44:35Z</time>
      </trkpt>
      <trkpt lat="47.44973" lon="-0.59405">
        <ele>24.17</ele>
        <time>2016-09-04T09:44:36Z</time>
      </trkpt>
      <trkpt lat="47.44978" lon="-0.59407">
        <ele>24.65</ele>
        <time>2016-09-04T09:44:37Z</time>
      </trkpt>
      <trkpt lat="47.44983" lon="-0.5941">
        <ele>25.13</ele>
        <time>2016-09-04T09:44:38Z</time>
      </trkpt>
      <trkpt lat="47.44987" lon="-0.59414">
        <ele>24.65</ele>
        <time>2016-09-04T09:44:39Z</time>
      </trkpt>
      <trkpt lat="47.44991" lon="-0.59419">
        <ele>24.17</ele>
        <time>2016-09-04T09:44:40Z</time>
      </trkpt>
      <trkpt lat="47.44996" lon="-0.59425">
        <ele>24.65</ele>
        <time>2016-09-04T09:44:41Z</time>
      </trkpt>
      <trkpt lat="47.45023" lon="-0.59462">
        <ele>24.65</ele>
        <time>2016-09-04T09:44:47Z</time>
      </trkpt>
      <trkpt lat="47.45029" lon="-0.59466">
        <ele>24.65</ele>
        <time>2016-09-04T09:44:48Z</time>
      </trkpt>
      <trkpt lat="47.45059" lon="-0.59489">
        <ele>25.13</ele>
        <time>2016-09-04T09:44:54Z</time>
      </trkpt>
      <trkpt lat="47.45063" lon="-0.59492">
        <ele>26.09</ele>
        <time>2016-09-04T09:44:55Z</time>
      </trkpt>
      <trkpt lat="47.45068" lon="-0.59495">
        <ele>26.09</ele>
        <time>2016-09-04T09:44:56Z</time>
      </trkpt>
      <trkpt lat="47.45076" lon="-0.595">
        <ele>26.09</ele>
        <time>2016-09-04T09:44:58Z</time>
      </trkpt>
      <trkpt lat="47.45081" lon="-0.595">
        <ele>26.09</ele>
        <time>2016-09-04T09:44:59Z</time>
      </trkpt>
      <trkpt lat="47.45085" lon="-0.59499">
        <ele>26.09</ele>
        <time>2016-09-04T09:45:00Z</time>
      </trkpt>
      <trkpt lat="47.45089" lon="-0.59494">
        <ele>26.09</ele>
        <time>2016-09-04T09:45:01Z</time>
      </trkpt>
      <trkpt lat="47.45092" lon="-0.59487">
        <ele>26.57</ele>
        <time>2016-09-04T09:45:02Z</time>
      </trkpt>
      <trkpt lat="47.45097" lon="-0.59482">
        <ele>26.57</ele>
        <time>2016-09-04T09:45:03Z</time>
      </trkpt>
      <trkpt lat="47.45101" lon="-0.59478">
        <ele>26.57</ele>
        <time>2016-09-04T09:45:04Z</time>
      </trkpt>
      <trkpt lat="47.45105" lon="-0.59474">
        <ele>26.57</ele>
        <time>2016-09-04T09:45:05Z</time>
      </trkpt>
      <trkpt lat="47.4511" lon="-0.59471">
        <ele>26.09</ele>
        <time>2016-09-04T09:45:06Z</time>
      </trkpt>
      <trkpt lat="47.45123" lon="-0.59461">
        <ele>26.09</ele>
        <time>2016-09-04T09:45:09Z</time>
      </trkpt>
      <trkpt lat="47.45127" lon="-0.5946">
        <ele>26.09</ele>
        <time>2016-09-04T09:45:10Z</time>
      </trkpt>
      <trkpt lat="47.45132" lon="-0.59458">
        <ele>26.09</ele>
        <time>2016-09-04T09:45:11Z</time>
      </trkpt>
      <trkpt lat="47.45137" lon="-0.59457">
        <ele>26.57</ele>
        <time>2016-09-04T09:45:12Z</time>
      </trkpt>
      <trkpt lat="47.45143" lon="-0.59457">
        <ele>26.09</ele>
        <time>2016-09-04T09:45:13Z</time>
      </trkpt>
      <trkpt lat="47.45148" lon="-0.59458">
        <ele>26.09</ele>
        <time>2016-09-04T09:45:14Z</time>
      </trkpt>
      <trkpt lat="47.45153" lon="-0.59459">
        <ele>26.57</ele>
        <time>2016-09-04T09:45:15Z</time>
      </trkpt>
      <trkpt lat="47.4521" lon="-0.59459">
        <ele>26.57</ele>
        <time>2016-09-04T09:45:28Z</time>
      </trkpt>
      <trkpt lat="47.45251" lon="-0.59445">
        <ele>27.05</ele>
        <time>2016-09-04T09:45:38Z</time>
      </trkpt>
      <trkpt lat="47.45276" lon="-0.59428">
        <ele>27.53</ele>
        <time>2016-09-04T09:45:43Z</time>
      </trkpt>
      <trkpt lat="47.45281" lon="-0.59426">
        <ele>27.53</ele>
        <time>2016-09-04T09:45:44Z</time>
      </trkpt>
      <trkpt lat="47.45287" lon="-0.59424">
        <ele>27.53</ele>
        <time>2016-09-04T09:45:45Z</time>
      </trkpt>
      <trkpt lat="47.45352" lon="-0.59423">
        <ele>27.05</ele>
        <time>2016-09-04T09:45:57Z</time>
      </trkpt>
      <trkpt lat="47.45384" lon="-0.59425">
        <ele>27.05</ele>
        <time>2016-09-04T09:46:03Z</time>
      </trkpt>
      <trkpt lat="47.45421" lon="-0.59433">
        <ele>27.05</ele>
        <time>2016-09-04T09:46:10Z</time>
      </trkpt>
      <trkpt lat="47.45426" lon="-0.59436">
        <ele>27.05</ele>
        <time>2016-09-04T09:46:11Z</time>
      </trkpt>
      <trkpt lat="47.45462" lon="-0.59469">
        <ele>28.02</ele>
        <time>2016-09-04T09:46:19Z</time>
      </trkpt>
      <trkpt lat="47.45465" lon="-0.59475">
        <ele>27.53</ele>
        <time>2016-09-04T09:46:20Z</time>
      </trkpt>
      <trkpt lat="47.45468" lon="-0.59481">
        <ele>28.02</ele>
        <time>2016-09-04T09:46:21Z</time>
      </trkpt>
      <trkpt lat="47.45471" lon="-0.59488">
        <ele>28.02</ele>
        <time>2016-09-04T09:46:22Z</time>
      </trkpt>
      <trkpt lat="47.45473" lon="-0.59494">
        <ele>28.02</ele>
        <time>2016-09-04T09:46:23Z</time>
      </trkpt>
      <trkpt lat="47.45492" lon="-0.59552">
        <ele>27.53</ele>
        <time>2016-09-04T09:46:35Z</time>
      </trkpt>
      <trkpt lat="47.45496" lon="-0.59566">
        <ele>28.02</ele>
        <time>2016-09-04T09:46:42Z</time>
      </trkpt>
      <trkpt lat="47.45491" lon="-0.5957">
        <ele>27.53</ele>
        <time>2016-09-04T09:46:52Z</time>
      </trkpt>
      <trkpt lat="47.45491" lon="-0.59572">
        <ele>27.53</ele>
        <time>2016-09-04T09:47:07Z</time>
      </trkpt>
      <trkpt lat="47.45491" lon="-0.59572">
        <ele>28.02</ele>
        <time>2016-09-04T09:47:29Z</time>
      </trkpt>
      <trkpt lat="47.45492" lon="-0.59572">
        <ele>27.53</ele>
        <time>2016-09-04T09:48:14Z</time>
      </trkpt>
      <trkpt lat="47.4549" lon="-0.59569">
        <ele>27.05</ele>
        <time>2016-09-04T09:49:06Z</time>
      </trkpt>
      <trkpt lat="47.45489" lon="-0.59571">
        <ele>26.57</ele>
        <time>2016-09-04T09:49:38Z</time>
      </trkpt>
      <trkpt lat="47.45488" lon="-0.59574">
        <ele>26.57</ele>
        <time>2016-09-04T09:50:22Z</time>
      </trkpt>
      <trkpt lat="47.45486" lon="-0.59573">
        <ele>27.05</ele>
        <time>2016-09-04T09:51:00Z</time>
      </trkpt>
      <trkpt lat="47.4549" lon="-0.59572">
        <ele>28.02</ele>
        <time>2016-09-04T09:51:35Z</time>
      </trkpt>
      <trkpt lat="47.45491" lon="-0.59572">
        <ele>27.05</ele>
        <time>2016-09-04T09:52:21Z</time>
      </trkpt>
      <trkpt lat="47.45493" lon="-0.59572">
        <ele>28.5</ele>
        <time>2016-09-04T09:52:56Z</time>
      </trkpt>
    </trkseg>
  </trk>
</gpx>